Wetterdaten: Montag, 13.11.2017
Datum Zeit Temp. A. Pool Temp. Feuchte A. Luftdruck Regen Wind Richtung Richtung Sonnenschein ET UV Solar Taupunkt Windchill Windben Empfang
13.11.2017 00:00 4,2 C 7,8 C 84 % 1003,5 hPa 0,0 l/m 21,6 km/h (4 Bft) W 279 0 min 0,000 mm 0,0 UV-I 0 W/m 1,7 C -4,8 C 37,0 km/h (5 Bft) 100,00 %
13.11.2017 00:02 4,2 C 7,8 C 85 % 1003,5 hPa 0,0 l/m 21,1 km/h (4 Bft) W-SW 256 0 min 0,000 mm 0,0 UV-I 0 W/m 1,9 C -4,6 C 33,8 km/h (5 Bft) 97,44 %
13.11.2017 00:04 4,2 C 7,8 C 84 % 1003,5 hPa 0,0 l/m 22,4 km/h (4 Bft) W 280 0 min 0,000 mm 0,0 UV-I 0 W/m 1,7 C -5,1 C 37,0 km/h (5 Bft) 100,00 %
13.11.2017 00:06 4,2 C 7,8 C 85 % 1003,5 hPa 0,0 l/m 16,8 km/h (3 Bft) W 261 0 min 0,000 mm 0,0 UV-I 0 W/m 1,9 C -2,8 C 22,5 km/h (4 Bft) 97,44 %
13.11.2017 00:08 4,1 C 7,8 C 85 % 1003,5 hPa 0,0 l/m 14,1 km/h (3 Bft) W 265 0 min 0,000 mm 0,0 UV-I 0 W/m 1,8 C -1,5 C 20,9 km/h (4 Bft) 100,00 %
13.11.2017 00:10 4,1 C 7,8 C 85 % 1003,5 hPa 0,0 l/m 21,9 km/h (4 Bft) W-SW 250 0 min 0,000 mm 0,0 UV-I 0 W/m 1,8 C -5,1 C 38,6 km/h (5 Bft) 94,29 %
13.11.2017 00:12 4,1 C 7,8 C 85 % 1003,5 hPa 0,0 l/m 24,3 km/h (4 Bft) W-SW 243 0 min 0,000 mm 0,0 UV-I 0 W/m 1,8 C -5,9 C 38,6 km/h (5 Bft) 100,00 %
13.11.2017 00:14 4,1 C 7,8 C 85 % 1003,5 hPa 0,0 l/m 21,6 km/h (4 Bft) W 273 0 min 0,000 mm 0,0 UV-I 0 W/m 1,8 C -5,0 C 30,6 km/h (5 Bft) 100,00 %
13.11.2017 00:16 4,1 C 7,8 C 85 % 1003,5 hPa 0,0 l/m 25,1 km/h (4 Bft) SW 227 0 min 0,000 mm 0,0 UV-I 0 W/m 1,8 C -6,2 C 38,6 km/h (5 Bft) 100,00 %
13.11.2017 00:18 4,1 C 7,8 C 85 % 1003,6 hPa 0,0 l/m 20,0 km/h (4 Bft) W 281 0 min 0,000 mm 0,0 UV-I 0 W/m 1,8 C -4,3 C 29,0 km/h (5 Bft) 98,00 %
13.11.2017 00:20 4,1 C 7,8 C 85 % 1003,6 hPa 0,0 l/m 18,3 km/h (3 Bft) W-SW 247 0 min 0,000 mm 0,0 UV-I 0 W/m 1,8 C -3,6 C 25,7 km/h (4 Bft) 100,00 %
13.11.2017 00:22 4,1 C 7,8 C 85 % 1003,6 hPa 0,0 l/m 21,7 km/h (4 Bft) W-SW 238 0 min 0,000 mm 0,0 UV-I 0 W/m 1,8 C -5,0 C 33,8 km/h (5 Bft) 100,00 %
13.11.2017 00:24 4,1 C 7,8 C 85 % 1003,6 hPa 0,0 l/m 18,7 km/h (3 Bft) W-SW 258 0 min 0,000 mm 0,0 UV-I 0 W/m 1,8 C -3,8 C 25,7 km/h (4 Bft) 100,00 %
13.11.2017 00:26 4,1 C 7,8 C 85 % 1003,5 hPa 0,0 l/m 23,5 km/h (4 Bft) W 268 0 min 0,000 mm 0,0 UV-I 0 W/m 1,8 C -5,7 C 40,2 km/h (6 Bft) 100,00 %
13.11.2017 00:28 4,1 C 7,8 C 85 % 1003,5 hPa 0,0 l/m 27,5 km/h (4 Bft) W 273 0 min 0,000 mm 0,0 UV-I 0 W/m 1,8 C -6,9 C 40,2 km/h (6 Bft) 100,00 %
13.11.2017 00:30 4,1 C 7,8 C 84 % 1003,6 hPa 0,0 l/m 19,3 km/h (3 Bft) W-SW 254 0 min 0,000 mm 0,0 UV-I 0 W/m 1,6 C -4,0 C 29,0 km/h (5 Bft) 100,00 %
13.11.2017 00:32 4,1 C 7,8 C 84 % 1003,7 hPa 0,0 l/m 20,3 km/h (4 Bft) W-NW 282 0 min 0,000 mm 0,0 UV-I 0 W/m 1,6 C -4,5 C 25,7 km/h (4 Bft) 100,00 %
13.11.2017 00:34 4,1 C 7,8 C 84 % 1003,6 hPa 0,0 l/m 23,8 km/h (4 Bft) W 275 0 min 0,000 mm 0,0 UV-I 0 W/m 1,6 C -5,8 C 41,8 km/h (6 Bft) 100,00 %
13.11.2017 00:36 4,1 C 7,8 C 84 % 1003,8 hPa 0,0 l/m 19,7 km/h (3 Bft) W 259 0 min 0,000 mm 0,0 UV-I 0 W/m 1,6 C -4,2 C 30,6 km/h (5 Bft) 100,00 %
13.11.2017 00:38 4,1 C 7,8 C 84 % 1003,8 hPa 0,0 l/m 18,3 km/h (3 Bft) W 265 0 min 0,000 mm 0,0 UV-I 0 W/m 1,6 C -3,6 C 29,0 km/h (5 Bft) 97,87 %
13.11.2017 00:40 4,1 C 7,8 C 84 % 1003,8 hPa 0,0 l/m 18,2 km/h (3 Bft) W-SW 257 0 min 0,000 mm 0,0 UV-I 0 W/m 1,6 C -3,6 C 25,7 km/h (4 Bft) 100,00 %
13.11.2017 00:42 4,1 C 7,8 C 84 % 1003,9 hPa 0,0 l/m 16,8 km/h (3 Bft) W-SW 243 0 min 0,000 mm 0,0 UV-I 0 W/m 1,6 C -2,9 C 29,0 km/h (5 Bft) 100,00 %
13.11.2017 00:44 4,1 C 7,8 C 84 % 1003,8 hPa 0,0 l/m 17,0 km/h (3 Bft) W-SW 237 0 min 0,000 mm 0,0 UV-I 0 W/m 1,6 C -3,0 C 22,5 km/h (4 Bft) 100,00 %
13.11.2017 00:46 4,1 C 7,8 C 84 % 1003,8 hPa 0,0 l/m 12,0 km/h (2 Bft) W-SW 253 0 min 0,000 mm 0,0 UV-I 0 W/m 1,6 C -0,3 C 17,7 km/h (3 Bft) 95,45 %
13.11.2017 00:48 4,1 C 7,8 C 84 % 1003,8 hPa 0,0 l/m 20,2 km/h (4 Bft) W 263 0 min 0,000 mm 0,0 UV-I 0 W/m 1,6 C -4,4 C 32,2 km/h (5 Bft) 98,21 %
13.11.2017 00:50 4,1 C 7,8 C 84 % 1003,8 hPa 0,0 l/m 16,5 km/h (3 Bft) SW 226 0 min 0,000 mm 0,0 UV-I 0 W/m 1,6 C -2,8 C 27,4 km/h (4 Bft) 100,00 %
13.11.2017 00:52 4,1 C 7,8 C 84 % 1003,9 hPa 0,0 l/m 14,6 km/h (3 Bft) W-SW 254 0 min 0,000 mm 0,0 UV-I 0 W/m 1,6 C -1,8 C 22,5 km/h (4 Bft) 100,00 %
13.11.2017 00:54 4,1 C 7,8 C 84 % 1003,8 hPa 0,0 l/m 16,7 km/h (3 Bft) W-SW 252 0 min 0,000 mm 0,0 UV-I 0 W/m 1,6 C -2,9 C 25,7 km/h (4 Bft) 100,00 %
13.11.2017 00:56 4,1 C 7,8 C 85 % 1003,8 hPa 0,0 l/m 15,5 km/h (3 Bft) W-SW 257 0 min 0,000 mm 0,0 UV-I 0 W/m 1,8 C -2,3 C 19,3 km/h (3 Bft) 100,00 %
13.11.2017 00:58 4,1 C 7,8 C 85 % 1003,8 hPa 0,0 l/m 18,2 km/h (3 Bft) W 268 0 min 0,000 mm 0,0 UV-I 0 W/m 1,8 C -3,6 C 24,1 km/h (4 Bft) 100,00 %
13.11.2017 01:00 4,1 C 7,8 C 85 % 1003,9 hPa 0,0 l/m 16,8 km/h (3 Bft) W 260 0 min 0,000 mm 0,0 UV-I 0 W/m 1,8 C -2,9 C 27,4 km/h (4 Bft) 100,00 %
13.11.2017 01:02 4,1 C 7,8 C 85 % 1003,8 hPa 0,0 l/m 15,2 km/h (3 Bft) SW 229 0 min 0,025 mm 0,0 UV-I 0 W/m 1,8 C -2,1 C 22,5 km/h (4 Bft) 94,00 %
13.11.2017 01:04 4,1 C 7,8 C 85 % 1003,8 hPa 0,0 l/m 17,6 km/h (3 Bft) W-SW 249 0 min 0,000 mm 0,0 UV-I 0 W/m 1,8 C -3,3 C 27,4 km/h (4 Bft) 97,87 %
13.11.2017 01:06 4,0 C 7,8 C 85 % 1003,7 hPa 0,0 l/m 16,0 km/h (3 Bft) SW 225 0 min 0,000 mm 0,0 UV-I 0 W/m 1,7 C -2,7 C 22,5 km/h (4 Bft) 98,00 %
13.11.2017 01:08 4,0 C 7,8 C 85 % 1003,8 hPa 0,0 l/m 17,4 km/h (3 Bft) W-SW 250 0 min 0,000 mm 0,0 UV-I 0 W/m 1,7 C -3,3 C 30,6 km/h (5 Bft) 97,37 %
13.11.2017 01:10 4,0 C 7,8 C 85 % 1003,8 hPa 0,0 l/m 16,6 km/h (3 Bft) W-SW 244 0 min 0,000 mm 0,0 UV-I 0 W/m 1,7 C -2,9 C 25,7 km/h (4 Bft) 98,11 %
13.11.2017 01:12 4,0 C 7,8 C 85 % 1003,7 hPa 0,0 l/m 15,8 km/h (3 Bft) W 273 0 min 0,000 mm 0,0 UV-I 0 W/m 1,7 C -2,5 C 27,4 km/h (4 Bft) 97,78 %
13.11.2017 01:14 4,0 C 7,8 C 85 % 1003,7 hPa 0,0 l/m 19,2 km/h (3 Bft) W-SW 254 0 min 0,000 mm 0,0 UV-I 0 W/m 1,7 C -4,1 C 25,7 km/h (4 Bft) 97,73 %
13.11.2017 01:16 4,0 C 7,8 C 85 % 1003,7 hPa 0,0 l/m 21,2 km/h (4 Bft) W 270 0 min 0,000 mm 0,0 UV-I 0 W/m 1,7 C -4,9 C 30,6 km/h (5 Bft) 98,11 %
13.11.2017 01:18 4,0 C 7,8 C 85 % 1003,7 hPa 0,0 l/m 19,3 km/h (3 Bft) W-SW 257 0 min 0,000 mm 0,0 UV-I 0 W/m 1,7 C -4,2 C 30,6 km/h (5 Bft) 94,00 %
13.11.2017 01:20 4,0 C 7,8 C 85 % 1003,8 hPa 0,0 l/m 18,7 km/h (3 Bft) W-SW 250 0 min 0,000 mm 0,0 UV-I 0 W/m 1,7 C -3,9 C 27,4 km/h (4 Bft) 98,00 %
13.11.2017 01:22 4,0 C 7,8 C 85 % 1003,6 hPa 0,0 l/m 15,1 km/h (3 Bft) W-SW 242 0 min 0,000 mm 0,0 UV-I 0 W/m 1,7 C -2,2 C 25,7 km/h (4 Bft) 93,18 %
13.11.2017 01:24 3,9 C 7,8 C 86 % 1003,5 hPa 0,0 l/m 15,4 km/h (3 Bft) W 263 0 min 0,000 mm 0,0 UV-I 0 W/m 1,8 C -2,5 C 24,1 km/h (4 Bft) 97,62 %
13.11.2017 01:26 3,9 C 7,8 C 86 % 1003,5 hPa 0,0 l/m 18,6 km/h (3 Bft) W 265 0 min 0,000 mm 0,0 UV-I 0 W/m 1,8 C -4,0 C 24,1 km/h (4 Bft) 98,11 %
13.11.2017 01:28 3,9 C 7,8 C 86 % 1003,5 hPa 0,0 l/m 14,9 km/h (3 Bft) W 260 0 min 0,000 mm 0,0 UV-I 0 W/m 1,8 C -2,2 C 25,7 km/h (4 Bft) 97,56 %
13.11.2017 01:30 3,9 C 7,8 C 86 % 1003,5 hPa 0,0 l/m 18,8 km/h (3 Bft) W 267 0 min 0,000 mm 0,0 UV-I 0 W/m 1,8 C -4,1 C 35,4 km/h (5 Bft) 97,73 %
13.11.2017 01:32 3,9 C 7,8 C 85 % 1003,5 hPa 0,0 l/m 16,5 km/h (3 Bft) W-SW 246 0 min 0,000 mm 0,0 UV-I 0 W/m 1,6 C -3,0 C 24,1 km/h (4 Bft) 97,87 %
13.11.2017 01:34 3,9 C 7,8 C 86 % 1003,6 hPa 0,0 l/m 16,5 km/h (3 Bft) W-SW 239 0 min 0,000 mm 0,0 UV-I 0 W/m 1,8 C -3,0 C 24,1 km/h (4 Bft) 96,00 %
13.11.2017 01:36 3,9 C 7,8 C 86 % 1003,6 hPa 0,0 l/m 14,4 km/h (3 Bft) W-SW 252 0 min 0,000 mm 0,0 UV-I 0 W/m 1,8 C -1,9 C 24,1 km/h (4 Bft) 96,00 %
13.11.2017 01:38 3,9 C 7,8 C 86 % 1003,7 hPa 0,0 l/m 18,1 km/h (3 Bft) W-SW 241 0 min 0,000 mm 0,0 UV-I 0 W/m 1,8 C -3,8 C 27,4 km/h (4 Bft) 97,56 %
13.11.2017 01:40 3,9 C 7,8 C 86 % 1003,8 hPa 0,0 l/m 16,7 km/h (3 Bft) SW 225 0 min 0,000 mm 0,0 UV-I 0 W/m 1,8 C -3,1 C 27,4 km/h (4 Bft) 96,43 %
13.11.2017 01:42 3,9 C 7,8 C 85 % 1003,8 hPa 0,0 l/m 19,3 km/h (3 Bft) W-NW 284 0 min 0,000 mm 0,0 UV-I 0 W/m 1,6 C -4,3 C 29,0 km/h (5 Bft) 97,14 %
13.11.2017 01:44 3,9 C 7,8 C 85 % 1004,0 hPa 0,0 l/m 21,0 km/h (4 Bft) W-SW 246 0 min 0,000 mm 0,0 UV-I 0 W/m 1,6 C -5,0 C 29,0 km/h (5 Bft) 96,43 %
13.11.2017 01:46 3,9 C 7,8 C 86 % 1004,0 hPa 0,0 l/m 22,0 km/h (4 Bft) W 269 0 min 0,000 mm 0,0 UV-I 0 W/m 1,8 C -5,4 C 32,2 km/h (5 Bft) 98,00 %
13.11.2017 01:48 3,9 C 7,8 C 86 % 1004,1 hPa 0,0 l/m 12,5 km/h (3 Bft) W-SW 240 0 min 0,000 mm 0,0 UV-I 0 W/m 1,8 C -0,8 C 24,1 km/h (4 Bft) 97,37 %
13.11.2017 01:50 3,9 C 7,8 C 86 % 1004,2 hPa 0,0 l/m 16,3 km/h (3 Bft) W-SW 249 0 min 0,000 mm 0,0 UV-I 0 W/m 1,8 C -2,9 C 20,9 km/h (4 Bft) 96,23 %
13.11.2017 01:52 3,9 C 7,8 C 86 % 1004,3 hPa 0,0 l/m 18,6 km/h (3 Bft) W-SW 250 0 min 0,000 mm 0,0 UV-I 0 W/m 1,8 C -4,0 C 32,2 km/h (5 Bft) 100,00 %
13.11.2017 01:54 3,9 C 7,8 C 86 % 1004,3 hPa 0,0 l/m 17,8 km/h (3 Bft) W 270 0 min 0,000 mm 0,0 UV-I 0 W/m 1,8 C -3,6 C 24,1 km/h (4 Bft) 98,11 %
13.11.2017 01:56 3,9 C 7,8 C 86 % 1004,5 hPa 0,0 l/m 15,5 km/h (3 Bft) W-SW 242 0 min 0,000 mm 0,0 UV-I 0 W/m 1,8 C -2,5 C 25,7 km/h (4 Bft) 97,56 %
13.11.2017 01:58 3,9 C 7,8 C 86 % 1004,4 hPa 0,0 l/m 16,9 km/h (3 Bft) S-SW 213 0 min 0,000 mm 0,0 UV-I 0 W/m 1,8 C -3,2 C 24,1 km/h (4 Bft) 96,23 %
13.11.2017 02:00 3,9 C 7,8 C 86 % 1004,5 hPa 0,0 l/m 14,4 km/h (3 Bft) W-SW 247 0 min 0,026 mm 0,0 UV-I 0 W/m 1,8 C -1,9 C 20,9 km/h (4 Bft) 97,44 %
13.11.2017 02:02 3,8 C 7,8 C 87 % 1004,5 hPa 0,0 l/m 21,5 km/h (4 Bft) W-SW 256 0 min 0,000 mm 0,0 UV-I 0 W/m 1,8 C -5,3 C 29,0 km/h (5 Bft) 97,87 %
13.11.2017 02:04 3,8 C 7,8 C 87 % 1004,5 hPa 0,0 l/m 17,6 km/h (3 Bft) W-SW 248 0 min 0,000 mm 0,0 UV-I 0 W/m 1,8 C -3,7 C 22,5 km/h (4 Bft) 92,11 %
13.11.2017 02:06 3,8 C 7,8 C 87 % 1004,5 hPa 0,0 l/m 15,6 km/h (3 Bft) W-SW 258 0 min 0,000 mm 0,0 UV-I 0 W/m 1,8 C -2,7 C 22,5 km/h (4 Bft) 98,46 %
13.11.2017 02:08 3,7 C 7,8 C 87 % 1004,5 hPa 0,0 l/m 17,9 km/h (3 Bft) W-SW 256 0 min 0,000 mm 0,0 UV-I 0 W/m 1,7 C -3,9 C 30,6 km/h (5 Bft) 97,37 %
13.11.2017 02:10 3,7 C 7,8 C 88 % 1004,5 hPa 0,0 l/m 17,6 km/h (3 Bft) W-SW 248 0 min 0,000 mm 0,0 UV-I 0 W/m 1,9 C -3,8 C 24,1 km/h (4 Bft) 98,21 %
13.11.2017 02:12 3,7 C 7,8 C 88 % 1004,6 hPa 0,0 l/m 17,8 km/h (3 Bft) W-SW 252 0 min 0,000 mm 0,0 UV-I 0 W/m 1,9 C -3,9 C 22,5 km/h (4 Bft) 96,15 %
13.11.2017 02:14 3,7 C 7,8 C 88 % 1004,6 hPa 0,0 l/m 15,4 km/h (3 Bft) SW 228 0 min 0,000 mm 0,0 UV-I 0 W/m 1,9 C -2,7 C 19,3 km/h (3 Bft) 98,21 %
13.11.2017 02:16 3,7 C 7,8 C 88 % 1004,8 hPa 0,0 l/m 12,5 km/h (3 Bft) S-SW 198 0 min 0,000 mm 0,0 UV-I 0 W/m 1,9 C -1,1 C 20,9 km/h (4 Bft) 96,43 %
13.11.2017 02:18 3,7 C 7,8 C 87 % 1004,8 hPa 0,0 l/m 17,2 km/h (3 Bft) W-SW 248 0 min 0,000 mm 0,0 UV-I 0 W/m 1,7 C -3,6 C 25,7 km/h (4 Bft) 97,14 %
13.11.2017 02:20 3,7 C 7,8 C 87 % 1004,8 hPa 0,0 l/m 12,9 km/h (3 Bft) W 259 0 min 0,000 mm 0,0 UV-I 0 W/m 1,7 C -1,3 C 17,7 km/h (3 Bft) 94,64 %
13.11.2017 02:22 3,7 C 7,8 C 87 % 1004,7 hPa 0,0 l/m 12,1 km/h (2 Bft) W 263 0 min 0,000 mm 0,0 UV-I 0 W/m 1,7 C -0,8 C 19,3 km/h (3 Bft) 96,15 %
13.11.2017 02:24 3,7 C 7,8 C 87 % 1004,7 hPa 0,0 l/m 15,8 km/h (3 Bft) W 266 0 min 0,000 mm 0,0 UV-I 0 W/m 1,7 C -2,9 C 25,7 km/h (4 Bft) 97,06 %
13.11.2017 02:26 3,7 C 7,8 C 87 % 1004,7 hPa 0,0 l/m 15,1 km/h (3 Bft) W 264 0 min 0,000 mm 0,0 UV-I 0 W/m 1,7 C -2,6 C 24,1 km/h (4 Bft) 93,18 %
13.11.2017 02:28 3,8 C 7,8 C 87 % 1004,7 hPa 0,0 l/m 16,9 km/h (3 Bft) W-SW 254 0 min 0,000 mm 0,0 UV-I 0 W/m 1,8 C -3,3 C 32,2 km/h (5 Bft) 96,23 %
13.11.2017 02:30 3,8 C 7,8 C 86 % 1004,7 hPa 0,0 l/m 18,1 km/h (3 Bft) W-SW 258 0 min 0,000 mm 0,0 UV-I 0 W/m 1,7 C -3,9 C 27,4 km/h (4 Bft) 95,12 %
13.11.2017 02:32 3,8 C 7,8 C 86 % 1004,7 hPa 0,0 l/m 16,4 km/h (3 Bft) W-SW 248 0 min 0,000 mm 0,0 UV-I 0 W/m 1,7 C -3,1 C 24,1 km/h (4 Bft) 96,00 %
13.11.2017 02:34 3,8 C 7,8 C 86 % 1004,7 hPa 0,0 l/m 13,0 km/h (3 Bft) SW 232 0 min 0,000 mm 0,0 UV-I 0 W/m 1,7 C -1,2 C 22,5 km/h (4 Bft) 98,00 %
13.11.2017 02:36 3,8 C 7,8 C 86 % 1004,7 hPa 0,0 l/m 13,6 km/h (3 Bft) W-SW 250 0 min 0,000 mm 0,0 UV-I 0 W/m 1,7 C -1,6 C 20,9 km/h (4 Bft) 97,37 %
13.11.2017 02:38 3,8 C 7,8 C 86 % 1004,7 hPa 0,0 l/m 15,7 km/h (3 Bft) W-SW 250 0 min 0,000 mm 0,0 UV-I 0 W/m 1,7 C -2,7 C 20,9 km/h (4 Bft) 95,74 %
13.11.2017 02:40 3,8 C 7,8 C 86 % 1004,6 hPa 0,0 l/m 13,5 km/h (3 Bft) W-NW 288 0 min 0,000 mm 0,0 UV-I 0 W/m 1,7 C -1,5 C 20,9 km/h (4 Bft) 98,21 %
13.11.2017 02:42 3,8 C 7,8 C 86 % 1004,5 hPa 0,0 l/m 14,8 km/h (3 Bft) W 261 0 min 0,000 mm 0,0 UV-I 0 W/m 1,7 C -2,3 C 19,3 km/h (3 Bft) 100,00 %
13.11.2017 02:44 3,8 C 7,8 C 86 % 1004,5 hPa 0,0 l/m 14,1 km/h (3 Bft) W 269 0 min 0,000 mm 0,0 UV-I 0 W/m 1,7 C -1,9 C 19,3 km/h (3 Bft) 100,00 %
13.11.2017 02:46 3,8 C 7,8 C 86 % 1004,6 hPa 0,0 l/m 15,0 km/h (3 Bft) W-SW 252 0 min 0,000 mm 0,0 UV-I 0 W/m 1,7 C -2,4 C 27,4 km/h (4 Bft) 100,00 %
13.11.2017 02:48 3,8 C 7,8 C 85 % 1004,5 hPa 0,0 l/m 17,2 km/h (3 Bft) W 276 0 min 0,000 mm 0,0 UV-I 0 W/m 1,5 C -3,5 C 24,1 km/h (4 Bft) 100,00 %
13.11.2017 02:50 3,8 C 7,8 C 85 % 1004,5 hPa 0,0 l/m 20,2 km/h (4 Bft) W-SW 250 0 min 0,000 mm 0,0 UV-I 0 W/m 1,5 C -4,8 C 30,6 km/h (5 Bft) 100,00 %
13.11.2017 02:52 3,8 C 7,8 C 85 % 1004,5 hPa 0,0 l/m 14,6 km/h (3 Bft) W-SW 251 0 min 0,000 mm 0,0 UV-I 0 W/m 1,5 C -2,2 C 22,5 km/h (4 Bft) 100,00 %
13.11.2017 02:54 3,8 C 7,8 C 85 % 1004,5 hPa 0,0 l/m 18,8 km/h (3 Bft) W-SW 255 0 min 0,000 mm 0,0 UV-I 0 W/m 1,5 C -4,2 C 27,4 km/h (4 Bft) 98,11 %
13.11.2017 02:56 3,9 C 7,8 C 85 % 1004,4 hPa 0,0 l/m 18,8 km/h (3 Bft) W-SW 254 0 min 0,000 mm 0,0 UV-I 0 W/m 1,6 C -4,1 C 29,0 km/h (5 Bft) 100,00 %
13.11.2017 02:58 3,8 C 7,8 C 85 % 1004,5 hPa 0,0 l/m 12,2 km/h (2 Bft) W 275 0 min 0,000 mm 0,0 UV-I 0 W/m 1,5 C -0,8 C 17,7 km/h (3 Bft) 100,00 %
13.11.2017 03:00 3,8 C 7,8 C 85 % 1004,5 hPa 0,0 l/m 14,5 km/h (3 Bft) SW 235 0 min 0,025 mm 0,0 UV-I 0 W/m 1,5 C -2,1 C 24,1 km/h (4 Bft) 100,00 %
13.11.2017 03:02 3,8 C 7,8 C 85 % 1004,5 hPa 0,0 l/m 14,1 km/h (3 Bft) W-SW 253 0 min 0,000 mm 0,0 UV-I 0 W/m 1,5 C -1,9 C 22,5 km/h (4 Bft) 100,00 %
13.11.2017 03:04 3,8 C 7,8 C 85 % 1004,5 hPa 0,0 l/m 15,9 km/h (3 Bft) W-SW 245 0 min 0,000 mm 0,0 UV-I 0 W/m 1,5 C -2,8 C 22,5 km/h (4 Bft) 98,00 %
13.11.2017 03:06 3,8 C 7,8 C 85 % 1004,4 hPa 0,0 l/m 18,7 km/h (3 Bft) W-NW 287 0 min 0,000 mm 0,0 UV-I 0 W/m 1,5 C -4,2 C 37,0 km/h (5 Bft) 97,87 %
13.11.2017 03:08 3,8 C 7,8 C 85 % 1004,5 hPa 0,0 l/m 11,9 km/h (2 Bft) W 275 0 min 0,000 mm 0,0 UV-I 0 W/m 1,5 C -0,6 C 16,1 km/h (3 Bft) 97,37 %
13.11.2017 03:10 3,8 C 7,8 C 85 % 1004,5 hPa 0,0 l/m 11,2 km/h (2 Bft) W-SW 258 0 min 0,000 mm 0,0 UV-I 0 W/m 1,5 C -0,1 C 19,3 km/h (3 Bft) 98,11 %
13.11.2017 03:12 3,8 C 7,8 C 85 % 1004,6 hPa 0,0 l/m 14,1 km/h (3 Bft) W 261 0 min 0,000 mm 0,0 UV-I 0 W/m 1,5 C -1,9 C 19,3 km/h (3 Bft) 95,12 %
13.11.2017 03:14 3,8 C 7,8 C 85 % 1004,7 hPa 0,0 l/m 9,4 km/h (2 Bft) SW 236 0 min 0,000 mm 0,0 UV-I 0 W/m 1,5 C 1,2 C 17,7 km/h (3 Bft) 96,23 %
13.11.2017 03:16 3,8 C 7,8 C 85 % 1004,6 hPa 0,0 l/m 10,9 km/h (2 Bft) W-NW 286 0 min 0,000 mm 0,0 UV-I 0 W/m 1,5 C 0,1 C 19,3 km/h (3 Bft) 97,37 %
13.11.2017 03:18 3,8 C 7,8 C 86 % 1004,6 hPa 0,0 l/m 12,6 km/h (3 Bft) SW 236 0 min 0,000 mm 0,0 UV-I 0 W/m 1,7 C -1,0 C 20,9 km/h (4 Bft) 97,92 %
13.11.2017 03:20 3,8 C 7,8 C 85 % 1004,6 hPa 0,0 l/m 10,7 km/h (2 Bft) W 265 0 min 0,000 mm 0,0 UV-I 0 W/m 1,5 C 0,2 C 16,1 km/h (3 Bft) 96,36 %
13.11.2017 03:22 3,7 C 7,8 C 85 % 1004,7 hPa 0,0 l/m 6,4 km/h (2 Bft) W-SW 252 0 min 0,000 mm 0,0 UV-I 0 W/m 1,4 C 3,7 C 14,5 km/h (3 Bft) 97,62 %
13.11.2017 03:24 3,7 C 7,8 C 85 % 1004,7 hPa 0,0 l/m 13,8 km/h (3 Bft) W-SW 258 0 min 0,000 mm 0,0 UV-I 0 W/m 1,4 C -1,8 C 22,5 km/h (4 Bft) 97,73 %
13.11.2017 03:26 3,7 C 7,8 C 85 % 1004,7 hPa 0,0 l/m 8,8 km/h (2 Bft) W-SW 240 0 min 0,000 mm 0,0 UV-I 0 W/m 1,4 C 1,6 C 12,9 km/h (3 Bft) 98,11 %
13.11.2017 03:28 3,7 C 7,8 C 86 % 1004,7 hPa 0,0 l/m 6,6 km/h (2 Bft) W 261 0 min 0,000 mm 0,0 UV-I 0 W/m 1,6 C 3,5 C 14,5 km/h (3 Bft) 94,74 %
13.11.2017 03:30 3,7 C 7,8 C 86 % 1004,7 hPa 0,0 l/m 10,7 km/h (2 Bft) W-SW 250 0 min 0,000 mm 0,0 UV-I 0 W/m 1,6 C 0,1 C 14,5 km/h (3 Bft) 98,21 %
13.11.2017 03:32 3,7 C 7,8 C 85 % 1004,7 hPa 0,0 l/m 14,4 km/h (3 Bft) W-SW 257 0 min 0,000 mm 0,0 UV-I 0 W/m 1,4 C -2,2 C 20,9 km/h (4 Bft) 98,00 %
13.11.2017 03:34 3,7 C 7,8 C 85 % 1004,7 hPa 0,0 l/m 12,3 km/h (3 Bft) W 268 0 min 0,000 mm 0,0 UV-I 0 W/m 1,4 C -0,9 C 19,3 km/h (3 Bft) 95,45 %
13.11.2017 03:36 3,7 C 7,8 C 85 % 1004,7 hPa 0,0 l/m 9,3 km/h (2 Bft) W 277 0 min 0,000 mm 0,0 UV-I 0 W/m 1,4 C 1,2 C 14,5 km/h (3 Bft) 97,87 %
13.11.2017 03:38 3,7 C 7,8 C 85 % 1004,8 hPa 0,0 l/m 12,4 km/h (3 Bft) W-SW 248 0 min 0,000 mm 0,0 UV-I 0 W/m 1,4 C -1,0 C 20,9 km/h (4 Bft) 97,44 %
13.11.2017 03:40 3,7 C 7,8 C 85 % 1004,8 hPa 0,0 l/m 12,2 km/h (2 Bft) W 263 0 min 0,000 mm 0,0 UV-I 0 W/m 1,4 C -0,9 C 16,1 km/h (3 Bft) 98,11 %
13.11.2017 03:42 3,7 C 7,8 C 85 % 1004,8 hPa 0,0 l/m 16,7 km/h (3 Bft) SW 236 0 min 0,000 mm 0,0 UV-I 0 W/m 1,4 C -3,4 C 22,5 km/h (4 Bft) 100,00 %
13.11.2017 03:44 3,7 C 7,8 C 86 % 1004,8 hPa 0,0 l/m 11,2 km/h (2 Bft) W 259 0 min 0,000 mm 0,0 UV-I 0 W/m 1,6 C -0,2 C 17,7 km/h (3 Bft) 100,00 %
13.11.2017 03:46 3,7 C 7,8 C 85 % 1004,8 hPa 0,0 l/m 14,3 km/h (3 Bft) W-SW 245 0 min 0,000 mm 0,0 UV-I 0 W/m 1,4 C -2,1 C 20,9 km/h (4 Bft) 100,00 %
13.11.2017 03:48 3,7 C 7,8 C 86 % 1004,8 hPa 0,0 l/m 16,9 km/h (3 Bft) W-SW 239 0 min 0,000 mm 0,0 UV-I 0 W/m 1,6 C -3,5 C 27,4 km/h (4 Bft) 97,73 %
13.11.2017 03:50 3,7 C 7,8 C 85 % 1004,8 hPa 0,0 l/m 18,2 km/h (3 Bft) W-SW 254 0 min 0,000 mm 0,0 UV-I 0 W/m 1,4 C -4,1 C 25,7 km/h (4 Bft) 96,43 %
13.11.2017 03:52 3,7 C 7,8 C 85 % 1004,9 hPa 0,0 l/m 10,2 km/h (2 Bft) SW 230 0 min 0,000 mm 0,0 UV-I 0 W/m 1,4 C 0,5 C 16,1 km/h (3 Bft) 100,00 %
13.11.2017 03:54 3,6 C 7,8 C 86 % 1004,9 hPa 0,0 l/m 12,4 km/h (3 Bft) W-SW 249 0 min 0,000 mm 0,0 UV-I 0 W/m 1,5 C -1,1 C 17,7 km/h (3 Bft) 100,00 %
13.11.2017 03:56 3,6 C 7,8 C 86 % 1004,9 hPa 0,0 l/m 13,8 km/h (3 Bft) W-SW 248 0 min 0,000 mm 0,0 UV-I 0 W/m 1,5 C -2,0 C 20,9 km/h (4 Bft) 100,00 %
13.11.2017 03:58 3,6 C 7,8 C 86 % 1005,0 hPa 0,0 l/m 12,3 km/h (3 Bft) W 268 0 min 0,000 mm 0,0 UV-I 0 W/m 1,5 C -1,0 C 17,7 km/h (3 Bft) 100,00 %
13.11.2017 04:00 3,6 C 7,8 C 86 % 1005,0 hPa 0,0 l/m 11,2 km/h (2 Bft) W-NW 288 0 min 0,026 mm 0,0 UV-I 0 W/m 1,5 C -0,3 C 16,1 km/h (3 Bft) 100,00 %
13.11.2017 04:02 3,6 C 7,8 C 86 % 1005,1 hPa 0,0 l/m 12,2 km/h (2 Bft) W-NW 284 0 min 0,000 mm 0,0 UV-I 0 W/m 1,5 C -1,0 C 17,7 km/h (3 Bft) 100,00 %
13.11.2017 04:04 3,6 C 7,8 C 86 % 1005,0 hPa 0,0 l/m 9,5 km/h (2 Bft) W-SW 254 0 min 0,000 mm 0,0 UV-I 0 W/m 1,5 C 0,9 C 19,3 km/h (3 Bft) 100,00 %
13.11.2017 04:06 3,5 C 7,8 C 87 % 1005,0 hPa 0,0 l/m 12,2 km/h (2 Bft) W-SW 238 0 min 0,000 mm 0,0 UV-I 0 W/m 1,5 C -1,1 C 19,3 km/h (3 Bft) 100,00 %
13.11.2017 04:08 3,4 C 7,8 C 87 % 1005,0 hPa 0,0 l/m 15,9 km/h (3 Bft) W-NW 296 0 min 0,000 mm 0,0 UV-I 0 W/m 1,4 C -3,3 C 25,7 km/h (4 Bft) 100,00 %
13.11.2017 04:10 3,4 C 7,8 C 87 % 1005,0 hPa 0,0 l/m 8,4 km/h (2 Bft) W-NW 287 0 min 0,000 mm 0,0 UV-I 0 W/m 1,4 C 1,6 C 16,1 km/h (3 Bft) 96,00 %
13.11.2017 04:12 3,3 C 7,8 C 88 % 1005,1 hPa 0,0 l/m 9,3 km/h (2 Bft) W-NW 288 0 min 0,000 mm 0,0 UV-I 0 W/m 1,5 C 0,7 C 12,9 km/h (3 Bft) 100,00 %
13.11.2017 04:14 3,3 C 7,8 C 88 % 1005,2 hPa 0,0 l/m 9,9 km/h (2 Bft) W-SW 248 0 min 0,000 mm 0,0 UV-I 0 W/m 1,5 C 0,3 C 17,7 km/h (3 Bft) 96,08 %
13.11.2017 04:16 3,2 C 7,8 C 89 % 1005,4 hPa 0,0 l/m 15,0 km/h (3 Bft) W 263 0 min 0,000 mm 0,0 UV-I 0 W/m 1,6 C -3,1 C 24,1 km/h (4 Bft) 100,00 %
13.11.2017 04:18 3,1 C 7,8 C 89 % 1005,4 hPa 0,0 l/m 10,3 km/h (2 Bft) W 266 0 min 0,000 mm 0,0 UV-I 0 W/m 1,5 C -0,2 C 17,7 km/h (3 Bft) 100,00 %
13.11.2017 04:20 2,9 C 7,8 C 90 % 1005,4 hPa 0,0 l/m 10,8 km/h (2 Bft) W 274 0 min 0,000 mm 0,0 UV-I 0 W/m 1,4 C -0,8 C 17,7 km/h (3 Bft) 100,00 %
13.11.2017 04:22 2,9 C 7,8 C 90 % 1005,4 hPa 0,0 l/m 12,1 km/h (2 Bft) W-NW 283 0 min 0,000 mm 0,0 UV-I 0 W/m 1,4 C -1,7 C 19,3 km/h (3 Bft) 100,00 %
13.11.2017 04:24 2,8 C 7,8 C 90 % 1005,2 hPa 0,0 l/m 6,2 km/h (2 Bft) SW 232 0 min 0,000 mm 0,0 UV-I 0 W/m 1,3 C 2,8 C 12,9 km/h (3 Bft) 100,00 %
13.11.2017 04:26 2,8 C 7,8 C 91 % 1005,2 hPa 0,0 l/m 8,2 km/h (2 Bft) W-NW 285 0 min 0,000 mm 0,0 UV-I 0 W/m 1,5 C 1,1 C 14,5 km/h (3 Bft) 100,00 %
13.11.2017 04:28 2,8 C 7,8 C 91 % 1005,2 hPa 0,0 l/m 7,0 km/h (2 Bft) W-NW 282 0 min 0,000 mm 0,0 UV-I 0 W/m 1,5 C 2,2 C 12,9 km/h (3 Bft) 98,11 %
13.11.2017 04:30 2,8 C 7,8 C 91 % 1005,2 hPa 0,0 l/m 6,2 km/h (2 Bft) W-SW 255 0 min 0,000 mm 0,0 UV-I 0 W/m 1,5 C 2,8 C 11,3 km/h (2 Bft) 100,00 %
13.11.2017 04:32 2,8 C 7,8 C 92 % 1005,2 hPa 0,0 l/m 11,7 km/h (2 Bft) W 268 0 min 0,000 mm 0,0 UV-I 0 W/m 1,6 C -1,6 C 29,0 km/h (5 Bft) 100,00 %
13.11.2017 04:34 2,8 C 7,8 C 91 % 1005,4 hPa 0,0 l/m 12,2 km/h (2 Bft) W-SW 252 0 min 0,000 mm 0,0 UV-I 0 W/m 1,5 C -1,9 C 24,1 km/h (4 Bft) 100,00 %
13.11.2017 04:36 2,8 C 7,8 C 91 % 1005,3 hPa 0,0 l/m 9,9 km/h (2 Bft) W 266 0 min 0,000 mm 0,0 UV-I 0 W/m 1,5 C -0,3 C 16,1 km/h (3 Bft) 100,00 %
13.11.2017 04:38 2,8 C 7,8 C 91 % 1005,3 hPa 0,0 l/m 9,6 km/h (2 Bft) W 264 0 min 0,000 mm 0,0 UV-I 0 W/m 1,5 C -0,0 C 16,1 km/h (3 Bft) 100,00 %
13.11.2017 04:40 2,8 C 7,8 C 91 % 1005,4 hPa 0,0 l/m 15,1 km/h (3 Bft) W 267 0 min 0,000 mm 0,0 UV-I 0 W/m 1,5 C -3,6 C 22,5 km/h (4 Bft) 98,00 %
13.11.2017 04:42 2,8 C 7,8 C 91 % 1005,4 hPa 0,0 l/m 14,8 km/h (3 Bft) W-SW 240 0 min 0,000 mm 0,0 UV-I 0 W/m 1,5 C -3,5 C 24,1 km/h (4 Bft) 100,00 %
13.11.2017 04:44 2,9 C 7,8 C 91 % 1005,5 hPa 0,0 l/m 9,8 km/h (2 Bft) W-SW 248 0 min 0,000 mm 0,0 UV-I 0 W/m 1,6 C -0,1 C 14,5 km/h (3 Bft) 95,74 %
13.11.2017 04:46 2,8 C 7,8 C 91 % 1005,5 hPa 0,0 l/m 11,1 km/h (2 Bft) W-NW 284 0 min 0,000 mm 0,0 UV-I 0 W/m 1,5 C -1,2 C 19,3 km/h (3 Bft) 100,00 %
13.11.2017 04:48 2,8 C 7,8 C 91 % 1005,5 hPa 0,0 l/m 10,3 km/h (2 Bft) W-SW 254 0 min 0,000 mm 0,0 UV-I 0 W/m 1,5 C -0,6 C 16,1 km/h (3 Bft) 100,00 %
13.11.2017 04:50 2,8 C 7,8 C 91 % 1005,6 hPa 0,0 l/m 12,1 km/h (2 Bft) W 267 0 min 0,000 mm 0,0 UV-I 0 W/m 1,5 C -1,8 C 19,3 km/h (3 Bft) 100,00 %
13.11.2017 04:52 2,8 C 7,8 C 91 % 1005,6 hPa 0,0 l/m 10,9 km/h (2 Bft) W-SW 257 0 min 0,000 mm 0,0 UV-I 0 W/m 1,5 C -1,0 C 16,1 km/h (3 Bft) 100,00 %
13.11.2017 04:54 2,9 C 7,8 C 91 % 1005,7 hPa 0,0 l/m 11,1 km/h (2 Bft) W-SW 249 0 min 0,000 mm 0,0 UV-I 0 W/m 1,6 C -1,0 C 16,1 km/h (3 Bft) 100,00 %
13.11.2017 04:56 2,9 C 7,8 C 91 % 1005,6 hPa 0,0 l/m 11,3 km/h (2 Bft) W-SW 246 0 min 0,000 mm 0,0 UV-I 0 W/m 1,6 C -1,2 C 20,9 km/h (4 Bft) 100,00 %
13.11.2017 04:58 2,9 C 7,8 C 91 % 1005,6 hPa 0,0 l/m 11,2 km/h (2 Bft) SW 233 0 min 0,000 mm 0,0 UV-I 0 W/m 1,6 C -1,1 C 20,9 km/h (4 Bft) 100,00 %
13.11.2017 05:00 2,9 C 7,8 C 91 % 1005,6 hPa 0,0 l/m 11,5 km/h (2 Bft) W-SW 254 0 min 0,000 mm 0,0 UV-I 0 W/m 1,6 C -1,3 C 19,3 km/h (3 Bft) 97,87 %
13.11.2017 05:02 2,9 C 7,8 C 91 % 1005,8 hPa 0,0 l/m 12,0 km/h (2 Bft) NW 306 0 min 0,000 mm 0,0 UV-I 0 W/m 1,6 C -1,7 C 17,7 km/h (3 Bft) 100,00 %
13.11.2017 05:04 2,9 C 7,8 C 90 % 1005,8 hPa 0,0 l/m 14,4 km/h (3 Bft) W-SW 253 0 min 0,000 mm 0,0 UV-I 0 W/m 1,4 C -3,1 C 22,5 km/h (4 Bft) 100,00 %
13.11.2017 05:06 3,0 C 7,8 C 90 % 1006,0 hPa 0,0 l/m 11,8 km/h (2 Bft) SW 235 0 min 0,000 mm 0,0 UV-I 0 W/m 1,5 C -1,4 C 17,7 km/h (3 Bft) 98,11 %
13.11.2017 05:08 3,0 C 7,8 C 90 % 1006,0 hPa 0,0 l/m 12,7 km/h (3 Bft) W-SW 247 0 min 0,000 mm 0,0 UV-I 0 W/m 1,5 C -2,0 C 20,9 km/h (4 Bft) 94,29 %
13.11.2017 05:10 3,1 C 7,8 C 90 % 1006,1 hPa 0,0 l/m 9,5 km/h (2 Bft) W 261 0 min 0,000 mm 0,0 UV-I 0 W/m 1,6 C 0,4 C 20,9 km/h (4 Bft) 98,21 %
13.11.2017 05:12 3,1 C 7,8 C 90 % 1006,2 hPa 0,0 l/m 12,1 km/h (2 Bft) W-SW 241 0 min 0,000 mm 0,0 UV-I 0 W/m 1,6 C -1,5 C 20,9 km/h (4 Bft) 97,87 %
13.11.2017 05:14 3,1 C 7,8 C 89 % 1006,3 hPa 0,0 l/m 8,7 km/h (2 Bft) W-SW 252 0 min 0,000 mm 0,0 UV-I 0 W/m 1,5 C 1,0 C 16,1 km/h (3 Bft) 98,00 %
13.11.2017 05:16 3,1 C 7,8 C 90 % 1006,3 hPa 0,0 l/m 13,6 km/h (3 Bft) W 273 0 min 0,000 mm 0,0 UV-I 0 W/m 1,6 C -2,4 C 22,5 km/h (4 Bft) 95,74 %
13.11.2017 05:18 3,1 C 7,8 C 89 % 1006,3 hPa 0,0 l/m 13,9 km/h (3 Bft) W-NW 290 0 min 0,000 mm 0,0 UV-I 0 W/m 1,5 C -2,6 C 22,5 km/h (4 Bft) 97,62 %
13.11.2017 05:20 3,1 C 7,8 C 89 % 1006,2 hPa 0,0 l/m 13,5 km/h (3 Bft) NW 315 0 min 0,000 mm 0,0 UV-I 0 W/m 1,5 C -2,4 C 17,7 km/h (3 Bft) 96,00 %
13.11.2017 05:22 3,1 C 7,8 C 89 % 1006,2 hPa 0,0 l/m 9,5 km/h (2 Bft) W-SW 257 0 min 0,000 mm 0,0 UV-I 0 W/m 1,5 C 0,4 C 14,5 km/h (3 Bft) 96,15 %
13.11.2017 05:24 3,1 C 7,8 C 89 % 1006,2 hPa 0,0 l/m 8,1 km/h (2 Bft) W-SW 239 0 min 0,000 mm 0,0 UV-I 0 W/m 1,5 C 1,5 C 14,5 km/h (3 Bft) 97,62 %
13.11.2017 05:26 3,1 C 7,8 C 89 % 1006,3 hPa 0,0 l/m 10,1 km/h (2 Bft) W 270 0 min 0,000 mm 0,0 UV-I 0 W/m 1,5 C -0,1 C 16,1 km/h (3 Bft) 96,00 %
13.11.2017 05:28 3,1 C 7,8 C 90 % 1006,3 hPa 0,0 l/m 10,7 km/h (2 Bft) W-SW 255 0 min 0,000 mm 0,0 UV-I 0 W/m 1,6 C -0,5 C 17,7 km/h (3 Bft) 93,62 %
13.11.2017 05:30 3,1 C 7,8 C 89 % 1006,5 hPa 0,0 l/m 10,7 km/h (2 Bft) W 267 0 min 0,000 mm 0,0 UV-I 0 W/m 1,5 C -0,5 C 19,3 km/h (3 Bft) 93,62 %
13.11.2017 05:32 3,1 C 7,8 C 90 % 1006,5 hPa 0,0 l/m 10,8 km/h (2 Bft) W-NW 287 0 min 0,000 mm 0,0 UV-I 0 W/m 1,6 C -0,6 C 19,3 km/h (3 Bft) 96,00 %
13.11.2017 05:34 3,1 C 7,8 C 89 % 1006,5 hPa 0,0 l/m 9,9 km/h (2 Bft) W 281 0 min 0,000 mm 0,0 UV-I 0 W/m 1,5 C 0,0 C 17,7 km/h (3 Bft) 95,12 %
13.11.2017 05:36 3,1 C 7,8 C 89 % 1006,6 hPa 0,0 l/m 7,3 km/h (2 Bft) W-SW 252 0 min 0,000 mm 0,0 UV-I 0 W/m 1,5 C 2,2 C 12,9 km/h (3 Bft) 93,18 %
13.11.2017 05:38 3,1 C 7,8 C 89 % 1006,6 hPa 0,0 l/m 10,7 km/h (2 Bft) W 275 0 min 0,000 mm 0,0 UV-I 0 W/m 1,5 C -0,5 C 14,5 km/h (3 Bft) 94,34 %
13.11.2017 05:40 3,1 C 7,8 C 90 % 1006,6 hPa 0,0 l/m 9,7 km/h (2 Bft) W 262 0 min 0,000 mm 0,0 UV-I 0 W/m 1,6 C 0,2 C 12,9 km/h (3 Bft) 94,74 %
13.11.2017 05:42 3,1 C 7,8 C 90 % 1006,6 hPa 0,0 l/m 8,6 km/h (2 Bft) W 266 0 min 0,000 mm 0,0 UV-I 0 W/m 1,6 C 1,1 C 14,5 km/h (3 Bft) 95,74 %
13.11.2017 05:44 3,1 C 7,8 C 90 % 1006,6 hPa 0,0 l/m 8,8 km/h (2 Bft) W-NW 288 0 min 0,000 mm 0,0 UV-I 0 W/m 1,6 C 0,9 C 14,5 km/h (3 Bft) 98,00 %
13.11.2017 05:46 3,0 C 7,8 C 90 % 1006,6 hPa 0,0 l/m 9,3 km/h (2 Bft) W-SW 252 0 min 0,000 mm 0,0 UV-I 0 W/m 1,5 C 0,4 C 14,5 km/h (3 Bft) 92,11 %
13.11.2017 05:48 3,0 C 7,8 C 90 % 1006,6 hPa 0,0 l/m 9,3 km/h (2 Bft) W-SW 258 0 min 0,000 mm 0,0 UV-I 0 W/m 1,5 C 0,4 C 17,7 km/h (3 Bft) 98,21 %
13.11.2017 05:50 3,0 C 7,8 C 90 % 1006,7 hPa 0,0 l/m 9,5 km/h (2 Bft) W-SW 244 0 min 0,000 mm 0,0 UV-I 0 W/m 1,5 C 0,2 C 16,1 km/h (3 Bft) 96,23 %
13.11.2017 05:52 2,9 C 7,8 C 90 % 1006,7 hPa 0,0 l/m 5,4 km/h (1 Bft) W-SW 252 0 min 0,000 mm 0,0 UV-I 0 W/m 1,4 C 2,9 C 9,7 km/h (2 Bft) 97,56 %
13.11.2017 05:54 2,9 C 7,8 C 91 % 1006,7 hPa 0,0 l/m 7,2 km/h (2 Bft) W 277 0 min 0,000 mm 0,0 UV-I 0 W/m 1,6 C 2,1 C 11,3 km/h (2 Bft) 97,73 %
13.11.2017 05:56 2,9 C 7,8 C 91 % 1006,7 hPa 0,2 l/m 5,9 km/h (2 Bft) W-SW 245 0 min 0,000 mm 0,0 UV-I 0 W/m 1,6 C 2,9 C 11,3 km/h (2 Bft) 93,62 %
13.11.2017 05:58 2,9 C 7,8 C 91 % 1006,8 hPa 0,0 l/m 8,1 km/h (2 Bft) W 261 0 min 0,000 mm 0,0 UV-I 0 W/m 1,6 C 1,3 C 12,9 km/h (3 Bft) 94,00 %
13.11.2017 06:00 2,9 C 7,8 C 91 % 1006,7 hPa 0,0 l/m 5,4 km/h (1 Bft) W 267 0 min 0,000 mm 0,0 UV-I 0 W/m 1,6 C 2,9 C 11,3 km/h (2 Bft) 98,11 %
13.11.2017 06:02 2,9 C 7,8 C 91 % 1006,7 hPa 0,0 l/m 6,0 km/h (2 Bft) W 279 0 min 0,000 mm 0,0 UV-I 0 W/m 1,6 C 2,9 C 12,9 km/h (3 Bft) 97,73 %
13.11.2017 06:04 2,9 C 7,8 C 91 % 1006,7 hPa 0,0 l/m 4,5 km/h (1 Bft) W 281 0 min 0,000 mm 0,0 UV-I 0 W/m 1,6 C 2,9 C 9,7 km/h (2 Bft) 95,83 %
13.11.2017 06:06 2,9 C 7,8 C 91 % 1006,7 hPa 0,0 l/m 4,8 km/h (1 Bft) W 274 0 min 0,000 mm 0,0 UV-I 0 W/m 1,6 C 2,9 C 11,3 km/h (2 Bft) 94,74 %
13.11.2017 06:08 2,9 C 7,8 C 91 % 1006,7 hPa 0,0 l/m 5,1 km/h (1 Bft) W-NW 300 0 min 0,000 mm 0,0 UV-I 0 W/m 1,6 C 2,9 C 8,0 km/h (2 Bft) 98,11 %
13.11.2017 06:10 2,9 C 7,8 C 91 % 1006,7 hPa 0,0 l/m 4,5 km/h (1 Bft) W 277 0 min 0,000 mm 0,0 UV-I 0 W/m 1,6 C 2,9 C 8,0 km/h (2 Bft) 95,74 %
13.11.2017 06:12 2,9 C 7,8 C 91 % 1006,8 hPa 0,0 l/m 3,3 km/h (1 Bft) W 277 0 min 0,000 mm 0,0 UV-I 0 W/m 1,6 C 2,9 C 6,4 km/h (2 Bft) 96,00 %
13.11.2017 06:14 2,9 C 7,8 C 91 % 1006,9 hPa 0,0 l/m 7,8 km/h (2 Bft) W 267 0 min 0,000 mm 0,0 UV-I 0 W/m 1,6 C 1,6 C 12,9 km/h (3 Bft) 97,56 %
13.11.2017 06:16 2,9 C 7,8 C 91 % 1006,9 hPa 0,0 l/m 3,2 km/h (1 Bft) W 273 0 min 0,000 mm 0,0 UV-I 0 W/m 1,6 C 2,9 C 6,4 km/h (2 Bft) 96,23 %
13.11.2017 06:18 2,9 C 7,8 C 91 % 1007,0 hPa 0,0 l/m 5,4 km/h (1 Bft) W 271 0 min 0,000 mm 0,0 UV-I 0 W/m 1,6 C 2,9 C 8,0 km/h (2 Bft) 100,00 %
13.11.2017 06:20 2,9 C 7,8 C 91 % 1007,0 hPa 0,0 l/m 7,3 km/h (2 Bft) W-SW 251 0 min 0,000 mm 0,0 UV-I 0 W/m 1,6 C 2,0 C 12,9 km/h (3 Bft) 94,00 %
13.11.2017 06:22 2,9 C 7,8 C 91 % 1007,0 hPa 0,0 l/m 11,7 km/h (2 Bft) W-NW 302 0 min 0,000 mm 0,0 UV-I 0 W/m 1,6 C -1,5 C 16,1 km/h (3 Bft) 96,43 %
13.11.2017 06:24 3,0 C 7,8 C 91 % 1006,9 hPa 0,0 l/m 7,1 km/h (2 Bft) W-NW 288 0 min 0,000 mm 0,0 UV-I 0 W/m 1,7 C 2,3 C 12,9 km/h (3 Bft) 100,00 %
13.11.2017 06:26 3,0 C 7,8 C 91 % 1006,9 hPa 0,0 l/m 4,7 km/h (1 Bft) W 263 0 min 0,000 mm 0,0 UV-I 0 W/m 1,7 C 3,0 C 9,7 km/h (2 Bft) 100,00 %
13.11.2017 06:28 2,9 C 7,8 C 91 % 1006,8 hPa 0,0 l/m 4,0 km/h (1 Bft) W 266 0 min 0,000 mm 0,0 UV-I 0 W/m 1,6 C 2,9 C 6,4 km/h (2 Bft) 100,00 %
13.11.2017 06:30 2,9 C 7,8 C 91 % 1006,8 hPa 0,0 l/m 3,8 km/h (1 Bft) W 267 0 min 0,000 mm 0,0 UV-I 0 W/m 1,6 C 2,9 C 6,4 km/h (2 Bft) 100,00 %
13.11.2017 06:32 2,9 C 7,8 C 91 % 1006,9 hPa 0,0 l/m 3,7 km/h (1 Bft) W 275 0 min 0,000 mm 0,0 UV-I 0 W/m 1,6 C 2,9 C 6,4 km/h (2 Bft) 92,68 %
13.11.2017 06:34 2,9 C 7,8 C 91 % 1006,9 hPa 0,0 l/m 4,4 km/h (1 Bft) W 266 0 min 0,000 mm 0,0 UV-I 0 W/m 1,6 C 2,9 C 11,3 km/h (2 Bft) 98,21 %
13.11.2017 06:36 2,9 C 7,8 C 92 % 1006,9 hPa 0,0 l/m 5,8 km/h (2 Bft) NW 320 0 min 0,000 mm 0,0 UV-I 0 W/m 1,7 C 2,9 C 14,5 km/h (3 Bft) 97,56 %
13.11.2017 06:38 2,9 C 7,8 C 92 % 1007,0 hPa 0,0 l/m 3,9 km/h (1 Bft) W-NW 292 0 min 0,000 mm 0,0 UV-I 0 W/m 1,7 C 2,9 C 9,7 km/h (2 Bft) 96,00 %
13.11.2017 06:40 2,9 C 7,8 C 92 % 1006,9 hPa 0,0 l/m 6,3 km/h (2 Bft) W 280 0 min 0,000 mm 0,0 UV-I 0 W/m 1,7 C 2,9 C 9,7 km/h (2 Bft) 100,00 %
13.11.2017 06:42 2,9 C 7,8 C 91 % 1006,9 hPa 0,0 l/m 6,6 km/h (2 Bft) W 260 0 min 0,000 mm 0,0 UV-I 0 W/m 1,6 C 2,7 C 11,3 km/h (2 Bft) 100,00 %
13.11.2017 06:44 2,9 C 7,8 C 91 % 1006,9 hPa 0,0 l/m 4,9 km/h (1 Bft) W 259 0 min 0,000 mm 0,0 UV-I 0 W/m 1,6 C 2,9 C 9,7 km/h (2 Bft) 100,00 %
13.11.2017 06:46 2,9 C 7,8 C 91 % 1007,0 hPa 0,0 l/m 7,0 km/h (2 Bft) W 261 0 min 0,000 mm 0,0 UV-I 0 W/m 1,6 C 2,3 C 12,9 km/h (3 Bft) 97,56 %
13.11.2017 06:48 2,9 C 7,8 C 91 % 1007,1 hPa 0,0 l/m 5,4 km/h (1 Bft) W-SW 244 0 min 0,000 mm 0,0 UV-I 0 W/m 1,6 C 2,9 C 9,7 km/h (2 Bft) 96,61 %
13.11.2017 06:50 2,9 C 7,8 C 91 % 1007,2 hPa 0,0 l/m 4,2 km/h (1 Bft) W 277 0 min 0,000 mm 0,0 UV-I 0 W/m 1,6 C 2,9 C 9,7 km/h (2 Bft) 100,00 %
13.11.2017 06:52 2,9 C 7,8 C 91 % 1007,2 hPa 0,0 l/m 3,3 km/h (1 Bft) W-SW 240 0 min 0,000 mm 0,0 UV-I 0 W/m 1,6 C 2,9 C 6,4 km/h (2 Bft) 100,00 %
13.11.2017 06:54 3,0 C 7,8 C 91 % 1007,3 hPa 0,0 l/m 6,4 km/h (2 Bft) W 271 0 min 0,000 mm 0,0 UV-I 0 W/m 1,7 C 3,0 C 14,5 km/h (3 Bft) 100,00 %
13.11.2017 06:56 3,0 C 7,8 C 91 % 1007,4 hPa 0,0 l/m 6,0 km/h (2 Bft) W-NW 288 0 min 0,000 mm 0,0 UV-I 0 W/m 1,7 C 3,0 C 12,9 km/h (3 Bft) 100,00 %
13.11.2017 06:58 3,0 C 7,8 C 92 % 1007,6 hPa 0,0 l/m 7,7 km/h (2 Bft) W-SW 256 0 min 0,000 mm 0,0 UV-I 0 W/m 1,8 C 1,8 C 11,3 km/h (2 Bft) 98,11 %
13.11.2017 07:00 3,0 C 7,8 C 92 % 1007,7 hPa 0,0 l/m 4,5 km/h (1 Bft) W 263 0 min 0,000 mm 0,0 UV-I 0 W/m 1,8 C 3,0 C 6,4 km/h (2 Bft) 100,00 %
13.11.2017 07:02 2,9 C 7,8 C 92 % 1007,9 hPa 0,0 l/m 5,1 km/h (1 Bft) W 274 0 min 0,000 mm 0,0 UV-I 0 W/m 1,7 C 2,9 C 9,7 km/h (2 Bft) 97,37 %
13.11.2017 07:04 2,9 C 7,8 C 92 % 1008,0 hPa 0,0 l/m 4,7 km/h (1 Bft) W 279 0 min 0,000 mm 0,0 UV-I 0 W/m 1,7 C 2,9 C 6,4 km/h (2 Bft) 100,00 %
13.11.2017 07:06 3,0 C 7,8 C 92 % 1008,0 hPa 0,0 l/m 5,2 km/h (1 Bft) W 266 0 min 0,000 mm 0,0 UV-I 0 W/m 1,8 C 3,0 C 9,7 km/h (2 Bft) 98,11 %
13.11.2017 07:08 3,0 C 7,8 C 92 % 1008,1 hPa 0,0 l/m 7,7 km/h (2 Bft) W 271 0 min 0,000 mm 0,0 UV-I 0 W/m 1,8 C 1,8 C 14,5 km/h (3 Bft) 100,00 %
13.11.2017 07:10 3,0 C 7,8 C 92 % 1008,1 hPa 0,0 l/m 6,0 km/h (2 Bft) W-SW 257 0 min 0,000 mm 0,0 UV-I 0 W/m 1,8 C 3,0 C 9,7 km/h (2 Bft) 97,87 %
13.11.2017 07:12 3,0 C 7,8 C 92 % 1008,1 hPa 0,0 l/m 4,7 km/h (1 Bft) W 266 0 min 0,000 mm 0,0 UV-I 0 W/m 1,8 C 3,0 C 6,4 km/h (2 Bft) 100,00 %
13.11.2017 07:14 2,9 C 7,8 C 92 % 1008,1 hPa 0,0 l/m 7,1 km/h (2 Bft) SW 224 0 min 0,000 mm 0,0 UV-I 0 W/m 1,7 C 2,2 C 11,3 km/h (2 Bft) 100,00 %
13.11.2017 07:16 2,9 C 7,8 C 92 % 1008,1 hPa 0,0 l/m 8,9 km/h (2 Bft) W 263 0 min 0,000 mm 0,0 UV-I 0 W/m 1,7 C 0,6 C 14,5 km/h (3 Bft) 94,87 %
13.11.2017 07:18 3,0 C 7,8 C 92 % 1008,2 hPa 0,0 l/m 9,7 km/h (2 Bft) W-SW 243 0 min 0,000 mm 0,0 UV-I 0 W/m 1,8 C 0,1 C 17,7 km/h (3 Bft) 98,18 %
13.11.2017 07:20 3,0 C 7,8 C 92 % 1008,1 hPa 0,0 l/m 5,8 km/h (2 Bft) W 278 0 min 0,000 mm 0,0 UV-I 3 W/m 1,8 C 3,0 C 14,5 km/h (3 Bft) 96,00 %
13.11.2017 07:22 3,0 C 7,8 C 92 % 1008,2 hPa 0,0 l/m 9,1 km/h (2 Bft) W 263 0 min 0,000 mm 0,0 UV-I 5 W/m 1,8 C 0,6 C 12,9 km/h (3 Bft) 94,87 %
13.11.2017 07:24 3,0 C 7,8 C 92 % 1008,1 hPa 0,0 l/m 6,6 km/h (2 Bft) W 268 0 min 0,000 mm 0,0 UV-I 5 W/m 1,8 C 2,8 C 11,3 km/h (2 Bft) 96,00 %
13.11.2017 07:26 3,0 C 7,8 C 92 % 1008,1 hPa 0,0 l/m 5,8 km/h (2 Bft) S-SW 209 0 min 0,000 mm 0,0 UV-I 5 W/m 1,8 C 3,0 C 9,7 km/h (2 Bft) 97,56 %
13.11.2017 07:28 3,0 C 7,8 C 92 % 1008,1 hPa 0,0 l/m 5,6 km/h (1 Bft) W-NW 288 0 min 0,000 mm 0,0 UV-I 5 W/m 1,8 C 3,0 C 11,3 km/h (2 Bft) 98,00 %
13.11.2017 07:30 3,0 C 7,8 C 92 % 1008,1 hPa 0,0 l/m 7,3 km/h (2 Bft) W-SW 254 0 min 0,000 mm 0,0 UV-I 7 W/m 1,8 C 2,1 C 16,1 km/h (3 Bft) 98,11 %
13.11.2017 07:32 3,0 C 7,8 C 92 % 1008,1 hPa 0,0 l/m 5,8 km/h (2 Bft) W-SW 239 0 min 0,000 mm 0,0 UV-I 7 W/m 1,8 C 3,0 C 12,9 km/h (3 Bft) 97,56 %
13.11.2017 07:34 3,0 C 7,8 C 92 % 1008,1 hPa 0,0 l/m 8,8 km/h (2 Bft) W 271 0 min 0,000 mm 0,0 UV-I 7 W/m 1,8 C 0,8 C 17,7 km/h (3 Bft) 98,00 %
13.11.2017 07:36 3,0 C 7,8 C 92 % 1008,2 hPa 0,0 l/m 7,0 km/h (2 Bft) W 276 0 min 0,000 mm 0,0 UV-I 7 W/m 1,8 C 2,4 C 14,5 km/h (3 Bft) 97,56 %
13.11.2017 07:38 3,0 C 7,8 C 92 % 1008,2 hPa 0,0 l/m 9,1 km/h (2 Bft) W-SW 258 0 min 0,000 mm 0,0 UV-I 8 W/m 1,8 C 0,6 C 14,5 km/h (3 Bft) 94,00 %
13.11.2017 07:40 3,0 C 7,8 C 92 % 1008,3 hPa 0,0 l/m 8,2 km/h (2 Bft) W-NW 293 0 min 0,000 mm 0,0 UV-I 9 W/m 1,8 C 1,3 C 14,5 km/h (3 Bft) 98,00 %
13.11.2017 07:42 3,0 C 7,8 C 92 % 1008,2 hPa 0,0 l/m 9,8 km/h (2 Bft) W-NW 284 0 min 0,000 mm 0,0 UV-I 9 W/m 1,8 C 0,0 C 20,9 km/h (4 Bft) 96,00 %
13.11.2017 07:44 3,0 C 7,8 C 91 % 1008,3 hPa 0,0 l/m 8,9 km/h (2 Bft) W-NW 292 0 min 0,000 mm 0,0 UV-I 9 W/m 1,7 C 0,7 C 14,5 km/h (3 Bft) 97,37 %
13.11.2017 07:46 3,0 C 7,8 C 91 % 1008,3 hPa 0,0 l/m 8,0 km/h (2 Bft) W 261 0 min 0,000 mm 0,0 UV-I 10 W/m 1,7 C 1,5 C 11,3 km/h (2 Bft) 98,11 %
13.11.2017 07:48 3,0 C 7,8 C 91 % 1008,4 hPa 0,0 l/m 9,8 km/h (2 Bft) W-NW 298 0 min 0,000 mm 0,0 UV-I 11 W/m 1,7 C 0,0 C 16,1 km/h (3 Bft) 95,12 %
13.11.2017 07:50 3,0 C 7,8 C 91 % 1008,5 hPa 0,0 l/m 9,3 km/h (2 Bft) W 273 0 min 0,000 mm 0,0 UV-I 11 W/m 1,7 C 0,4 C 14,5 km/h (3 Bft) 100,00 %
13.11.2017 07:52 3,0 C 7,8 C 92 % 1008,6 hPa 0,0 l/m 8,3 km/h (2 Bft) W-SW 257 0 min 0,000 mm 0,0 UV-I 12 W/m 1,8 C 1,2 C 16,1 km/h (3 Bft) 98,31 %
13.11.2017 07:54 3,0 C 7,8 C 92 % 1008,6 hPa 0,0 l/m 9,7 km/h (2 Bft) W-SW 255 0 min 0,000 mm 0,0 UV-I 12 W/m 1,8 C 0,1 C 16,1 km/h (3 Bft) 100,00 %
13.11.2017 07:56 3,0 C 7,8 C 91 % 1008,7 hPa 0,0 l/m 7,4 km/h (2 Bft) W-SW 246 0 min 0,000 mm 0,0 UV-I 12 W/m 1,7 C 2,1 C 12,9 km/h (3 Bft) 100,00 %
13.11.2017 07:58 3,0 C 7,8 C 91 % 1008,7 hPa 0,0 l/m 8,5 km/h (2 Bft) W 265 0 min 0,000 mm 0,0 UV-I 11 W/m 1,7 C 1,1 C 17,7 km/h (3 Bft) 100,00 %
13.11.2017 08:00 3,0 C 7,8 C 92 % 1008,7 hPa 0,0 l/m 5,6 km/h (1 Bft) W-NW 284 0 min 0,000 mm 0,0 UV-I 11 W/m 1,8 C 3,0 C 9,7 km/h (2 Bft) 94,74 %
13.11.2017 08:02 3,0 C 7,8 C 92 % 1008,7 hPa 0,0 l/m 5,0 km/h (1 Bft) W 268 0 min 0,000 mm 0,0 UV-I 13 W/m 1,8 C 3,0 C 9,7 km/h (2 Bft) 100,00 %
13.11.2017 08:04 3,0 C 7,8 C 92 % 1008,7 hPa 0,0 l/m 6,2 km/h (2 Bft) W 266 0 min 0,000 mm 0,0 UV-I 16 W/m 1,8 C 3,0 C 11,3 km/h (2 Bft) 98,00 %
13.11.2017 08:06 3,1 C 7,8 C 92 % 1008,8 hPa 0,0 l/m 6,5 km/h (2 Bft) W-NW 288 0 min 0,000 mm 0,0 UV-I 19 W/m 1,9 C 3,0 C 14,5 km/h (3 Bft) 100,00 %
13.11.2017 08:08 3,1 C 7,8 C 92 % 1008,8 hPa 0,0 l/m 3,8 km/h (1 Bft) W-NW 282 0 min 0,000 mm 0,0 UV-I 21 W/m 1,9 C 3,1 C 4,8 km/h (1 Bft) 100,00 %
13.11.2017 08:10 3,0 C 7,8 C 92 % 1008,8 hPa 0,0 l/m 7,1 km/h (2 Bft) W 279 0 min 0,000 mm 0,0 UV-I 21 W/m 1,8 C 2,3 C 16,1 km/h (3 Bft) 97,14 %
13.11.2017 08:12 3,1 C 7,8 C 92 % 1008,8 hPa 0,0 l/m 5,1 km/h (1 Bft) W-NW 290 0 min 0,000 mm 0,0 UV-I 22 W/m 1,9 C 3,1 C 9,7 km/h (2 Bft) 100,00 %
13.11.2017 08:14 3,1 C 7,8 C 92 % 1008,8 hPa 0,0 l/m 4,8 km/h (1 Bft) W 267 0 min 0,000 mm 0,0 UV-I 21 W/m 1,9 C 3,1 C 12,9 km/h (3 Bft) 100,00 %
13.11.2017 08:16 3,0 C 7,8 C 92 % 1008,8 hPa 0,0 l/m 7,1 km/h (2 Bft) W 272 0 min 0,000 mm 0,0 UV-I 21 W/m 1,8 C 2,3 C 12,9 km/h (3 Bft) 100,00 %
13.11.2017 08:18 3,1 C 7,8 C 92 % 1008,8 hPa 0,0 l/m 6,8 km/h (2 Bft) W 271 0 min 0,000 mm 0,0 UV-I 22 W/m 1,9 C 2,7 C 12,9 km/h (3 Bft) 100,00 %
13.11.2017 08:20 3,1 C 7,8 C 92 % 1008,8 hPa 0,0 l/m 6,8 km/h (2 Bft) W-SW 248 0 min 0,000 mm 0,0 UV-I 23 W/m 1,9 C 2,7 C 11,3 km/h (2 Bft) 100,00 %
13.11.2017 08:22 3,1 C 7,8 C 92 % 1008,9 hPa 0,0 l/m 10,6 km/h (2 Bft) W-SW 251 0 min 0,000 mm 0,0 UV-I 18 W/m 1,9 C -0,5 C 14,5 km/h (3 Bft) 98,11 %
13.11.2017 08:24 3,1 C 7,8 C 92 % 1008,9 hPa 0,0 l/m 10,3 km/h (2 Bft) W-SW 254 0 min 0,000 mm 0,0 UV-I 24 W/m 1,9 C -0,2 C 17,7 km/h (3 Bft) 97,87 %
13.11.2017 08:26 3,1 C 7,8 C 92 % 1008,9 hPa 0,0 l/m 11,6 km/h (2 Bft) W-SW 258 0 min 0,000 mm 0,0 UV-I 28 W/m 1,9 C -1,2 C 16,1 km/h (3 Bft) 100,00 %
13.11.2017 08:28 3,1 C 7,8 C 92 % 1009,0 hPa 0,0 l/m 10,2 km/h (2 Bft) W-SW 243 0 min 0,000 mm 0,0 UV-I 30 W/m 1,9 C -0,2 C 14,5 km/h (3 Bft) 100,00 %
13.11.2017 08:30 3,1 C 7,8 C 92 % 1008,9 hPa 0,0 l/m 7,7 km/h (2 Bft) W 271 0 min 0,000 mm 0,0 UV-I 33 W/m 1,9 C 1,9 C 11,3 km/h (2 Bft) 100,00 %
13.11.2017 08:32 3,1 C 7,8 C 92 % 1008,9 hPa 0,0 l/m 8,8 km/h (2 Bft) W 263 0 min 0,000 mm 0,0 UV-I 35 W/m 1,9 C 0,9 C 12,9 km/h (3 Bft) 100,00 %
13.11.2017 08:34 3,0 C 7,8 C 92 % 1009,0 hPa 0,0 l/m 9,8 km/h (2 Bft) W 273 0 min 0,000 mm 0,0 UV-I 37 W/m 1,8 C 0,0 C 12,9 km/h (3 Bft) 97,73 %
13.11.2017 08:36 3,1 C 7,8 C 92 % 1009,0 hPa 0,0 l/m 10,5 km/h (2 Bft) W-SW 241 0 min 0,000 mm 0,0 UV-I 39 W/m 1,9 C -0,4 C 16,1 km/h (3 Bft) 100,00 %
13.11.2017 08:38 3,0 C 7,8 C 92 % 1009,0 hPa 0,0 l/m 8,7 km/h (2 Bft) W 276 0 min 0,000 mm 0,0 UV-I 38 W/m 1,8 C 0,9 C 16,1 km/h (3 Bft) 100,00 %
13.11.2017 08:40 3,0 C 7,8 C 92 % 1009,1 hPa 0,0 l/m 10,5 km/h (2 Bft) W 272 0 min 0,000 mm 0,0 UV-I 37 W/m 1,8 C -0,5 C 16,1 km/h (3 Bft) 100,00 %
13.11.2017 08:42 3,0 C 7,8 C 92 % 1009,1 hPa 0,0 l/m 9,4 km/h (2 Bft) W 271 0 min 0,000 mm 0,0 UV-I 37 W/m 1,8 C 0,3 C 14,5 km/h (3 Bft) 98,08 %
13.11.2017 08:44 3,0 C 7,8 C 92 % 1009,2 hPa 0,0 l/m 8,6 km/h (2 Bft) W 272 0 min 0,000 mm 0,0 UV-I 37 W/m 1,8 C 1,0 C 12,9 km/h (3 Bft) 100,00 %
13.11.2017 08:46 3,0 C 7,8 C 92 % 1009,1 hPa 0,0 l/m 6,8 km/h (2 Bft) W 266 0 min 0,000 mm 0,0 UV-I 39 W/m 1,8 C 2,6 C 11,3 km/h (2 Bft) 96,00 %
13.11.2017 08:48 3,0 C 7,8 C 92 % 1009,1 hPa 0,0 l/m 5,3 km/h (1 Bft) W 281 0 min 0,000 mm 0,0 UV-I 40 W/m 1,8 C 3,0 C 6,4 km/h (2 Bft) 100,00 %
13.11.2017 08:50 3,0 C 7,8 C 92 % 1009,1 hPa 0,0 l/m 7,5 km/h (2 Bft) W-NW 291 0 min 0,000 mm 0,0 UV-I 40 W/m 1,8 C 2,0 C 12,9 km/h (3 Bft) 100,00 %
13.11.2017 08:52 3,0 C 7,8 C 92 % 1009,1 hPa 0,0 l/m 10,6 km/h (2 Bft) W-SW 243 0 min 0,000 mm 0,0 UV-I 41 W/m 1,8 C -0,6 C 17,7 km/h (3 Bft) 97,56 %
13.11.2017 08:54 3,0 C 7,8 C 92 % 1009,1 hPa 0,0 l/m 8,9 km/h (2 Bft) W 275 0 min 0,000 mm 0,0 UV-I 40 W/m 1,8 C 0,7 C 12,9 km/h (3 Bft) 100,00 %
13.11.2017 08:56 3,0 C 7,8 C 92 % 1009,2 hPa 0,0 l/m 6,3 km/h (2 Bft) W-NW 300 0 min 0,000 mm 0,0 UV-I 40 W/m 1,8 C 3,0 C 11,3 km/h (2 Bft) 100,00 %
13.11.2017 08:58 3,0 C 7,8 C 92 % 1009,3 hPa 0,0 l/m 8,2 km/h (2 Bft) W-SW 252 0 min 0,000 mm 0,0 UV-I 39 W/m 1,8 C 1,3 C 12,9 km/h (3 Bft) 100,00 %
13.11.2017 09:00 3,0 C 7,8 C 92 % 1009,3 hPa 0,0 l/m 6,0 km/h (2 Bft) W 276 0 min 0,025 mm 0,0 UV-I 39 W/m 1,8 C 3,0 C 12,9 km/h (3 Bft) 98,21 %
13.11.2017 09:02 3,0 C 7,8 C 92 % 1009,3 hPa 0,0 l/m 5,8 km/h (2 Bft) W-SW 252 0 min 0,000 mm 0,0 UV-I 39 W/m 1,8 C 3,0 C 9,7 km/h (2 Bft) 96,30 %
13.11.2017 09:04 3,1 C 7,8 C 92 % 1009,3 hPa 0,0 l/m 6,6 km/h (2 Bft) W-NW 292 0 min 0,000 mm 0,0 UV-I 39 W/m 1,9 C 2,9 C 11,3 km/h (2 Bft) 98,36 %
13.11.2017 09:06 3,1 C 7,8 C 92 % 1009,3 hPa 0,0 l/m 7,4 km/h (2 Bft) W 259 0 min 0,000 mm 0,0 UV-I 41 W/m 1,9 C 2,2 C 11,3 km/h (2 Bft) 94,64 %
13.11.2017 09:08 3,1 C 7,8 C 92 % 1009,4 hPa 0,0 l/m 7,1 km/h (2 Bft) W-SW 256 0 min 0,000 mm 0,0 UV-I 42 W/m 1,9 C 2,4 C 12,9 km/h (3 Bft) 97,87 %
13.11.2017 09:10 3,1 C 7,8 C 92 % 1009,4 hPa 0,0 l/m 6,0 km/h (2 Bft) W 262 0 min 0,000 mm 0,0 UV-I 40 W/m 1,9 C 3,1 C 11,3 km/h (2 Bft) 97,56 %
13.11.2017 09:12 3,1 C 7,8 C 92 % 1009,4 hPa 0,0 l/m 7,1 km/h (2 Bft) W 270 0 min 0,000 mm 0,0 UV-I 42 W/m 1,9 C 2,4 C 12,9 km/h (3 Bft) 97,73 %
13.11.2017 09:14 3,1 C 7,8 C 91 % 1009,5 hPa 0,0 l/m 6,8 km/h (2 Bft) W 272 0 min 0,000 mm 0,0 UV-I 40 W/m 1,8 C 2,7 C 11,3 km/h (2 Bft) 95,74 %
13.11.2017 09:16 3,1 C 7,8 C 92 % 1009,5 hPa 0,0 l/m 7,6 km/h (2 Bft) W 277 0 min 0,000 mm 0,0 UV-I 42 W/m 1,9 C 2,0 C 14,5 km/h (3 Bft) 97,92 %
13.11.2017 09:18 3,1 C 7,8 C 92 % 1009,4 hPa 0,0 l/m 12,2 km/h (2 Bft) W 261 0 min 0,000 mm 0,0 UV-I 45 W/m 1,9 C -1,6 C 19,3 km/h (3 Bft) 95,92 %
13.11.2017 09:20 3,1 C 7,8 C 91 % 1009,5 hPa 0,0 l/m 6,6 km/h (2 Bft) W-SW 254 0 min 0,000 mm 0,0 UV-I 48 W/m 1,8 C 2,9 C 11,3 km/h (2 Bft) 95,92 %
13.11.2017 09:22 3,1 C 7,8 C 91 % 1009,5 hPa 0,0 l/m 6,9 km/h (2 Bft) SW 227 0 min 0,000 mm 0,0 UV-I 50 W/m 1,8 C 2,6 C 12,9 km/h (3 Bft) 91,43 %
13.11.2017 09:24 3,1 C 7,8 C 91 % 1009,7 hPa 0,0 l/m 8,3 km/h (2 Bft) W-SW 254 0 min 0,000 mm 0,0 UV-I 53 W/m 1,8 C 1,3 C 16,1 km/h (3 Bft) 95,45 %
13.11.2017 09:26 3,1 C 7,8 C 91 % 1009,7 hPa 0,0 l/m 9,4 km/h (2 Bft) W 263 0 min 0,000 mm 0,0 UV-I 52 W/m 1,8 C 0,4 C 12,9 km/h (3 Bft) 92,86 %
13.11.2017 09:28 3,1 C 7,8 C 91 % 1009,8 hPa 0,0 l/m 8,0 km/h (2 Bft) W-SW 250 0 min 0,000 mm 0,0 UV-I 55 W/m 1,8 C 1,6 C 14,5 km/h (3 Bft) 95,12 %
13.11.2017 09:30 3,1 C 7,8 C 91 % 1009,8 hPa 0,0 l/m 10,9 km/h (2 Bft) W 270 0 min 0,000 mm 0,0 UV-I 59 W/m 1,8 C -0,7 C 17,7 km/h (3 Bft) 94,64 %
13.11.2017 09:32 3,1 C 7,8 C 91 % 1009,8 hPa 0,0 l/m 9,7 km/h (2 Bft) W-SW 247 0 min 0,000 mm 0,0 UV-I 65 W/m 1,8 C 0,2 C 16,1 km/h (3 Bft) 95,56 %
13.11.2017 09:34 3,1 C 7,8 C 91 % 1009,8 hPa 0,0 l/m 7,9 km/h (2 Bft) W 279 0 min 0,000 mm 0,0 UV-I 80 W/m 1,8 C 1,7 C 14,5 km/h (3 Bft) 95,74 %
13.11.2017 09:36 3,2 C 7,8 C 91 % 1009,9 hPa 0,0 l/m 7,3 km/h (2 Bft) W 265 0 min 0,000 mm 0,0 UV-I 84 W/m 1,9 C 2,4 C 12,9 km/h (3 Bft) 93,62 %
13.11.2017 09:38 3,2 C 7,8 C 91 % 1009,9 hPa 0,0 l/m 9,7 km/h (2 Bft) W-SW 246 0 min 0,000 mm 0,0 UV-I 80 W/m 1,9 C 0,3 C 14,5 km/h (3 Bft) 94,00 %
13.11.2017 09:40 3,2 C 7,8 C 91 % 1009,9 hPa 0,0 l/m 9,4 km/h (2 Bft) W 262 0 min 0,000 mm 0,0 UV-I 73 W/m 1,9 C 0,5 C 14,5 km/h (3 Bft) 96,00 %
13.11.2017 09:42 3,2 C 7,8 C 91 % 1009,8 hPa 0,0 l/m 8,5 km/h (2 Bft) SW 232 0 min 0,000 mm 0,0 UV-I 70 W/m 1,9 C 1,3 C 14,5 km/h (3 Bft) 95,74 %
13.11.2017 09:44 3,2 C 7,8 C 91 % 1009,8 hPa 0,0 l/m 10,2 km/h (2 Bft) W 263 0 min 0,000 mm 0,0 UV-I 69 W/m 1,9 C -0,1 C 17,7 km/h (3 Bft) 95,12 %
13.11.2017 09:46 3,2 C 7,8 C 91 % 1009,8 hPa 0,0 l/m 4,9 km/h (1 Bft) W-SW 247 0 min 0,000 mm 0,0 UV-I 67 W/m 1,9 C 3,2 C 8,0 km/h (2 Bft) 96,00 %
13.11.2017 09:48 3,2 C 7,8 C 91 % 1009,7 hPa 0,0 l/m 10,3 km/h (2 Bft) W-SW 248 0 min 0,000 mm 0,0 UV-I 65 W/m 1,9 C -0,1 C 14,5 km/h (3 Bft) 91,49 %
13.11.2017 09:50 3,2 C 7,8 C 91 % 1009,7 hPa 0,0 l/m 8,6 km/h (2 Bft) W 265 0 min 0,000 mm 0,0 UV-I 63 W/m 1,9 C 1,2 C 12,9 km/h (3 Bft) 92,68 %
13.11.2017 09:52 3,2 C 7,8 C 91 % 1009,7 hPa 0,0 l/m 11,1 km/h (2 Bft) W 273 0 min 0,000 mm 0,0 UV-I 63 W/m 1,9 C -0,7 C 22,5 km/h (4 Bft) 95,74 %
13.11.2017 09:54 3,1 C 7,8 C 91 % 1009,6 hPa 0,0 l/m 11,7 km/h (2 Bft) W-NW 285 0 min 0,000 mm 0,0 UV-I 63 W/m 1,8 C -1,2 C 17,7 km/h (3 Bft) 98,00 %
13.11.2017 09:56 3,1 C 7,8 C 91 % 1009,6 hPa 0,0 l/m 12,2 km/h (2 Bft) W-SW 246 0 min 0,000 mm 0,0 UV-I 62 W/m 1,8 C -1,6 C 17,7 km/h (3 Bft) 93,62 %
13.11.2017 09:58 3,1 C 7,8 C 91 % 1009,7 hPa 0,0 l/m 8,0 km/h (2 Bft) W-NW 289 0 min 0,000 mm 0,0 UV-I 62 W/m 1,8 C 1,6 C 12,9 km/h (3 Bft) 95,24 %
13.11.2017 10:00 3,1 C 7,8 C 91 % 1009,8 hPa 0,0 l/m 8,7 km/h (2 Bft) W 278 0 min 0,025 mm 0,0 UV-I 59 W/m 1,8 C 1,0 C 12,9 km/h (3 Bft) 96,88 %
13.11.2017 10:02 3,1 C 7,8 C 91 % 1009,8 hPa 0,0 l/m 7,2 km/h (2 Bft) W 276 0 min 0,000 mm 0,0 UV-I 57 W/m 1,8 C 2,3 C 12,9 km/h (3 Bft) 100,00 %
13.11.2017 10:04 3,2 C 7,8 C 91 % 1009,9 hPa 0,0 l/m 7,7 km/h (2 Bft) W-SW 256 0 min 0,000 mm 0,0 UV-I 56 W/m 1,9 C 2,0 C 11,3 km/h (2 Bft) 96,23 %
13.11.2017 10:06 3,2 C 7,8 C 91 % 1010,0 hPa 0,0 l/m 10,3 km/h (2 Bft) W-SW 239 0 min 0,000 mm 0,0 UV-I 55 W/m 1,9 C -0,1 C 14,5 km/h (3 Bft) 97,87 %
13.11.2017 10:08 3,2 C 7,8 C 91 % 1009,9 hPa 0,0 l/m 7,0 km/h (2 Bft) W 269 0 min 0,000 mm 0,0 UV-I 54 W/m 1,9 C 2,6 C 12,9 km/h (3 Bft) 94,29 %
13.11.2017 10:10 3,2 C 7,8 C 91 % 1010,2 hPa 0,0 l/m 7,3 km/h (2 Bft) W 267 0 min 0,000 mm 0,0 UV-I 53 W/m 1,9 C 2,4 C 12,9 km/h (3 Bft) 100,00 %
13.11.2017 10:12 3,2 C 7,8 C 91 % 1010,2 hPa 0,0 l/m 6,2 km/h (2 Bft) W-SW 246 0 min 0,000 mm 0,0 UV-I 56 W/m 1,9 C 3,2 C 11,3 km/h (2 Bft) 100,00 %
13.11.2017 10:14 3,2 C 7,8 C 91 % 1010,2 hPa 0,0 l/m 5,4 km/h (1 Bft) W 272 0 min 0,000 mm 0,0 UV-I 61 W/m 1,9 C 3,2 C 9,7 km/h (2 Bft) 100,00 %
13.11.2017 10:16 3,2 C 7,8 C 91 % 1010,2 hPa 0,0 l/m 6,3 km/h (2 Bft) W-SW 254 0 min 0,000 mm 0,0 UV-I 70 W/m 1,9 C 3,2 C 11,3 km/h (2 Bft) 100,00 %
13.11.2017 10:18 3,2 C 7,8 C 91 % 1010,2 hPa 0,0 l/m 6,7 km/h (2 Bft) W-NW 287 0 min 0,000 mm 0,0 UV-I 83 W/m 1,9 C 2,9 C 11,3 km/h (2 Bft) 100,00 %
13.11.2017 10:20 3,2 C 7,8 C 90 % 1010,3 hPa 0,0 l/m 11,1 km/h (2 Bft) W 263 0 min 0,000 mm 0,0 UV-I 90 W/m 1,7 C -0,7 C 16,1 km/h (3 Bft) 100,00 %
13.11.2017 10:22 3,3 C 7,8 C 91 % 1010,3 hPa 0,0 l/m 11,0 km/h (2 Bft) W-SW 256 0 min 0,000 mm 0,0 UV-I 89 W/m 2,0 C -0,5 C 20,9 km/h (4 Bft) 100,00 %
13.11.2017 10:24 3,3 C 7,8 C 90 % 1010,3 hPa 0,0 l/m 10,4 km/h (2 Bft) W 269 0 min 0,000 mm 0,0 UV-I 86 W/m 1,8 C -0,1 C 16,1 km/h (3 Bft) 100,00 %
13.11.2017 10:26 3,3 C 7,8 C 90 % 1010,3 hPa 0,0 l/m 8,6 km/h (2 Bft) W-SW 245 0 min 0,000 mm 0,0 UV-I 81 W/m 1,8 C 1,3 C 12,9 km/h (3 Bft) 100,00 %
13.11.2017 10:28 3,3 C 7,8 C 90 % 1010,3 hPa 0,0 l/m 4,9 km/h (1 Bft) W-SW 249 0 min 0,000 mm 0,0 UV-I 76 W/m 1,8 C 3,3 C 9,7 km/h (2 Bft) 95,12 %
13.11.2017 10:30 3,3 C 7,8 C 90 % 1010,3 hPa 0,0 l/m 9,4 km/h (2 Bft) W 263 0 min 0,000 mm 0,0 UV-I 78 W/m 1,8 C 0,7 C 16,1 km/h (3 Bft) 100,00 %
13.11.2017 10:32 3,3 C 7,8 C 90 % 1010,4 hPa 0,0 l/m 7,5 km/h (2 Bft) W-SW 256 0 min 0,000 mm 0,0 UV-I 86 W/m 1,8 C 2,3 C 14,5 km/h (3 Bft) 100,00 %
13.11.2017 10:34 3,4 C 7,8 C 91 % 1010,4 hPa 0,0 l/m 6,8 km/h (2 Bft) W 269 0 min 0,000 mm 0,0 UV-I 94 W/m 2,1 C 3,0 C 11,3 km/h (2 Bft) 97,87 %
13.11.2017 10:36 3,4 C 7,8 C 90 % 1010,5 hPa 0,0 l/m 7,6 km/h (2 Bft) W-NW 287 0 min 0,000 mm 0,0 UV-I 99 W/m 1,9 C 2,3 C 12,9 km/h (3 Bft) 100,00 %
13.11.2017 10:38 3,4 C 7,8 C 90 % 1010,5 hPa 0,0 l/m 7,7 km/h (2 Bft) W 267 0 min 0,000 mm 0,0 UV-I 103 W/m 1,9 C 2,2 C 12,9 km/h (3 Bft) 100,00 %
13.11.2017 10:40 3,4 C 7,8 C 90 % 1010,6 hPa 0,0 l/m 5,4 km/h (1 Bft) W-NW 284 0 min 0,000 mm 0,0 UV-I 105 W/m 1,9 C 3,4 C 11,3 km/h (2 Bft) 96,15 %
13.11.2017 10:42 3,4 C 7,8 C 90 % 1010,5 hPa 0,0 l/m 9,5 km/h (2 Bft) W 260 0 min 0,000 mm 0,0 UV-I 110 W/m 1,9 C 0,7 C 14,5 km/h (3 Bft) 100,00 %
13.11.2017 10:44 3,5 C 7,8 C 90 % 1010,6 hPa 0,0 l/m 5,9 km/h (2 Bft) W 261 0 min 0,000 mm 0,0 UV-I 121 W/m 2,0 C 3,5 C 12,9 km/h (3 Bft) 98,00 %
13.11.2017 10:46 3,6 C 7,8 C 90 % 1010,5 hPa 0,0 l/m 7,9 km/h (2 Bft) W-SW 250 0 min 0,000 mm 0,0 UV-I 135 W/m 2,1 C 2,2 C 12,9 km/h (3 Bft) 100,00 %
13.11.2017 10:48 3,6 C 7,8 C 90 % 1010,5 hPa 0,0 l/m 6,3 km/h (2 Bft) W-NW 292 0 min 0,000 mm 0,0 UV-I 148 W/m 2,1 C 3,6 C 12,9 km/h (3 Bft) 98,11 %
13.11.2017 10:50 3,6 C 7,8 C 89 % 1010,5 hPa 0,0 l/m 4,3 km/h (1 Bft) W 275 0 min 0,000 mm 0,0 UV-I 155 W/m 2,0 C 3,6 C 11,3 km/h (2 Bft) 100,00 %
13.11.2017 10:52 3,7 C 7,8 C 89 % 1010,5 hPa 0,0 l/m 4,6 km/h (1 Bft) W-NW 284 0 min 0,000 mm 0,0 UV-I 152 W/m 2,1 C 3,7 C 11,3 km/h (2 Bft) 97,37 %
13.11.2017 10:54 3,7 C 7,8 C 89 % 1010,6 hPa 0,0 l/m 4,8 km/h (1 Bft) W-NW 282 0 min 0,000 mm 0,0 UV-I 139 W/m 2,1 C 3,7 C 11,3 km/h (2 Bft) 100,00 %
13.11.2017 10:56 3,7 C 7,8 C 89 % 1010,6 hPa 0,0 l/m 5,9 km/h (2 Bft) W-SW 247 0 min 0,000 mm 0,0 UV-I 135 W/m 2,1 C 3,7 C 9,7 km/h (2 Bft) 98,00 %
13.11.2017 10:58 3,7 C 7,8 C 89 % 1010,6 hPa 0,0 l/m 6,4 km/h (2 Bft) W-NW 284 0 min 0,000 mm 0,0 UV-I 136 W/m 2,1 C 3,7 C 12,9 km/h (3 Bft) 100,00 %
13.11.2017 11:00 3,7 C 7,8 C 89 % 1010,5 hPa 0,0 l/m 7,5 km/h (2 Bft) W-NW 290 0 min 0,051 mm 0,0 UV-I 143 W/m 2,1 C 2,7 C 11,3 km/h (2 Bft) 100,00 %
13.11.2017 11:02 3,7 C 7,8 C 89 % 1010,5 hPa 0,0 l/m 7,4 km/h (2 Bft) W-NW 288 0 min 0,000 mm 0,0 UV-I 146 W/m 2,1 C 2,8 C 14,5 km/h (3 Bft) 100,00 %
13.11.2017 11:04 3,7 C 7,8 C 89 % 1010,5 hPa 0,0 l/m 4,1 km/h (1 Bft) NW 308 0 min 0,000 mm 0,0 UV-I 137 W/m 2,1 C 3,7 C 8,0 km/h (2 Bft) 100,00 %
13.11.2017 11:06 3,8 C 7,8 C 90 % 1010,6 hPa 0,0 l/m 9,1 km/h (2 Bft) W-NW 294 0 min 0,000 mm 0,0 UV-I 135 W/m 2,3 C 1,4 C 22,5 km/h (4 Bft) 100,00 %
13.11.2017 11:08 3,8 C 7,8 C 89 % 1010,6 hPa 0,0 l/m 6,2 km/h (2 Bft) W-SW 246 0 min 0,000 mm 0,0 UV-I 143 W/m 2,2 C 3,8 C 16,1 km/h (3 Bft) 100,00 %
13.11.2017 11:10 3,7 C 7,8 C 89 % 1010,7 hPa 0,0 l/m 7,2 km/h (2 Bft) W-SW 250 0 min 0,000 mm 0,0 UV-I 142 W/m 2,1 C 3,0 C 12,9 km/h (3 Bft) 97,56 %
13.11.2017 11:12 3,8 C 7,8 C 89 % 1010,7 hPa 0,0 l/m 4,8 km/h (1 Bft) W-SW 258 0 min 0,000 mm 0,0 UV-I 140 W/m 2,2 C 3,8 C 6,4 km/h (2 Bft) 100,00 %
13.11.2017 11:14 3,7 C 7,8 C 89 % 1010,7 hPa 0,0 l/m 9,5 km/h (2 Bft) W 275 0 min 0,000 mm 0,0 UV-I 144 W/m 2,1 C 1,0 C 17,7 km/h (3 Bft) 100,00 %
13.11.2017 11:16 3,7 C 7,8 C 89 % 1010,7 hPa 0,0 l/m 8,5 km/h (2 Bft) W-SW 257 0 min 0,000 mm 0,1 UV-I 151 W/m 2,1 C 1,8 C 12,9 km/h (3 Bft) 100,00 %
13.11.2017 11:18 3,7 C 7,8 C 89 % 1010,7 hPa 0,0 l/m 7,9 km/h (2 Bft) W-SW 250 0 min 0,000 mm 0,5 UV-I 162 W/m 2,1 C 2,3 C 17,7 km/h (3 Bft) 100,00 %
13.11.2017 11:20 3,7 C 7,8 C 89 % 1010,7 hPa 0,0 l/m 5,1 km/h (1 Bft) SW 234 0 min 0,000 mm 0,5 UV-I 168 W/m 2,1 C 3,7 C 9,7 km/h (2 Bft) 98,08 %
13.11.2017 11:22 3,8 C 7,8 C 89 % 1010,7 hPa 0,0 l/m 5,9 km/h (2 Bft) W 280 0 min 0,000 mm 0,5 UV-I 165 W/m 2,2 C 3,8 C 14,5 km/h (3 Bft) 94,74 %
13.11.2017 11:24 3,8 C 7,8 C 88 % 1010,7 hPa 0,0 l/m 10,2 km/h (2 Bft) W 264 0 min 0,000 mm 0,5 UV-I 161 W/m 2,0 C 0,6 C 14,5 km/h (3 Bft) 94,34 %
13.11.2017 11:26 3,7 C 7,8 C 88 % 1010,7 hPa 0,0 l/m 13,0 km/h (3 Bft) W-SW 258 0 min 0,000 mm 0,5 UV-I 158 W/m 1,9 C -1,4 C 19,3 km/h (3 Bft) 97,37 %
13.11.2017 11:28 3,7 C 7,8 C 88 % 1010,7 hPa 0,0 l/m 9,2 km/h (2 Bft) W 260 0 min 0,000 mm 0,5 UV-I 162 W/m 1,9 C 1,2 C 16,1 km/h (3 Bft) 96,00 %
13.11.2017 11:30 3,8 C 7,8 C 89 % 1010,8 hPa 0,0 l/m 5,3 km/h (1 Bft) W-SW 240 0 min 0,000 mm 0,5 UV-I 167 W/m 2,2 C 3,8 C 12,9 km/h (3 Bft) 97,73 %
13.11.2017 11:32 3,8 C 7,8 C 88 % 1010,9 hPa 0,0 l/m 9,7 km/h (2 Bft) W 264 0 min 0,000 mm 0,5 UV-I 168 W/m 2,0 C 1,0 C 14,5 km/h (3 Bft) 98,31 %
13.11.2017 11:34 3,8 C 7,8 C 88 % 1010,9 hPa 0,0 l/m 9,5 km/h (2 Bft) W-NW 283 0 min 0,000 mm 0,5 UV-I 156 W/m 2,0 C 1,1 C 17,7 km/h (3 Bft) 97,14 %
13.11.2017 11:36 3,8 C 7,8 C 88 % 1010,9 hPa 0,0 l/m 10,6 km/h (2 Bft) W-SW 254 0 min 0,000 mm 0,5 UV-I 155 W/m 2,0 C 0,3 C 14,5 km/h (3 Bft) 98,21 %
13.11.2017 11:38 3,8 C 7,8 C 88 % 1010,9 hPa 0,0 l/m 10,1 km/h (2 Bft) W 259 0 min 0,000 mm 0,5 UV-I 155 W/m 2,0 C 0,7 C 16,1 km/h (3 Bft) 97,73 %
13.11.2017 11:40 3,9 C 7,8 C 88 % 1011,0 hPa 0,0 l/m 6,2 km/h (2 Bft) W-SW 243 0 min 0,000 mm 0,5 UV-I 150 W/m 2,1 C 3,9 C 11,3 km/h (2 Bft) 97,56 %
13.11.2017 11:42 3,9 C 7,8 C 88 % 1010,9 hPa 0,0 l/m 10,6 km/h (2 Bft) W 272 0 min 0,000 mm 0,5 UV-I 149 W/m 2,1 C 0,4 C 19,3 km/h (3 Bft) 96,43 %
13.11.2017 11:44 3,9 C 7,8 C 88 % 1010,9 hPa 0,0 l/m 10,0 km/h (2 Bft) W 265 0 min 0,000 mm 0,5 UV-I 151 W/m 2,1 C 0,9 C 17,7 km/h (3 Bft) 97,56 %
13.11.2017 11:46 3,9 C 7,8 C 88 % 1010,9 hPa 0,0 l/m 8,6 km/h (2 Bft) W 261 0 min 0,000 mm 0,5 UV-I 159 W/m 2,1 C 1,9 C 17,7 km/h (3 Bft) 98,11 %
13.11.2017 11:48 3,9 C 7,8 C 87 % 1010,9 hPa 0,0 l/m 9,4 km/h (2 Bft) W-SW 244 0 min 0,000 mm 0,5 UV-I 162 W/m 1,9 C 1,3 C 16,1 km/h (3 Bft) 94,74 %
13.11.2017 11:50 4,0 C 7,8 C 88 % 1011,0 hPa 0,0 l/m 9,1 km/h (2 Bft) W 277 0 min 0,000 mm 0,5 UV-I 161 W/m 2,2 C 1,6 C 14,5 km/h (3 Bft) 98,11 %
13.11.2017 11:52 4,0 C 7,8 C 87 % 1011,0 hPa 0,0 l/m 7,2 km/h (2 Bft) W 260 0 min 0,000 mm 0,5 UV-I 157 W/m 2,0 C 3,3 C 12,9 km/h (3 Bft) 97,44 %
13.11.2017 11:54 4,1 C 7,8 C 87 % 1011,1 hPa 0,0 l/m 6,9 km/h (2 Bft) W-SW 242 0 min 0,000 mm 0,5 UV-I 159 W/m 2,1 C 3,7 C 17,7 km/h (3 Bft) 96,00 %
13.11.2017 11:56 4,1 C 7,8 C 87 % 1011,2 hPa 0,0 l/m 9,3 km/h (2 Bft) W-SW 248 0 min 0,000 mm 0,5 UV-I 159 W/m 2,1 C 1,6 C 12,9 km/h (3 Bft) 98,18 %
13.11.2017 11:58 4,1 C 7,8 C 87 % 1011,2 hPa 0,0 l/m 9,7 km/h (2 Bft) NW 311 0 min 0,000 mm 0,5 UV-I 154 W/m 2,1 C 1,3 C 16,1 km/h (3 Bft) 100,00 %
13.11.2017 12:00 4,1 C 7,8 C 87 % 1011,2 hPa 0,0 l/m 7,3 km/h (2 Bft) W 265 0 min 0,000 mm 0,5 UV-I 149 W/m 2,1 C 3,3 C 12,9 km/h (3 Bft) 100,00 %
13.11.2017 12:02 4,1 C 7,8 C 87 % 1011,2 hPa 0,0 l/m 7,3 km/h (2 Bft) W-NW 282 0 min 0,076 mm 0,0 UV-I 146 W/m 2,1 C 3,3 C 14,5 km/h (3 Bft) 96,15 %
13.11.2017 12:04 4,1 C 7,8 C 87 % 1011,2 hPa 0,0 l/m 6,9 km/h (2 Bft) W-NW 287 0 min 0,000 mm 0,0 UV-I 141 W/m 2,1 C 3,7 C 11,3 km/h (2 Bft) 100,00 %
13.11.2017 12:06 4,1 C 7,8 C 87 % 1011,2 hPa 0,0 l/m 5,3 km/h (1 Bft) W 277 0 min 0,000 mm 0,0 UV-I 144 W/m 2,1 C 4,1 C 9,7 km/h (2 Bft) 100,00 %
13.11.2017 12:08 4,1 C 7,8 C 87 % 1011,2 hPa 0,0 l/m 5,0 km/h (1 Bft) W 281 0 min 0,000 mm 0,0 UV-I 142 W/m 2,1 C 4,1 C 12,9 km/h (3 Bft) 100,00 %
13.11.2017 12:10 4,1 C 7,8 C 87 % 1011,2 hPa 0,0 l/m 8,4 km/h (2 Bft) W 259 0 min 0,000 mm 0,0 UV-I 150 W/m 2,1 C 2,3 C 11,3 km/h (2 Bft) 100,00 %
13.11.2017 12:12 4,1 C 7,8 C 87 % 1011,2 hPa 0,0 l/m 11,0 km/h (2 Bft) W 267 0 min 0,000 mm 0,0 UV-I 149 W/m 2,1 C 0,4 C 16,1 km/h (3 Bft) 97,73 %
13.11.2017 12:14 4,1 C 7,8 C 87 % 1011,2 hPa 0,0 l/m 10,3 km/h (2 Bft) W-SW 257 0 min 0,000 mm 0,0 UV-I 147 W/m 2,1 C 0,9 C 14,5 km/h (3 Bft) 100,00 %
13.11.2017 12:16 4,1 C 7,8 C 87 % 1011,2 hPa 0,0 l/m 9,3 km/h (2 Bft) W 272 0 min 0,000 mm 0,0 UV-I 140 W/m 2,1 C 1,6 C 12,9 km/h (3 Bft) 100,00 %
13.11.2017 12:18 4,2 C 7,8 C 87 % 1011,2 hPa 0,0 l/m 7,9 km/h (2 Bft) W-SW 243 0 min 0,000 mm 0,0 UV-I 138 W/m 2,2 C 2,8 C 12,9 km/h (3 Bft) 100,00 %
13.11.2017 12:20 4,2 C 7,8 C 87 % 1011,1 hPa 0,0 l/m 9,2 km/h (2 Bft) W 259 0 min 0,000 mm 0,0 UV-I 133 W/m 2,2 C 1,8 C 14,5 km/h (3 Bft) 97,37 %
13.11.2017 12:22 4,2 C 7,8 C 86 % 1011,2 hPa 0,0 l/m 11,1 km/h (2 Bft) W 271 0 min 0,000 mm 0,0 UV-I 125 W/m 2,1 C 0,4 C 17,7 km/h (3 Bft) 100,00 %
13.11.2017 12:24 4,1 C 7,8 C 86 % 1011,2 hPa 0,0 l/m 9,7 km/h (2 Bft) SW 228 0 min 0,000 mm 0,0 UV-I 123 W/m 2,0 C 1,3 C 16,1 km/h (3 Bft) 100,00 %
13.11.2017 12:26 4,1 C 7,8 C 86 % 1011,3 hPa 0,0 l/m 10,3 km/h (2 Bft) W-SW 257 0 min 0,000 mm 0,0 UV-I 120 W/m 2,0 C 0,9 C 14,5 km/h (3 Bft) 100,00 %
13.11.2017 12:28 4,1 C 7,8 C 86 % 1011,3 hPa 0,0 l/m 7,4 km/h (2 Bft) W-SW 252 0 min 0,000 mm 0,0 UV-I 122 W/m 2,0 C 3,2 C 12,9 km/h (3 Bft) 100,00 %
13.11.2017 12:30 4,1 C 7,8 C 86 % 1011,3 hPa 0,0 l/m 8,1 km/h (2 Bft) W-SW 257 0 min 0,000 mm 0,0 UV-I 128 W/m 2,0 C 2,6 C 14,5 km/h (3 Bft) 100,00 %
13.11.2017 12:32 4,1 C 7,8 C 87 % 1011,4 hPa 0,0 l/m 5,9 km/h (2 Bft) W-NW 298 0 min 0,000 mm 0,0 UV-I 120 W/m 2,1 C 4,1 C 9,7 km/h (2 Bft) 96,00 %
13.11.2017 12:34 4,2 C 7,2 C 87 % 1011,5 hPa 0,0 l/m 8,0 km/h (2 Bft) W-SW 244 0 min 0,000 mm 0,0 UV-I 118 W/m 2,2 C 2,8 C 12,9 km/h (3 Bft) 100,00 %
13.11.2017 12:36 4,2 C 7,2 C 86 % 1011,4 hPa 0,0 l/m 7,4 km/h (2 Bft) W 263 0 min 0,000 mm 0,0 UV-I 126 W/m 2,1 C 3,3 C 12,9 km/h (3 Bft) 100,00 %
13.11.2017 12:38 4,2 C 7,2 C 85 % 1011,4 hPa 0,0 l/m 6,0 km/h (2 Bft) W-NW 284 0 min 0,000 mm 0,0 UV-I 141 W/m 1,9 C 4,2 C 11,3 km/h (2 Bft) 96,61 %
13.11.2017 12:40 4,2 C 7,8 C 86 % 1011,4 hPa 0,0 l/m 4,3 km/h (1 Bft) W 267 0 min 0,000 mm 0,0 UV-I 153 W/m 2,1 C 4,2 C 9,7 km/h (2 Bft) 100,00 %
13.11.2017 12:43 4,2 C 7,2 C 86 % 1011,4 hPa 0,0 l/m 4,7 km/h (1 Bft) W 269 0 min 0,000 mm 0,0 UV-I 156 W/m 2,1 C 4,2 C 9,7 km/h (2 Bft) 100,00 %
13.11.2017 12:44 4,3 C 7,2 C 86 % 1011,4 hPa 0,0 l/m 6,0 km/h (2 Bft) NW 321 0 min 0,000 mm 0,0 UV-I 153 W/m 2,2 C 4,3 C 9,7 km/h (2 Bft) 100,00 %
13.11.2017 12:46 4,3 C 7,8 C 85 % 1011,5 hPa 0,0 l/m 6,9 km/h (2 Bft) W 263 0 min 0,000 mm 0,0 UV-I 150 W/m 2,0 C 3,9 C 16,1 km/h (3 Bft) 98,00 %
13.11.2017 12:48 4,2 C 7,8 C 85 % 1011,4 hPa 0,0 l/m 7,3 km/h (2 Bft) W-NW 288 0 min 0,000 mm 0,0 UV-I 143 W/m 1,9 C 3,4 C 12,9 km/h (3 Bft) 97,14 %
13.11.2017 12:50 4,3 C 7,8 C 86 % 1011,4 hPa 0,0 l/m 4,1 km/h (1 Bft) W-SW 254 0 min 0,000 mm 0,0 UV-I 137 W/m 2,2 C 4,3 C 6,4 km/h (2 Bft) 100,00 %
13.11.2017 12:52 4,3 C 7,8 C 85 % 1011,5 hPa 0,0 l/m 6,8 km/h (2 Bft) W-NW 284 0 min 0,000 mm 0,0 UV-I 133 W/m 2,0 C 3,9 C 11,3 km/h (2 Bft) 98,00 %
13.11.2017 12:54 4,2 C 7,8 C 85 % 1011,5 hPa 0,0 l/m 8,5 km/h (2 Bft) W 266 0 min 0,000 mm 0,0 UV-I 132 W/m 1,9 C 2,3 C 16,1 km/h (3 Bft) 94,87 %
13.11.2017 12:56 4,2 C 7,8 C 85 % 1011,4 hPa 0,0 l/m 6,9 km/h (2 Bft) W-NW 284 0 min 0,000 mm 0,0 UV-I 136 W/m 1,9 C 3,8 C 14,5 km/h (3 Bft) 97,73 %
13.11.2017 12:58 4,2 C 7,8 C 85 % 1011,5 hPa 0,0 l/m 6,1 km/h (2 Bft) W-SW 254 0 min 0,000 mm 0,0 UV-I 141 W/m 1,9 C 4,2 C 12,9 km/h (3 Bft) 96,61 %
13.11.2017 13:00 4,2 C 7,8 C 85 % 1011,5 hPa 0,0 l/m 5,3 km/h (1 Bft) W 267 0 min 0,051 mm 0,0 UV-I 143 W/m 1,9 C 4,2 C 9,7 km/h (2 Bft) 97,56 %
13.11.2017 13:02 4,3 C 7,8 C 86 % 1011,4 hPa 0,0 l/m 4,9 km/h (1 Bft) W 279 0 min 0,000 mm 0,0 UV-I 144 W/m 2,2 C 4,3 C 6,4 km/h (2 Bft) 98,00 %
13.11.2017 13:04 4,3 C 7,8 C 85 % 1011,4 hPa 0,0 l/m 10,1 km/h (2 Bft) W 259 0 min 0,000 mm 0,0 UV-I 143 W/m 2,0 C 1,2 C 19,3 km/h (3 Bft) 100,00 %
13.11.2017 13:06 4,3 C 7,8 C 85 % 1011,5 hPa 0,0 l/m 7,4 km/h (2 Bft) W-SW 252 0 min 0,000 mm 0,0 UV-I 142 W/m 2,0 C 3,4 C 12,9 km/h (3 Bft) 96,23 %
13.11.2017 13:08 4,3 C 7,8 C 85 % 1011,4 hPa 0,0 l/m 9,4 km/h (2 Bft) W 281 0 min 0,000 mm 0,0 UV-I 148 W/m 2,0 C 1,7 C 17,7 km/h (3 Bft) 96,36 %
13.11.2017 13:10 4,3 C 7,8 C 84 % 1011,4 hPa 0,0 l/m 4,9 km/h (1 Bft) W 269 0 min 0,000 mm 0,0 UV-I 149 W/m 1,8 C 4,3 C 9,7 km/h (2 Bft) 98,00 %
13.11.2017 13:12 4,3 C 7,8 C 85 % 1011,4 hPa 0,0 l/m 3,6 km/h (1 Bft) W 267 0 min 0,000 mm 0,0 UV-I 149 W/m 2,0 C 4,3 C 6,4 km/h (2 Bft) 98,00 %
13.11.2017 13:14 4,4 C 7,8 C 85 % 1011,5 hPa 0,0 l/m 4,9 km/h (1 Bft) W-SW 257 0 min 0,000 mm 0,0 UV-I 148 W/m 2,1 C 4,4 C 9,7 km/h (2 Bft) 96,30 %
13.11.2017 13:16 4,3 C 7,8 C 85 % 1011,4 hPa 0,0 l/m 9,5 km/h (2 Bft) W 279 0 min 0,000 mm 0,0 UV-I 148 W/m 2,0 C 1,7 C 17,7 km/h (3 Bft) 96,92 %
13.11.2017 13:18 4,3 C 7,8 C 85 % 1011,4 hPa 0,0 l/m 7,5 km/h (2 Bft) W-SW 254 0 min 0,000 mm 0,0 UV-I 154 W/m 2,0 C 3,3 C 12,9 km/h (3 Bft) 97,87 %
13.11.2017 13:20 4,3 C 7,8 C 85 % 1011,4 hPa 0,0 l/m 8,1 km/h (2 Bft) W 269 0 min 0,000 mm 0,0 UV-I 155 W/m 2,0 C 2,8 C 12,9 km/h (3 Bft) 95,24 %
13.11.2017 13:22 4,3 C 7,8 C 85 % 1011,5 hPa 0,0 l/m 7,1 km/h (2 Bft) W 281 0 min 0,000 mm 0,0 UV-I 158 W/m 2,0 C 3,7 C 14,5 km/h (3 Bft) 94,00 %
13.11.2017 13:24 4,3 C 7,8 C 85 % 1011,4 hPa 0,0 l/m 7,4 km/h (2 Bft) W-NW 283 0 min 0,000 mm 0,0 UV-I 164 W/m 2,0 C 3,4 C 12,9 km/h (3 Bft) 94,00 %
13.11.2017 13:26 4,4 C 7,8 C 85 % 1011,5 hPa 0,0 l/m 6,5 km/h (2 Bft) W 279 0 min 0,000 mm 0,0 UV-I 175 W/m 2,1 C 4,3 C 12,9 km/h (3 Bft) 92,68 %
13.11.2017 13:28 4,4 C 7,8 C 85 % 1011,6 hPa 0,0 l/m 4,3 km/h (1 Bft) W-NW 282 0 min 0,000 mm 0,0 UV-I 188 W/m 2,1 C 4,4 C 6,4 km/h (2 Bft) 92,68 %
13.11.2017 13:30 4,5 C 7,8 C 85 % 1011,6 hPa 0,0 l/m 7,2 km/h (2 Bft) W-NW 292 2 min 0,000 mm 0,0 UV-I 206 W/m 2,2 C 3,8 C 12,9 km/h (3 Bft) 96,43 %
13.11.2017 13:32 4,6 C 7,8 C 85 % 1011,8 hPa 0,0 l/m 5,9 km/h (2 Bft) W 266 2 min 0,000 mm 0,0 UV-I 208 W/m 2,3 C 4,6 C 11,3 km/h (2 Bft) 96,00 %
13.11.2017 13:34 4,6 C 7,8 C 84 % 1011,8 hPa 0,0 l/m 7,0 km/h (2 Bft) W-SW 255 2 min 0,000 mm 0,2 UV-I 212 W/m 2,1 C 4,1 C 17,7 km/h (3 Bft) 94,29 %
13.11.2017 13:36 4,6 C 7,8 C 83 % 1011,9 hPa 0,0 l/m 10,2 km/h (2 Bft) W 270 2 min 0,000 mm 0,4 UV-I 213 W/m 2,0 C 1,5 C 16,1 km/h (3 Bft) 96,43 %
13.11.2017 13:38 4,7 C 7,8 C 83 % 1012,0 hPa 0,0 l/m 6,7 km/h (2 Bft) W 280 2 min 0,000 mm 0,0 UV-I 204 W/m 2,1 C 4,4 C 12,9 km/h (3 Bft) 93,18 %
13.11.2017 13:40 4,7 C 7,8 C 82 % 1012,0 hPa 0,0 l/m 4,9 km/h (1 Bft) W 273 2 min 0,000 mm 0,0 UV-I 196 W/m 1,9 C 4,7 C 9,7 km/h (2 Bft) 94,34 %
13.11.2017 13:42 4,8 C 7,8 C 82 % 1012,1 hPa 0,0 l/m 5,8 km/h (2 Bft) W-SW 258 2 min 0,000 mm 0,0 UV-I 185 W/m 2,0 C 4,8 C 12,9 km/h (3 Bft) 94,74 %
13.11.2017 13:44 4,8 C 7,8 C 82 % 1012,2 hPa 0,0 l/m 5,8 km/h (2 Bft) W-SW 252 0 min 0,000 mm 0,0 UV-I 169 W/m 2,0 C 4,8 C 11,3 km/h (2 Bft) 93,62 %
13.11.2017 13:46 4,8 C 7,8 C 83 % 1012,2 hPa 0,0 l/m 12,5 km/h (3 Bft) W-SW 253 0 min 0,000 mm 0,0 UV-I 171 W/m 2,2 C 0,2 C 19,3 km/h (3 Bft) 93,62 %
13.11.2017 13:48 4,8 C 7,8 C 82 % 1012,3 hPa 0,0 l/m 13,9 km/h (3 Bft) W-NW 284 0 min 0,000 mm 0,0 UV-I 175 W/m 2,0 C -0,6 C 19,3 km/h (3 Bft) 94,34 %
13.11.2017 13:50 4,7 C 7,8 C 82 % 1012,3 hPa 0,0 l/m 8,7 km/h (2 Bft) W-SW 253 2 min 0,000 mm 0,0 UV-I 185 W/m 1,9 C 2,7 C 17,7 km/h (3 Bft) 94,74 %
13.11.2017 13:52 4,8 C 7,2 C 82 % 1012,3 hPa 0,0 l/m 11,0 km/h (2 Bft) W-SW 243 2 min 0,000 mm 0,0 UV-I 279 W/m 2,0 C 1,2 C 20,9 km/h (4 Bft) 94,64 %
13.11.2017 13:54 4,8 C 7,8 C 83 % 1012,4 hPa 0,0 l/m 11,0 km/h (2 Bft) W 265 2 min 0,000 mm 0,0 UV-I 272 W/m 2,2 C 1,2 C 17,7 km/h (3 Bft) 97,62 %
13.11.2017 13:56 4,9 C 7,8 C 82 % 1012,5 hPa 0,0 l/m 12,9 km/h (3 Bft) W 280 2 min 0,000 mm 0,0 UV-I 286 W/m 2,1 C 0,1 C 17,7 km/h (3 Bft) 96,00 %
13.11.2017 13:58 4,9 C 7,8 C 81 % 1012,3 hPa 0,0 l/m 13,1 km/h (3 Bft) W-SW 249 2 min 0,000 mm 0,0 UV-I 265 W/m 1,9 C -0,0 C 19,3 km/h (3 Bft) 100,00 %
13.11.2017 14:00 4,9 C 7,8 C 81 % 1012,3 hPa 0,0 l/m 12,6 km/h (3 Bft) SW 234 2 min 0,076 mm 0,0 UV-I 239 W/m 1,9 C 0,3 C 22,5 km/h (4 Bft) 100,00 %
13.11.2017 14:02 5,1 C 7,8 C 81 % 1012,4 hPa 0,0 l/m 11,8 km/h (2 Bft) W-NW 286 2 min 0,000 mm 0,0 UV-I 276 W/m 2,1 C 1,0 C 17,7 km/h (3 Bft) 97,87 %
13.11.2017 14:04 5,1 C 7,8 C 80 % 1012,3 hPa 0,0 l/m 9,0 km/h (2 Bft) W-SW 254 2 min 0,000 mm 0,0 UV-I 273 W/m 1,9 C 2,9 C 16,1 km/h (3 Bft) 100,00 %
13.11.2017 14:06 5,1 C 7,8 C 80 % 1012,3 hPa 0,0 l/m 6,5 km/h (2 Bft) W-SW 249 2 min 0,000 mm 0,0 UV-I 211 W/m 1,9 C 5,0 C 11,3 km/h (2 Bft) 100,00 %
13.11.2017 14:08 5,2 C 7,8 C 81 % 1012,3 hPa 0,0 l/m 6,8 km/h (2 Bft) W-NW 289 2 min 0,000 mm 0,0 UV-I 198 W/m 2,2 C 4,9 C 11,3 km/h (2 Bft) 100,00 %
13.11.2017 14:10 5,2 C 7,8 C 81 % 1012,3 hPa 0,0 l/m 12,1 km/h (2 Bft) W 273 2 min 0,000 mm 0,0 UV-I 208 W/m 2,2 C 0,9 C 22,5 km/h (4 Bft) 100,00 %
13.11.2017 14:12 5,1 C 7,8 C 80 % 1012,2 hPa 0,0 l/m 8,6 km/h (2 Bft) W 259 2 min 0,000 mm 0,0 UV-I 179 W/m 1,9 C 3,2 C 17,7 km/h (3 Bft) 100,00 %
13.11.2017 14:14 5,1 C 7,8 C 80 % 1012,2 hPa 0,0 l/m 8,8 km/h (2 Bft) W-SW 250 2 min 0,000 mm 0,0 UV-I 156 W/m 1,9 C 3,1 C 16,1 km/h (3 Bft) 100,00 %
13.11.2017 14:16 5,0 C 7,8 C 80 % 1012,2 hPa 0,0 l/m 7,8 km/h (2 Bft) W-NW 302 2 min 0,000 mm 0,0 UV-I 164 W/m 1,8 C 3,8 C 12,9 km/h (3 Bft) 100,00 %
13.11.2017 14:18 4,9 C 7,8 C 80 % 1012,2 hPa 0,0 l/m 4,7 km/h (1 Bft) W-NW 284 2 min 0,000 mm 0,0 UV-I 170 W/m 1,7 C 4,9 C 16,1 km/h (3 Bft) 96,00 %
13.11.2017 14:20 4,9 C 7,8 C 81 % 1012,1 hPa 0,0 l/m 5,3 km/h (1 Bft) SW 225 2 min 0,000 mm 0,0 UV-I 175 W/m 1,9 C 4,9 C 9,7 km/h (2 Bft) 100,00 %
13.11.2017 14:22 4,9 C 7,8 C 81 % 1012,0 hPa 0,0 l/m 3,9 km/h (1 Bft) W-NW 297 2 min 0,000 mm 0,0 UV-I 179 W/m 1,9 C 4,9 C 11,3 km/h (2 Bft) 100,00 %
13.11.2017 14:24 4,9 C 7,8 C 81 % 1011,9 hPa 0,0 l/m 5,8 km/h (2 Bft) W-NW 299 2 min 0,000 mm 0,0 UV-I 187 W/m 1,9 C 4,9 C 11,3 km/h (2 Bft) 100,00 %
13.11.2017 14:26 4,9 C 7,8 C 81 % 1011,8 hPa 0,0 l/m 5,9 km/h (2 Bft) W-SW 247 2 min 0,000 mm 0,0 UV-I 172 W/m 1,9 C 4,9 C 14,5 km/h (3 Bft) 96,23 %
13.11.2017 14:28 4,9 C 7,8 C 81 % 1011,8 hPa 0,0 l/m 8,7 km/h (2 Bft) W 262 2 min 0,000 mm 0,0 UV-I 180 W/m 1,9 C 2,9 C 14,5 km/h (3 Bft) 100,00 %
13.11.2017 14:30 5,0 C 7,8 C 83 % 1011,8 hPa 0,0 l/m 2,9 km/h (1 Bft) N 355 2 min 0,000 mm 0,0 UV-I 188 W/m 2,4 C 5,0 C 6,4 km/h (2 Bft) 100,00 %
13.11.2017 14:32 5,0 C 7,8 C 82 % 1011,8 hPa 0,0 l/m 3,6 km/h (1 Bft) W-NW 287 2 min 0,000 mm 0,0 UV-I 222 W/m 2,2 C 5,0 C 6,4 km/h (2 Bft) 100,00 %
13.11.2017 14:34 5,1 C 7,8 C 82 % 1011,8 hPa 0,0 l/m 3,2 km/h (1 Bft) W 269 2 min 0,000 mm 0,0 UV-I 268 W/m 2,3 C 5,1 C 11,3 km/h (2 Bft) 100,00 %
13.11.2017 14:36 5,1 C 7,8 C 81 % 1012,0 hPa 0,0 l/m 4,2 km/h (1 Bft) W-SW 250 2 min 0,000 mm 0,0 UV-I 267 W/m 2,1 C 5,1 C 9,7 km/h (2 Bft) 100,00 %
13.11.2017 14:38 5,2 C 7,8 C 82 % 1012,1 hPa 0,0 l/m 3,7 km/h (1 Bft) W 264 2 min 0,000 mm 0,0 UV-I 188 W/m 2,4 C 5,2 C 11,3 km/h (2 Bft) 100,00 %
13.11.2017 14:40 5,2 C 7,8 C 81 % 1012,2 hPa 0,0 l/m 6,5 km/h (2 Bft) W 269 2 min 0,000 mm 0,0 UV-I 168 W/m 2,2 C 5,1 C 14,5 km/h (3 Bft) 98,21 %
13.11.2017 14:42 5,3 C 7,2 C 80 % 1012,4 hPa 0,0 l/m 7,2 km/h (2 Bft) W 275 2 min 0,000 mm 0,0 UV-I 129 W/m 2,1 C 4,6 C 12,9 km/h (3 Bft) 100,00 %
13.11.2017 14:44 5,2 C 7,8 C 81 % 1012,6 hPa 0,0 l/m 4,2 km/h (1 Bft) W-SW 246 0 min 0,000 mm 0,0 UV-I 93 W/m 2,2 C 5,2 C 8,0 km/h (2 Bft) 100,00 %
13.11.2017 14:46 5,2 C 7,8 C 80 % 1012,6 hPa 0,0 l/m 6,8 km/h (2 Bft) NW 306 0 min 0,000 mm 0,0 UV-I 78 W/m 2,0 C 4,9 C 12,9 km/h (3 Bft) 100,00 %
13.11.2017 14:48 5,1 C 7,8 C 81 % 1012,7 hPa 0,0 l/m 10,6 km/h (2 Bft) W 259 0 min 0,000 mm 0,0 UV-I 74 W/m 2,1 C 1,8 C 14,5 km/h (3 Bft) 100,00 %
13.11.2017 14:50 5,1 C 7,8 C 81 % 1012,8 hPa 0,0 l/m 4,9 km/h (1 Bft) W 269 0 min 0,000 mm 0,0 UV-I 68 W/m 2,1 C 5,1 C 11,3 km/h (2 Bft) 100,00 %
13.11.2017 14:52 5,0 C 7,8 C 81 % 1012,8 hPa 0,0 l/m 7,2 km/h (2 Bft) W-SW 242 0 min 0,000 mm 0,0 UV-I 61 W/m 2,0 C 4,3 C 19,3 km/h (3 Bft) 100,00 %
13.11.2017 14:54 4,9 C 7,8 C 81 % 1012,9 hPa 0,0 l/m 7,9 km/h (2 Bft) W-SW 258 0 min 0,000 mm 0,0 UV-I 48 W/m 1,9 C 3,6 C 11,3 km/h (2 Bft) 100,00 %
13.11.2017 14:56 4,9 C 7,8 C 81 % 1013,0 hPa 0,0 l/m 7,4 km/h (2 Bft) W-NW 296 0 min 0,000 mm 0,0 UV-I 43 W/m 1,9 C 4,0 C 11,3 km/h (2 Bft) 97,87 %
13.11.2017 14:58 4,8 C 7,8 C 81 % 1013,0 hPa 0,0 l/m 9,4 km/h (2 Bft) W 262 0 min 0,000 mm 0,0 UV-I 33 W/m 1,8 C 2,3 C 16,1 km/h (3 Bft) 98,00 %
13.11.2017 15:00 4,8 C 7,8 C 82 % 1013,1 hPa 0,0 l/m 12,7 km/h (3 Bft) W-SW 241 0 min 0,077 mm 0,0 UV-I 33 W/m 2,0 C 0,1 C 17,7 km/h (3 Bft) 100,00 %
13.11.2017 15:02 4,8 C 7,8 C 82 % 1013,1 hPa 0,0 l/m 11,0 km/h (2 Bft) W-SW 249 0 min 0,000 mm 0,0 UV-I 30 W/m 2,0 C 1,2 C 16,1 km/h (3 Bft) 95,45 %
13.11.2017 15:04 4,7 C 7,2 C 82 % 1013,1 hPa 0,0 l/m 8,9 km/h (2 Bft) W-SW 246 0 min 0,000 mm 0,0 UV-I 26 W/m 1,9 C 2,6 C 14,5 km/h (3 Bft) 100,00 %
13.11.2017 15:06 4,7 C 7,8 C 82 % 1013,1 hPa 0,0 l/m 10,1 km/h (2 Bft) W 261 0 min 0,000 mm 0,0 UV-I 20 W/m 1,9 C 1,7 C 12,9 km/h (3 Bft) 100,00 %
13.11.2017 15:08 4,7 C 7,2 C 81 % 1013,0 hPa 0,0 l/m 8,1 km/h (2 Bft) W-SW 247 0 min 0,000 mm 0,0 UV-I 18 W/m 1,7 C 3,2 C 12,9 km/h (3 Bft) 98,11 %
13.11.2017 15:10 4,6 C 7,8 C 82 % 1013,1 hPa 0,0 l/m 10,7 km/h (2 Bft) W 281 0 min 0,000 mm 0,0 UV-I 16 W/m 1,8 C 1,1 C 14,5 km/h (3 Bft) 100,00 %
13.11.2017 15:12 4,6 C 7,8 C 82 % 1013,0 hPa 0,0 l/m 9,8 km/h (2 Bft) W-SW 251 0 min 0,000 mm 0,0 UV-I 16 W/m 1,8 C 1,8 C 16,1 km/h (3 Bft) 98,28 %
13.11.2017 15:14 4,6 C 7,8 C 82 % 1013,1 hPa 0,0 l/m 9,4 km/h (2 Bft) W-SW 254 0 min 0,000 mm 0,0 UV-I 19 W/m 1,8 C 2,1 C 14,5 km/h (3 Bft) 100,00 %
13.11.2017 15:16 4,6 C 7,8 C 82 % 1013,2 hPa 0,0 l/m 8,7 km/h (2 Bft) W 271 0 min 0,000 mm 0,0 UV-I 23 W/m 1,8 C 2,6 C 12,9 km/h (3 Bft) 100,00 %
13.11.2017 15:18 4,5 C 7,8 C 83 % 1013,3 hPa 0,0 l/m 6,1 km/h (2 Bft) W 273 0 min 0,000 mm 0,0 UV-I 28 W/m 1,9 C 4,5 C 11,3 km/h (2 Bft) 98,39 %
13.11.2017 15:20 4,6 C 7,8 C 83 % 1013,3 hPa 0,0 l/m 9,0 km/h (2 Bft) W 265 0 min 0,000 mm 0,0 UV-I 30 W/m 2,0 C 2,4 C 16,1 km/h (3 Bft) 97,50 %
13.11.2017 15:22 4,5 C 7,8 C 83 % 1013,4 hPa 0,0 l/m 9,8 km/h (2 Bft) W 266 0 min 0,000 mm 0,0 UV-I 30 W/m 1,9 C 1,7 C 16,1 km/h (3 Bft) 98,00 %
13.11.2017 15:24 4,5 C 7,8 C 83 % 1013,4 hPa 0,0 l/m 8,2 km/h (2 Bft) W-SW 254 0 min 0,000 mm 0,0 UV-I 32 W/m 1,9 C 2,9 C 11,3 km/h (2 Bft) 97,73 %
13.11.2017 15:26 4,5 C 7,8 C 82 % 1013,5 hPa 0,0 l/m 7,7 km/h (2 Bft) W 263 0 min 0,000 mm 0,0 UV-I 32 W/m 1,7 C 3,3 C 16,1 km/h (3 Bft) 96,23 %
13.11.2017 15:28 4,5 C 7,8 C 82 % 1013,5 hPa 0,0 l/m 8,1 km/h (2 Bft) W 279 0 min 0,000 mm 0,0 UV-I 32 W/m 1,7 C 3,0 C 12,9 km/h (3 Bft) 100,00 %
13.11.2017 15:30 4,5 C 7,8 C 82 % 1013,6 hPa 0,0 l/m 7,2 km/h (2 Bft) W-SW 252 0 min 0,000 mm 0,0 UV-I 33 W/m 1,7 C 3,8 C 11,3 km/h (2 Bft) 96,23 %
13.11.2017 15:32 4,5 C 7,8 C 82 % 1013,6 hPa 0,0 l/m 8,0 km/h (2 Bft) W 263 0 min 0,000 mm 0,0 UV-I 32 W/m 1,7 C 3,1 C 12,9 km/h (3 Bft) 97,56 %
13.11.2017 15:34 4,4 C 7,8 C 82 % 1013,7 hPa 0,0 l/m 9,5 km/h (2 Bft) W-SW 250 0 min 0,000 mm 0,0 UV-I 32 W/m 1,6 C 1,8 C 16,1 km/h (3 Bft) 94,00 %
13.11.2017 15:36 4,4 C 7,8 C 82 % 1013,9 hPa 0,0 l/m 10,1 km/h (2 Bft) W 272 0 min 0,000 mm 0,0 UV-I 30 W/m 1,6 C 1,3 C 14,5 km/h (3 Bft) 97,73 %
13.11.2017 15:38 4,4 C 7,8 C 83 % 1014,0 hPa 0,0 l/m 9,4 km/h (2 Bft) W 263 0 min 0,000 mm 0,0 UV-I 28 W/m 1,8 C 1,9 C 14,5 km/h (3 Bft) 96,43 %
13.11.2017 15:40 4,3 C 7,8 C 83 % 1014,0 hPa 0,0 l/m 8,0 km/h (2 Bft) W-SW 238 0 min 0,000 mm 0,0 UV-I 27 W/m 1,7 C 2,9 C 11,3 km/h (2 Bft) 97,37 %
13.11.2017 15:42 4,3 C 7,8 C 83 % 1014,0 hPa 0,0 l/m 8,1 km/h (2 Bft) W-NW 287 0 min 0,000 mm 0,0 UV-I 25 W/m 1,7 C 2,8 C 12,9 km/h (3 Bft) 96,43 %
13.11.2017 15:44 4,3 C 7,2 C 83 % 1014,1 hPa 0,0 l/m 9,3 km/h (2 Bft) W 277 0 min 0,000 mm 0,0 UV-I 23 W/m 1,7 C 1,8 C 16,1 km/h (3 Bft) 97,56 %
13.11.2017 15:46 4,3 C 7,8 C 83 % 1014,1 hPa 0,0 l/m 7,0 km/h (2 Bft) W 271 0 min 0,000 mm 0,0 UV-I 21 W/m 1,7 C 3,8 C 11,3 km/h (2 Bft) 98,11 %
13.11.2017 15:48 4,3 C 7,8 C 83 % 1014,2 hPa 0,0 l/m 7,1 km/h (2 Bft) W-SW 252 0 min 0,000 mm 0,0 UV-I 20 W/m 1,7 C 3,7 C 11,3 km/h (2 Bft) 97,22 %
13.11.2017 15:50 4,3 C 7,2 C 83 % 1014,2 hPa 0,0 l/m 8,4 km/h (2 Bft) W 261 0 min 0,000 mm 0,0 UV-I 19 W/m 1,7 C 2,5 C 16,1 km/h (3 Bft) 96,36 %
13.11.2017 15:52 4,3 C 7,2 C 83 % 1014,3 hPa 0,0 l/m 7,0 km/h (2 Bft) W 268 0 min 0,000 mm 0,0 UV-I 18 W/m 1,7 C 3,8 C 11,3 km/h (2 Bft) 100,00 %
13.11.2017 15:54 4,3 C 7,8 C 84 % 1014,3 hPa 0,0 l/m 6,4 km/h (2 Bft) W 259 0 min 0,000 mm 0,0 UV-I 16 W/m 1,8 C 4,3 C 9,7 km/h (2 Bft) 100,00 %
13.11.2017 15:56 4,3 C 7,2 C 83 % 1014,3 hPa 0,0 l/m 7,3 km/h (2 Bft) W-SW 258 0 min 0,000 mm 0,0 UV-I 15 W/m 1,7 C 3,5 C 11,3 km/h (2 Bft) 100,00 %
13.11.2017 15:58 4,3 C 7,8 C 84 % 1014,3 hPa 0,0 l/m 9,8 km/h (2 Bft) W 261 0 min 0,000 mm 0,0 UV-I 14 W/m 1,8 C 1,4 C 12,9 km/h (3 Bft) 100,00 %
13.11.2017 16:00 4,3 C 7,8 C 83 % 1014,3 hPa 0,0 l/m 7,7 km/h (2 Bft) W-SW 242 0 min 0,025 mm 0,0 UV-I 14 W/m 1,7 C 3,1 C 14,5 km/h (3 Bft) 100,00 %
13.11.2017 16:02 4,3 C 7,2 C 83 % 1014,3 hPa 0,0 l/m 10,3 km/h (2 Bft) W-SW 244 0 min 0,000 mm 0,0 UV-I 14 W/m 1,7 C 1,1 C 14,5 km/h (3 Bft) 100,00 %
13.11.2017 16:04 4,3 C 7,2 C 83 % 1014,4 hPa 0,0 l/m 6,7 km/h (2 Bft) W 269 0 min 0,000 mm 0,0 UV-I 14 W/m 1,7 C 4,0 C 11,3 km/h (2 Bft) 100,00 %
13.11.2017 16:06 4,3 C 7,8 C 83 % 1014,3 hPa 0,0 l/m 7,5 km/h (2 Bft) W-SW 254 0 min 0,000 mm 0,0 UV-I 14 W/m 1,7 C 3,3 C 9,7 km/h (2 Bft) 100,00 %
13.11.2017 16:08 4,2 C 7,8 C 84 % 1014,3 hPa 0,0 l/m 8,2 km/h (2 Bft) W-SW 242 0 min 0,000 mm 0,0 UV-I 13 W/m 1,7 C 2,6 C 12,9 km/h (3 Bft) 100,00 %
13.11.2017 16:10 4,2 C 7,8 C 84 % 1014,4 hPa 0,0 l/m 7,0 km/h (2 Bft) W-SW 254 0 min 0,000 mm 0,0 UV-I 12 W/m 1,7 C 3,7 C 12,9 km/h (3 Bft) 100,00 %
13.11.2017 16:12 4,2 C 7,8 C 84 % 1014,4 hPa 0,0 l/m 10,8 km/h (2 Bft) SW 229 0 min 0,000 mm 0,0 UV-I 11 W/m 1,7 C 0,6 C 16,1 km/h (3 Bft) 98,11 %
13.11.2017 16:14 4,2 C 7,8 C 84 % 1014,5 hPa 0,0 l/m 9,2 km/h (2 Bft) W-SW 257 0 min 0,000 mm 0,0 UV-I 10 W/m 1,7 C 1,8 C 12,9 km/h (3 Bft) 100,00 %
13.11.2017 16:16 4,2 C 7,8 C 84 % 1014,5 hPa 0,0 l/m 9,1 km/h (2 Bft) W-SW 257 0 min 0,000 mm 0,0 UV-I 9 W/m 1,7 C 1,9 C 12,9 km/h (3 Bft) 100,00 %
13.11.2017 16:18 4,2 C 7,8 C 84 % 1014,5 hPa 0,0 l/m 9,5 km/h (2 Bft) W 261 0 min 0,000 mm 0,0 UV-I 7 W/m 1,7 C 1,6 C 16,1 km/h (3 Bft) 98,00 %
13.11.2017 16:20 4,2 C 7,8 C 84 % 1014,5 hPa 0,0 l/m 10,3 km/h (2 Bft) W 263 0 min 0,000 mm 0,0 UV-I 7 W/m 1,7 C 1,0 C 19,3 km/h (3 Bft) 100,00 %
13.11.2017 16:22 4,2 C 7,8 C 84 % 1014,6 hPa 0,0 l/m 9,1 km/h (2 Bft) W-SW 250 0 min 0,000 mm 0,0 UV-I 7 W/m 1,7 C 1,9 C 16,1 km/h (3 Bft) 98,11 %
13.11.2017 16:24 4,2 C 7,8 C 84 % 1014,6 hPa 0,0 l/m 9,4 km/h (2 Bft) W 269 0 min 0,000 mm 0,0 UV-I 5 W/m 1,7 C 1,6 C 12,9 km/h (3 Bft) 100,00 %
13.11.2017 16:26 4,1 C 7,8 C 84 % 1014,6 hPa 0,0 l/m 7,9 km/h (2 Bft) W 259 0 min 0,000 mm 0,0 UV-I 5 W/m 1,6 C 2,7 C 11,3 km/h (2 Bft) 100,00 %
13.11.2017 16:28 4,1 C 7,8 C 84 % 1014,6 hPa 0,0 l/m 9,3 km/h (2 Bft) W 276 0 min 0,000 mm 0,0 UV-I 5 W/m 1,6 C 1,6 C 14,5 km/h (3 Bft) 100,00 %
13.11.2017 16:30 4,1 C 7,8 C 84 % 1014,7 hPa 0,0 l/m 7,6 km/h (2 Bft) W 279 0 min 0,000 mm 0,0 UV-I 5 W/m 1,6 C 3,0 C 11,3 km/h (2 Bft) 98,00 %
13.11.2017 16:32 4,1 C 7,8 C 84 % 1014,7 hPa 0,0 l/m 9,0 km/h (2 Bft) W 275 0 min 0,000 mm 0,0 UV-I 5 W/m 1,6 C 1,8 C 12,9 km/h (3 Bft) 100,00 %
13.11.2017 16:34 4,1 C 7,8 C 84 % 1014,7 hPa 0,0 l/m 9,3 km/h (2 Bft) W 275 0 min 0,000 mm 0,0 UV-I 5 W/m 1,6 C 1,6 C 12,9 km/h (3 Bft) 100,00 %
13.11.2017 16:36 4,1 C 7,8 C 84 % 1014,7 hPa 0,0 l/m 9,4 km/h (2 Bft) W-SW 252 0 min 0,000 mm 0,0 UV-I 5 W/m 1,6 C 1,5 C 12,9 km/h (3 Bft) 100,00 %
13.11.2017 16:38 4,1 C 7,8 C 84 % 1014,7 hPa 0,0 l/m 12,1 km/h (2 Bft) W 261 0 min 0,000 mm 0,0 UV-I 0 W/m 1,6 C -0,3 C 16,1 km/h (3 Bft) 100,00 %
13.11.2017 16:40 4,1 C 7,8 C 84 % 1014,7 hPa 0,0 l/m 7,0 km/h (2 Bft) W 273 0 min 0,000 mm 0,0 UV-I 0 W/m 1,6 C 3,6 C 17,7 km/h (3 Bft) 100,00 %
13.11.2017 16:42 4,1 C 7,8 C 84 % 1014,7 hPa 0,0 l/m 11,0 km/h (2 Bft) W-SW 256 0 min 0,000 mm 0,0 UV-I 0 W/m 1,6 C 0,4 C 17,7 km/h (3 Bft) 100,00 %
13.11.2017 16:44 4,2 C 7,8 C 84 % 1014,7 hPa 0,0 l/m 9,1 km/h (2 Bft) W 261 0 min 0,000 mm 0,0 UV-I 0 W/m 1,7 C 1,9 C 17,7 km/h (3 Bft) 100,00 %
13.11.2017 16:46 4,2 C 7,8 C 84 % 1014,7 hPa 0,0 l/m 11,5 km/h (2 Bft) W-NW 292 0 min 0,000 mm 0,0 UV-I 0 W/m 1,7 C 0,2 C 17,7 km/h (3 Bft) 98,00 %
13.11.2017 16:48 4,2 C 7,8 C 84 % 1014,7 hPa 0,0 l/m 13,7 km/h (3 Bft) W-SW 248 0 min 0,000 mm 0,0 UV-I 0 W/m 1,7 C -1,2 C 20,9 km/h (4 Bft) 97,56 %
13.11.2017 16:50 4,2 C 7,8 C 83 % 1014,7 hPa 0,0 l/m 12,2 km/h (2 Bft) W 261 0 min 0,000 mm 0,0 UV-I 0 W/m 1,6 C -0,3 C 22,5 km/h (4 Bft) 96,43 %
13.11.2017 16:52 4,2 C 7,8 C 84 % 1014,8 hPa 0,0 l/m 9,4 km/h (2 Bft) W-SW 248 0 min 0,000 mm 0,0 UV-I 0 W/m 1,7 C 1,6 C 14,5 km/h (3 Bft) 97,56 %
13.11.2017 16:54 4,2 C 7,2 C 84 % 1014,8 hPa 0,0 l/m 10,3 km/h (2 Bft) W 264 0 min 0,000 mm 0,0 UV-I 0 W/m 1,7 C 1,0 C 14,5 km/h (3 Bft) 96,23 %
13.11.2017 16:56 4,2 C 7,2 C 84 % 1014,8 hPa 0,0 l/m 11,2 km/h (2 Bft) W-NW 303 0 min 0,000 mm 0,0 UV-I 0 W/m 1,7 C 0,4 C 16,1 km/h (3 Bft) 100,00 %
13.11.2017 16:58 4,1 C 7,8 C 84 % 1014,9 hPa 0,0 l/m 6,6 km/h (2 Bft) W 264 0 min 0,000 mm 0,0 UV-I 0 W/m 1,6 C 3,9 C 11,3 km/h (2 Bft) 91,49 %
13.11.2017 17:00 4,1 C 7,8 C 84 % 1014,9 hPa 0,0 l/m 12,3 km/h (3 Bft) W 261 0 min 0,025 mm 0,0 UV-I 0 W/m 1,6 C -0,5 C 16,1 km/h (3 Bft) 98,11 %
13.11.2017 17:02 4,1 C 7,8 C 84 % 1015,0 hPa 0,0 l/m 8,1 km/h (2 Bft) W-SW 256 0 min 0,000 mm 0,0 UV-I 0 W/m 1,6 C 2,6 C 16,1 km/h (3 Bft) 97,37 %
13.11.2017 17:04 4,1 C 7,8 C 84 % 1015,0 hPa 0,0 l/m 12,4 km/h (3 Bft) W 271 0 min 0,000 mm 0,0 UV-I 0 W/m 1,6 C -0,5 C 16,1 km/h (3 Bft) 98,00 %
13.11.2017 17:06 4,1 C 7,8 C 84 % 1015,0 hPa 0,0 l/m 12,3 km/h (3 Bft) W-SW 257 0 min 0,000 mm 0,0 UV-I 0 W/m 1,6 C -0,5 C 16,1 km/h (3 Bft) 97,62 %
13.11.2017 17:08 4,1 C 7,8 C 84 % 1015,1 hPa 0,0 l/m 13,1 km/h (3 Bft) W 276 0 min 0,000 mm 0,0 UV-I 0 W/m 1,6 C -1,0 C 17,7 km/h (3 Bft) 98,08 %
13.11.2017 17:10 4,1 C 7,8 C 83 % 1015,1 hPa 0,0 l/m 16,1 km/h (3 Bft) W 259 0 min 0,000 mm 0,0 UV-I 0 W/m 1,5 C -2,6 C 24,1 km/h (4 Bft) 98,00 %
13.11.2017 17:12 4,1 C 7,8 C 83 % 1015,2 hPa 0,0 l/m 14,3 km/h (3 Bft) W 280 0 min 0,000 mm 0,0 UV-I 0 W/m 1,5 C -1,6 C 20,9 km/h (4 Bft) 97,87 %
13.11.2017 17:14 4,1 C 7,8 C 83 % 1015,1 hPa 0,0 l/m 11,5 km/h (2 Bft) W 271 0 min 0,000 mm 0,0 UV-I 0 W/m 1,5 C 0,0 C 17,7 km/h (3 Bft) 97,44 %
13.11.2017 17:16 4,1 C 7,8 C 84 % 1015,1 hPa 0,0 l/m 9,7 km/h (2 Bft) W 274 0 min 0,000 mm 0,0 UV-I 0 W/m 1,6 C 1,3 C 16,1 km/h (3 Bft) 95,45 %
13.11.2017 17:18 4,1 C 7,8 C 84 % 1015,3 hPa 0,0 l/m 13,5 km/h (3 Bft) W 266 0 min 0,000 mm 0,0 UV-I 0 W/m 1,6 C -1,2 C 20,9 km/h (4 Bft) 96,61 %
13.11.2017 17:20 4,1 C 7,8 C 84 % 1015,3 hPa 0,0 l/m 12,1 km/h (2 Bft) W-SW 255 0 min 0,000 mm 0,0 UV-I 0 W/m 1,6 C -0,3 C 16,1 km/h (3 Bft) 97,92 %
13.11.2017 17:22 4,1 C 7,8 C 84 % 1015,3 hPa 0,0 l/m 12,7 km/h (3 Bft) SW 236 0 min 0,000 mm 0,0 UV-I 0 W/m 1,6 C -0,7 C 17,7 km/h (3 Bft) 95,74 %
13.11.2017 17:24 4,1 C 7,8 C 84 % 1015,3 hPa 0,0 l/m 13,2 km/h (3 Bft) W-SW 250 0 min 0,000 mm 0,0 UV-I 0 W/m 1,6 C -1,0 C 22,5 km/h (4 Bft) 95,12 %
13.11.2017 17:26 4,1 C 7,8 C 84 % 1015,3 hPa 0,0 l/m 11,4 km/h (2 Bft) W 263 0 min 0,000 mm 0,0 UV-I 0 W/m 1,6 C 0,1 C 16,1 km/h (3 Bft) 94,00 %
13.11.2017 17:28 4,1 C 7,8 C 84 % 1015,4 hPa 0,0 l/m 14,5 km/h (3 Bft) W-SW 258 0 min 0,000 mm 0,0 UV-I 0 W/m 1,6 C -1,7 C 22,5 km/h (4 Bft) 90,91 %
13.11.2017 17:30 4,1 C 7,8 C 84 % 1015,4 hPa 0,0 l/m 12,6 km/h (3 Bft) W-SW 249 0 min 0,000 mm 0,0 UV-I 0 W/m 1,6 C -0,7 C 19,3 km/h (3 Bft) 96,23 %
13.11.2017 17:32 4,1 C 7,2 C 84 % 1015,5 hPa 0,0 l/m 13,2 km/h (3 Bft) W 263 0 min 0,000 mm 0,0 UV-I 0 W/m 1,6 C -1,0 C 20,9 km/h (4 Bft) 94,74 %
13.11.2017 17:34 4,1 C 7,8 C 84 % 1015,5 hPa 0,0 l/m 13,2 km/h (3 Bft) W 281 0 min 0,000 mm 0,0 UV-I 0 W/m 1,6 C -1,0 C 20,9 km/h (4 Bft) 95,74 %
13.11.2017 17:36 4,1 C 7,8 C 84 % 1015,5 hPa 0,0 l/m 14,8 km/h (3 Bft) W 273 0 min 0,000 mm 0,0 UV-I 0 W/m 1,6 C -1,9 C 24,1 km/h (4 Bft) 96,00 %
13.11.2017 17:38 4,1 C 7,2 C 84 % 1015,5 hPa 0,0 l/m 12,4 km/h (3 Bft) W 263 0 min 0,000 mm 0,0 UV-I 0 W/m 1,6 C -0,5 C 16,1 km/h (3 Bft) 96,00 %
13.11.2017 17:40 4,1 C 7,2 C 84 % 1015,6 hPa 0,0 l/m 14,0 km/h (3 Bft) W-NW 296 0 min 0,000 mm 0,0 UV-I 0 W/m 1,6 C -1,5 C 22,5 km/h (4 Bft) 94,74 %
13.11.2017 17:42 4,1 C 7,8 C 84 % 1015,7 hPa 0,0 l/m 10,4 km/h (2 Bft) W 273 0 min 0,000 mm 0,0 UV-I 0 W/m 1,6 C 0,8 C 16,1 km/h (3 Bft) 94,64 %
13.11.2017 17:44 4,0 C 7,2 C 84 % 1015,8 hPa 0,0 l/m 9,8 km/h (2 Bft) W 281 0 min 0,000 mm 0,0 UV-I 0 W/m 1,5 C 1,1 C 17,7 km/h (3 Bft) 94,00 %
13.11.2017 17:46 4,0 C 7,2 C 85 % 1015,8 hPa 0,0 l/m 9,1 km/h (2 Bft) W-SW 239 0 min 0,000 mm 0,0 UV-I 0 W/m 1,7 C 1,6 C 14,5 km/h (3 Bft) 95,12 %
13.11.2017 17:48 3,9 C 7,2 C 85 % 1015,9 hPa 0,0 l/m 10,0 km/h (2 Bft) W 260 0 min 0,000 mm 0,0 UV-I 0 W/m 1,6 C 0,9 C 16,1 km/h (3 Bft) 95,45 %
13.11.2017 17:50 3,9 C 7,8 C 85 % 1015,9 hPa 0,0 l/m 11,7 km/h (2 Bft) W 271 0 min 0,000 mm 0,0 UV-I 0 W/m 1,6 C -0,3 C 16,1 km/h (3 Bft) 94,34 %
13.11.2017 17:52 3,9 C 7,8 C 85 % 1015,9 hPa 0,0 l/m 11,1 km/h (2 Bft) W 279 0 min 0,000 mm 0,0 UV-I 0 W/m 1,6 C 0,1 C 19,3 km/h (3 Bft) 95,24 %
13.11.2017 17:54 4,0 C 7,8 C 85 % 1015,9 hPa 0,0 l/m 12,1 km/h (2 Bft) W-SW 253 0 min 0,000 mm 0,0 UV-I 0 W/m 1,7 C -0,5 C 17,7 km/h (3 Bft) 98,08 %
13.11.2017 17:56 4,0 C 7,8 C 85 % 1016,1 hPa 0,0 l/m 11,1 km/h (2 Bft) W 267 0 min 0,000 mm 0,0 UV-I 0 W/m 1,7 C 0,2 C 17,7 km/h (3 Bft) 97,56 %
13.11.2017 17:58 4,0 C 7,2 C 85 % 1016,1 hPa 0,0 l/m 7,7 km/h (2 Bft) W-SW 254 0 min 0,000 mm 0,0 UV-I 0 W/m 1,7 C 2,8 C 12,9 km/h (3 Bft) 98,11 %
13.11.2017 18:00 3,9 C 7,8 C 85 % 1016,2 hPa 0,0 l/m 8,3 km/h (2 Bft) W-SW 257 0 min 0,026 mm 0,0 UV-I 0 W/m 1,6 C 2,2 C 12,9 km/h (3 Bft) 100,00 %
13.11.2017 18:02 3,9 C 7,2 C 85 % 1016,2 hPa 0,0 l/m 10,7 km/h (2 Bft) W 261 0 min 0,000 mm 0,0 UV-I 0 W/m 1,6 C 0,4 C 16,1 km/h (3 Bft) 96,00 %
13.11.2017 18:04 3,9 C 7,2 C 85 % 1016,3 hPa 0,0 l/m 13,9 km/h (3 Bft) W 271 0 min 0,000 mm 0,0 UV-I 0 W/m 1,6 C -1,7 C 17,7 km/h (3 Bft) 98,11 %
13.11.2017 18:06 4,0 C 7,2 C 84 % 1016,3 hPa 0,0 l/m 10,0 km/h (2 Bft) W 259 0 min 0,000 mm 0,0 UV-I 0 W/m 1,5 C 1,0 C 16,1 km/h (3 Bft) 100,00 %
13.11.2017 18:08 4,0 C 7,2 C 84 % 1016,3 hPa 0,0 l/m 9,8 km/h (2 Bft) W 269 0 min 0,000 mm 0,0 UV-I 0 W/m 1,5 C 1,1 C 16,1 km/h (3 Bft) 100,00 %
13.11.2017 18:10 4,0 C 7,2 C 85 % 1016,4 hPa 0,0 l/m 9,3 km/h (2 Bft) W 269 0 min 0,000 mm 0,0 UV-I 0 W/m 1,7 C 1,5 C 14,5 km/h (3 Bft) 100,00 %
13.11.2017 18:12 3,9 C 7,2 C 84 % 1016,4 hPa 0,0 l/m 11,4 km/h (2 Bft) W-SW 247 0 min 0,000 mm 0,0 UV-I 0 W/m 1,4 C -0,1 C 19,3 km/h (3 Bft) 100,00 %
13.11.2017 18:14 3,9 C 7,2 C 84 % 1016,5 hPa 0,0 l/m 10,2 km/h (2 Bft) W-SW 253 0 min 0,000 mm 0,0 UV-I 0 W/m 1,4 C 0,7 C 16,1 km/h (3 Bft) 100,00 %
13.11.2017 18:16 3,9 C 7,2 C 85 % 1016,5 hPa 0,0 l/m 8,6 km/h (2 Bft) W-SW 247 0 min 0,000 mm 0,0 UV-I 0 W/m 1,6 C 1,9 C 12,9 km/h (3 Bft) 100,00 %
13.11.2017 18:18 3,9 C 7,2 C 85 % 1016,5 hPa 0,0 l/m 10,5 km/h (2 Bft) W-NW 300 0 min 0,000 mm 0,0 UV-I 0 W/m 1,6 C 0,5 C 17,7 km/h (3 Bft) 100,00 %
13.11.2017 18:20 3,9 C 7,2 C 85 % 1016,6 hPa 0,0 l/m 6,3 km/h (2 Bft) W-SW 255 0 min 0,000 mm 0,0 UV-I 0 W/m 1,6 C 3,9 C 9,7 km/h (2 Bft) 100,00 %
13.11.2017 18:22 3,9 C 7,2 C 85 % 1016,6 hPa 0,0 l/m 10,0 km/h (2 Bft) W 279 0 min 0,000 mm 0,0 UV-I 0 W/m 1,6 C 0,9 C 12,9 km/h (3 Bft) 98,00 %
13.11.2017 18:24 3,9 C 7,2 C 85 % 1016,7 hPa 0,0 l/m 10,1 km/h (2 Bft) SW 227 0 min 0,000 mm 0,0 UV-I 0 W/m 1,6 C 0,8 C 16,1 km/h (3 Bft) 100,00 %
13.11.2017 18:26 3,9 C 7,2 C 84 % 1016,7 hPa 0,0 l/m 11,2 km/h (2 Bft) W-SW 240 0 min 0,000 mm 0,0 UV-I 0 W/m 1,4 C 0,0 C 19,3 km/h (3 Bft) 100,00 %
13.11.2017 18:28 3,9 C 7,2 C 85 % 1016,8 hPa 0,0 l/m 9,5 km/h (2 Bft) W-SW 257 0 min 0,000 mm 0,0 UV-I 0 W/m 1,6 C 1,2 C 17,7 km/h (3 Bft) 100,00 %
13.11.2017 18:30 3,9 C 7,8 C 84 % 1016,9 hPa 0,0 l/m 12,5 km/h (3 Bft) W-SW 254 0 min 0,000 mm 0,0 UV-I 0 W/m 1,4 C -0,8 C 20,9 km/h (4 Bft) 100,00 %
13.11.2017 18:32 3,9 C 7,2 C 84 % 1016,9 hPa 0,0 l/m 9,2 km/h (2 Bft) W-SW 249 0 min 0,000 mm 0,0 UV-I 0 W/m 1,4 C 1,5 C 12,9 km/h (3 Bft) 96,15 %
13.11.2017 18:34 3,9 C 7,2 C 85 % 1016,8 hPa 0,0 l/m 11,1 km/h (2 Bft) SW 231 0 min 0,000 mm 0,0 UV-I 0 W/m 1,6 C 0,1 C 17,7 km/h (3 Bft) 100,00 %
13.11.2017 18:36 3,9 C 7,2 C 85 % 1016,9 hPa 0,0 l/m 12,4 km/h (3 Bft) SW 225 0 min 0,000 mm 0,0 UV-I 0 W/m 1,6 C -0,8 C 16,1 km/h (3 Bft) 100,00 %
13.11.2017 18:38 3,9 C 7,2 C 84 % 1016,9 hPa 0,0 l/m 12,2 km/h (2 Bft) W-SW 249 0 min 0,000 mm 0,0 UV-I 0 W/m 1,4 C -0,6 C 17,7 km/h (3 Bft) 98,00 %
13.11.2017 18:40 3,9 C 7,2 C 84 % 1017,0 hPa 0,0 l/m 9,9 km/h (2 Bft) W-SW 252 0 min 0,000 mm 0,0 UV-I 0 W/m 1,4 C 0,9 C 14,5 km/h (3 Bft) 98,00 %
13.11.2017 18:42 3,9 C 7,2 C 85 % 1016,9 hPa 0,0 l/m 10,1 km/h (2 Bft) W-SW 247 0 min 0,000 mm 0,0 UV-I 0 W/m 1,6 C 0,8 C 16,1 km/h (3 Bft) 100,00 %
13.11.2017 18:44 3,8 C 7,8 C 85 % 1016,9 hPa 0,0 l/m 7,8 km/h (2 Bft) W-SW 242 0 min 0,000 mm 0,0 UV-I 0 W/m 1,5 C 2,5 C 12,9 km/h (3 Bft) 97,73 %
13.11.2017 18:46 3,8 C 7,2 C 85 % 1017,0 hPa 0,0 l/m 8,1 km/h (2 Bft) W-SW 255 0 min 0,000 mm 0,0 UV-I 0 W/m 1,5 C 2,3 C 11,3 km/h (2 Bft) 97,37 %
13.11.2017 18:48 3,8 C 7,2 C 85 % 1016,9 hPa 0,0 l/m 9,7 km/h (2 Bft) W 260 0 min 0,000 mm 0,0 UV-I 0 W/m 1,5 C 1,0 C 14,5 km/h (3 Bft) 98,11 %
13.11.2017 18:50 3,8 C 7,2 C 86 % 1016,9 hPa 0,0 l/m 7,7 km/h (2 Bft) W 262 0 min 0,000 mm 0,0 UV-I 0 W/m 1,7 C 2,6 C 12,9 km/h (3 Bft) 98,00 %
13.11.2017 18:52 3,7 C 7,2 C 86 % 1016,9 hPa 0,0 l/m 9,9 km/h (2 Bft) W 262 0 min 0,000 mm 0,0 UV-I 0 W/m 1,6 C 0,7 C 16,1 km/h (3 Bft) 97,56 %
13.11.2017 18:54 3,7 C 7,2 C 86 % 1016,9 hPa 0,0 l/m 8,8 km/h (2 Bft) W-SW 248 0 min 0,000 mm 0,0 UV-I 0 W/m 1,6 C 1,6 C 14,5 km/h (3 Bft) 100,00 %
13.11.2017 18:56 3,7 C 7,2 C 86 % 1016,9 hPa 0,0 l/m 10,5 km/h (2 Bft) W-SW 252 0 min 0,000 mm 0,0 UV-I 0 W/m 1,6 C 0,3 C 16,1 km/h (3 Bft) 97,87 %
13.11.2017 18:58 3,7 C 7,2 C 86 % 1016,8 hPa 0,0 l/m 11,4 km/h (2 Bft) W-SW 240 0 min 0,000 mm 0,0 UV-I 0 W/m 1,6 C -0,3 C 16,1 km/h (3 Bft) 100,00 %
13.11.2017 19:00 3,8 C 7,2 C 85 % 1016,8 hPa 0,0 l/m 13,3 km/h (3 Bft) W-SW 257 0 min 0,025 mm 0,0 UV-I 0 W/m 1,5 C -1,4 C 19,3 km/h (3 Bft) 100,00 %
13.11.2017 19:03 3,8 C 7,2 C 85 % 1016,8 hPa 0,0 l/m 10,1 km/h (2 Bft) W 271 0 min 0,000 mm 0,0 UV-I 0 W/m 1,5 C 0,7 C 14,5 km/h (3 Bft) 98,46 %
13.11.2017 19:04 3,7 C 7,2 C 86 % 1016,8 hPa 0,0 l/m 8,1 km/h (2 Bft) W-SW 251 0 min 0,000 mm 0,0 UV-I 0 W/m 1,6 C 2,2 C 11,3 km/h (2 Bft) 100,00 %
13.11.2017 19:06 3,7 C 7,2 C 86 % 1016,9 hPa 0,0 l/m 12,0 km/h (2 Bft) W-SW 258 0 min 0,000 mm 0,0 UV-I 0 W/m 1,6 C -0,7 C 14,5 km/h (3 Bft) 100,00 %
13.11.2017 19:08 3,7 C 7,2 C 86 % 1016,9 hPa 0,0 l/m 9,0 km/h (2 Bft) W-SW 254 0 min 0,000 mm 0,0 UV-I 0 W/m 1,6 C 1,4 C 12,9 km/h (3 Bft) 100,00 %
13.11.2017 19:10 3,7 C 7,2 C 86 % 1016,8 hPa 0,0 l/m 9,5 km/h (2 Bft) W-SW 246 0 min 0,000 mm 0,0 UV-I 0 W/m 1,6 C 1,0 C 12,9 km/h (3 Bft) 100,00 %
13.11.2017 19:12 3,7 C 7,2 C 86 % 1016,8 hPa 0,0 l/m 10,3 km/h (2 Bft) W-SW 256 0 min 0,000 mm 0,0 UV-I 0 W/m 1,6 C 0,4 C 14,5 km/h (3 Bft) 100,00 %
13.11.2017 19:14 3,7 C 7,2 C 86 % 1016,8 hPa 0,0 l/m 9,7 km/h (2 Bft) W-SW 257 0 min 0,000 mm 0,0 UV-I 0 W/m 1,6 C 0,9 C 12,9 km/h (3 Bft) 94,23 %
13.11.2017 19:16 3,7 C 7,2 C 86 % 1016,9 hPa 0,0 l/m 7,7 km/h (2 Bft) W 264 0 min 0,000 mm 0,0 UV-I 0 W/m 1,6 C 2,5 C 11,3 km/h (2 Bft) 100,00 %
13.11.2017 19:18 3,7 C 7,2 C 86 % 1017,0 hPa 0,0 l/m 6,5 km/h (2 Bft) W-SW 253 0 min 0,000 mm 0,0 UV-I 0 W/m 1,6 C 3,6 C 9,7 km/h (2 Bft) 100,00 %
13.11.2017 19:20 3,7 C 7,2 C 86 % 1017,0 hPa 0,0 l/m 7,4 km/h (2 Bft) W 265 0 min 0,000 mm 0,0 UV-I 0 W/m 1,6 C 2,8 C 14,5 km/h (3 Bft) 95,65 %
13.11.2017 19:22 3,7 C 7,2 C 86 % 1017,1 hPa 0,0 l/m 12,8 km/h (3 Bft) W-SW 246 0 min 0,000 mm 0,0 UV-I 0 W/m 1,6 C -1,2 C 22,5 km/h (4 Bft) 100,00 %
13.11.2017 19:24 3,8 C 7,2 C 85 % 1017,1 hPa 0,0 l/m 12,6 km/h (3 Bft) W-NW 285 0 min 0,000 mm 0,0 UV-I 0 W/m 1,5 C -1,0 C 16,1 km/h (3 Bft) 100,00 %
13.11.2017 19:26 3,8 C 7,2 C 86 % 1017,2 hPa 0,0 l/m 7,7 km/h (2 Bft) W 267 0 min 0,000 mm 0,0 UV-I 0 W/m 1,7 C 2,6 C 12,9 km/h (3 Bft) 98,00 %
13.11.2017 19:28 3,8 C 7,2 C 85 % 1017,2 hPa 0,0 l/m 9,9 km/h (2 Bft) W 273 0 min 0,000 mm 0,0 UV-I 0 W/m 1,5 C 0,8 C 19,3 km/h (3 Bft) 94,00 %
13.11.2017 19:30 3,8 C 7,2 C 86 % 1017,3 hPa 0,0 l/m 10,5 km/h (2 Bft) W-SW 252 0 min 0,000 mm 0,0 UV-I 0 W/m 1,7 C 0,4 C 19,3 km/h (3 Bft) 97,56 %
13.11.2017 19:32 3,8 C 7,2 C 86 % 1017,3 hPa 0,0 l/m 10,5 km/h (2 Bft) SW 235 0 min 0,000 mm 0,0 UV-I 0 W/m 1,7 C 0,4 C 14,5 km/h (3 Bft) 98,11 %
13.11.2017 19:34 3,8 C 7,2 C 85 % 1017,3 hPa 0,0 l/m 9,1 km/h (2 Bft) W 261 0 min 0,000 mm 0,0 UV-I 0 W/m 1,5 C 1,4 C 12,9 km/h (3 Bft) 97,37 %
13.11.2017 19:36 3,8 C 7,2 C 86 % 1017,3 hPa 0,0 l/m 9,4 km/h (2 Bft) W 260 0 min 0,000 mm 0,0 UV-I 0 W/m 1,7 C 1,2 C 12,9 km/h (3 Bft) 98,21 %
13.11.2017 19:38 3,8 C 7,2 C 86 % 1017,3 hPa 0,0 l/m 6,8 km/h (2 Bft) W 272 0 min 0,000 mm 0,0 UV-I 0 W/m 1,7 C 3,4 C 12,9 km/h (3 Bft) 97,87 %
13.11.2017 19:40 3,7 C 7,2 C 86 % 1017,4 hPa 0,0 l/m 7,9 km/h (2 Bft) W-SW 246 0 min 0,000 mm 0,0 UV-I 0 W/m 1,6 C 2,3 C 12,9 km/h (3 Bft) 97,37 %
13.11.2017 19:43 3,7 C 7,2 C 86 % 1017,5 hPa 0,0 l/m 5,9 km/h (2 Bft) W 265 0 min 0,000 mm 0,0 UV-I 0 W/m 1,6 C 3,7 C 11,3 km/h (2 Bft) 95,95 %
13.11.2017 19:44 3,7 C 7,2 C 86 % 1017,5 hPa 0,0 l/m 5,0 km/h (1 Bft) W-NW 286 0 min 0,000 mm 0,0 UV-I 0 W/m 1,6 C 3,7 C 6,4 km/h (2 Bft) 100,00 %
13.11.2017 19:46 3,7 C 7,2 C 86 % 1017,6 hPa 0,0 l/m 3,4 km/h (1 Bft) W-NW 286 0 min 0,000 mm 0,0 UV-I 0 W/m 1,6 C 3,7 C 4,8 km/h (1 Bft) 96,00 %
13.11.2017 19:48 3,7 C 7,2 C 87 % 1017,6 hPa 0,0 l/m 4,3 km/h (1 Bft) W 279 0 min 0,000 mm 0,0 UV-I 0 W/m 1,7 C 3,7 C 6,4 km/h (2 Bft) 100,00 %
13.11.2017 19:50 3,7 C 7,2 C 87 % 1017,6 hPa 0,0 l/m 5,5 km/h (1 Bft) W 273 0 min 0,000 mm 0,0 UV-I 0 W/m 1,7 C 3,7 C 6,4 km/h (2 Bft) 96,88 %
13.11.2017 19:52 3,7 C 7,2 C 86 % 1017,6 hPa 0,0 l/m 4,7 km/h (1 Bft) W 270 0 min 0,000 mm 0,0 UV-I 0 W/m 1,6 C 3,7 C 8,0 km/h (2 Bft) 97,92 %
13.11.2017 19:54 3,7 C 7,2 C 86 % 1017,6 hPa 0,0 l/m 8,4 km/h (2 Bft) W-SW 250 0 min 0,000 mm 0,0 UV-I 0 W/m 1,6 C 1,9 C 12,9 km/h (3 Bft) 100,00 %
13.11.2017 19:56 3,8 C 7,2 C 86 % 1017,7 hPa 0,0 l/m 7,5 km/h (2 Bft) W 269 0 min 0,000 mm 0,0 UV-I 0 W/m 1,7 C 2,8 C 12,9 km/h (3 Bft) 95,12 %
13.11.2017 19:58 3,8 C 7,2 C 86 % 1017,7 hPa 0,0 l/m 5,4 km/h (1 Bft) W-SW 257 0 min 0,000 mm 0,0 UV-I 0 W/m 1,7 C 3,8 C 9,7 km/h (2 Bft) 98,00 %
13.11.2017 20:00 3,7 C 7,2 C 86 % 1017,6 hPa 0,0 l/m 5,4 km/h (1 Bft) W 259 0 min 0,000 mm 0,0 UV-I 0 W/m 1,6 C 3,7 C 9,7 km/h (2 Bft) 98,00 %
13.11.2017 20:02 3,7 C 7,2 C 86 % 1017,7 hPa 0,0 l/m 8,0 km/h (2 Bft) W-SW 254 0 min 0,000 mm 0,0 UV-I 0 W/m 1,6 C 2,2 C 14,5 km/h (3 Bft) 96,00 %
13.11.2017 20:04 3,7 C 7,2 C 86 % 1017,7 hPa 0,0 l/m 7,9 km/h (2 Bft) W-SW 249 0 min 0,000 mm 0,0 UV-I 0 W/m 1,6 C 2,3 C 14,5 km/h (3 Bft) 100,00 %
13.11.2017 20:06 3,7 C 7,2 C 86 % 1017,8 hPa 0,0 l/m 8,1 km/h (2 Bft) W-SW 253 0 min 0,000 mm 0,0 UV-I 0 W/m 1,6 C 2,2 C 12,9 km/h (3 Bft) 100,00 %
13.11.2017 20:08 3,7 C 7,2 C 86 % 1017,8 hPa 0,0 l/m 6,5 km/h (2 Bft) W-SW 242 0 min 0,000 mm 0,0 UV-I 0 W/m 1,6 C 3,6 C 9,7 km/h (2 Bft) 98,11 %
13.11.2017 20:10 3,7 C 7,2 C 86 % 1017,7 hPa 0,0 l/m 8,3 km/h (2 Bft) W-SW 244 0 min 0,000 mm 0,0 UV-I 0 W/m 1,6 C 2,0 C 11,3 km/h (2 Bft) 100,00 %
13.11.2017 20:12 3,7 C 7,2 C 86 % 1017,7 hPa 0,0 l/m 8,0 km/h (2 Bft) SW 229 0 min 0,000 mm 0,0 UV-I 0 W/m 1,6 C 2,2 C 12,9 km/h (3 Bft) 97,87 %
13.11.2017 20:14 3,7 C 7,2 C 86 % 1017,8 hPa 0,0 l/m 6,5 km/h (2 Bft) W-SW 255 0 min 0,000 mm 0,0 UV-I 0 W/m 1,6 C 3,6 C 11,3 km/h (2 Bft) 100,00 %
13.11.2017 20:16 3,7 C 7,2 C 86 % 1017,8 hPa 0,0 l/m 5,4 km/h (1 Bft) W 259 0 min 0,000 mm 0,0 UV-I 0 W/m 1,6 C 3,7 C 11,3 km/h (2 Bft) 98,11 %
13.11.2017 20:18 3,7 C 7,2 C 86 % 1017,9 hPa 0,0 l/m 5,6 km/h (1 Bft) W 261 0 min 0,000 mm 0,0 UV-I 0 W/m 1,6 C 3,7 C 9,7 km/h (2 Bft) 97,56 %
13.11.2017 20:20 3,7 C 7,2 C 86 % 1017,9 hPa 0,0 l/m 7,1 km/h (2 Bft) W 264 0 min 0,000 mm 0,0 UV-I 0 W/m 1,6 C 3,1 C 12,9 km/h (3 Bft) 100,00 %
13.11.2017 20:22 3,7 C 7,2 C 86 % 1018,0 hPa 0,0 l/m 6,6 km/h (2 Bft) W 264 0 min 0,000 mm 0,0 UV-I 0 W/m 1,6 C 3,5 C 11,3 km/h (2 Bft) 98,08 %
13.11.2017 20:24 3,7 C 7,2 C 87 % 1018,0 hPa 0,0 l/m 6,1 km/h (2 Bft) W-SW 238 0 min 0,000 mm 0,0 UV-I 0 W/m 1,7 C 3,7 C 11,3 km/h (2 Bft) 100,00 %
13.11.2017 20:26 3,7 C 7,2 C 86 % 1018,0 hPa 0,0 l/m 6,1 km/h (2 Bft) W 270 0 min 0,000 mm 0,0 UV-I 0 W/m 1,6 C 3,7 C 12,9 km/h (3 Bft) 100,00 %
13.11.2017 20:28 3,7 C 7,2 C 86 % 1018,0 hPa 0,0 l/m 8,9 km/h (2 Bft) W-SW 244 0 min 0,000 mm 0,0 UV-I 0 W/m 1,6 C 1,5 C 14,5 km/h (3 Bft) 100,00 %
13.11.2017 20:30 3,7 C 7,2 C 87 % 1018,0 hPa 0,0 l/m 8,7 km/h (2 Bft) W-SW 246 0 min 0,000 mm 0,0 UV-I 0 W/m 1,7 C 1,6 C 12,9 km/h (3 Bft) 100,00 %
13.11.2017 20:32 3,7 C 7,2 C 86 % 1018,0 hPa 0,0 l/m 6,5 km/h (2 Bft) W-SW 255 0 min 0,000 mm 0,0 UV-I 0 W/m 1,6 C 3,6 C 12,9 km/h (3 Bft) 100,00 %
13.11.2017 20:34 3,7 C 7,2 C 87 % 1018,1 hPa 0,0 l/m 8,5 km/h (2 Bft) W 261 0 min 0,000 mm 0,0 UV-I 0 W/m 1,7 C 1,8 C 14,5 km/h (3 Bft) 95,24 %
13.11.2017 20:36 3,7 C 7,2 C 87 % 1018,1 hPa 0,0 l/m 7,8 km/h (2 Bft) W-SW 245 0 min 0,000 mm 0,0 UV-I 0 W/m 1,7 C 2,4 C 12,9 km/h (3 Bft) 98,00 %
13.11.2017 20:38 3,7 C 7,2 C 87 % 1018,2 hPa 0,0 l/m 5,8 km/h (2 Bft) W 265 0 min 0,000 mm 0,0 UV-I 0 W/m 1,7 C 3,7 C 8,0 km/h (2 Bft) 97,87 %
13.11.2017 20:40 3,6 C 7,2 C 87 % 1018,2 hPa 0,0 l/m 6,0 km/h (2 Bft) W-SW 258 0 min 0,000 mm 0,0 UV-I 0 W/m 1,6 C 3,6 C 11,3 km/h (2 Bft) 97,87 %
13.11.2017 20:42 3,6 C 7,2 C 87 % 1018,3 hPa 0,0 l/m 7,4 km/h (2 Bft) W-SW 254 0 min 0,000 mm 0,0 UV-I 0 W/m 1,6 C 2,7 C 12,9 km/h (3 Bft) 97,56 %
13.11.2017 20:44 3,6 C 7,2 C 87 % 1018,3 hPa 0,0 l/m 5,2 km/h (1 Bft) W-SW 252 0 min 0,000 mm 0,0 UV-I 0 W/m 1,6 C 3,6 C 9,7 km/h (2 Bft) 97,37 %
13.11.2017 20:46 3,6 C 7,2 C 87 % 1018,3 hPa 0,0 l/m 5,9 km/h (2 Bft) W 271 0 min 0,000 mm 0,0 UV-I 0 W/m 1,6 C 3,6 C 11,3 km/h (2 Bft) 95,16 %
13.11.2017 20:48 3,6 C 7,2 C 87 % 1018,3 hPa 0,0 l/m 8,3 km/h (2 Bft) W 272 0 min 0,000 mm 0,0 UV-I 0 W/m 1,6 C 1,9 C 11,3 km/h (2 Bft) 92,00 %
13.11.2017 20:50 3,6 C 7,2 C 87 % 1018,3 hPa 0,0 l/m 7,3 km/h (2 Bft) W-SW 238 0 min 0,000 mm 0,0 UV-I 0 W/m 1,6 C 2,8 C 12,9 km/h (3 Bft) 97,56 %
13.11.2017 20:52 3,6 C 7,2 C 87 % 1018,3 hPa 0,0 l/m 6,2 km/h (2 Bft) W 261 0 min 0,000 mm 0,0 UV-I 0 W/m 1,6 C 3,6 C 9,7 km/h (2 Bft) 95,74 %
13.11.2017 20:54 3,6 C 7,2 C 87 % 1018,3 hPa 0,0 l/m 5,7 km/h (1 Bft) W-SW 257 0 min 0,000 mm 0,0 UV-I 0 W/m 1,6 C 3,6 C 8,0 km/h (2 Bft) 98,00 %
13.11.2017 20:56 3,6 C 7,2 C 87 % 1018,3 hPa 0,0 l/m 11,3 km/h (2 Bft) W-SW 253 0 min 0,000 mm 0,0 UV-I 0 W/m 1,6 C -0,4 C 16,1 km/h (3 Bft) 97,56 %
13.11.2017 20:58 3,6 C 7,2 C 87 % 1018,4 hPa 0,0 l/m 8,3 km/h (2 Bft) W 269 0 min 0,000 mm 0,0 UV-I 0 W/m 1,6 C 1,9 C 11,3 km/h (2 Bft) 97,87 %
13.11.2017 21:00 3,6 C 7,2 C 87 % 1018,4 hPa 0,0 l/m 9,9 km/h (2 Bft) W-SW 257 0 min 0,000 mm 0,0 UV-I 0 W/m 1,6 C 0,6 C 14,5 km/h (3 Bft) 98,00 %
13.11.2017 21:02 3,6 C 7,2 C 87 % 1018,4 hPa 0,0 l/m 9,7 km/h (2 Bft) W 259 0 min 0,000 mm 0,0 UV-I 0 W/m 1,6 C 0,8 C 14,5 km/h (3 Bft) 98,00 %
13.11.2017 21:04 3,6 C 7,2 C 87 % 1018,4 hPa 0,0 l/m 6,2 km/h (2 Bft) W-NW 287 0 min 0,000 mm 0,0 UV-I 0 W/m 1,6 C 3,6 C 11,3 km/h (2 Bft) 97,37 %
13.11.2017 21:06 3,6 C 7,2 C 87 % 1018,4 hPa 0,0 l/m 8,5 km/h (2 Bft) W-SW 248 0 min 0,000 mm 0,0 UV-I 0 W/m 1,6 C 1,7 C 14,5 km/h (3 Bft) 97,87 %
13.11.2017 21:08 3,6 C 7,2 C 87 % 1018,4 hPa 0,0 l/m 6,9 km/h (2 Bft) W 267 0 min 0,000 mm 0,0 UV-I 0 W/m 1,6 C 3,1 C 11,3 km/h (2 Bft) 96,00 %
13.11.2017 21:10 3,5 C 7,2 C 87 % 1018,4 hPa 0,0 l/m 7,4 km/h (2 Bft) W 269 0 min 0,000 mm 0,0 UV-I 0 W/m 1,5 C 2,6 C 12,9 km/h (3 Bft) 98,00 %
13.11.2017 21:12 3,5 C 7,2 C 87 % 1018,5 hPa 0,0 l/m 6,0 km/h (2 Bft) W 276 0 min 0,000 mm 0,0 UV-I 0 W/m 1,5 C 3,5 C 11,3 km/h (2 Bft) 96,00 %
13.11.2017 21:14 3,5 C 7,2 C 87 % 1018,5 hPa 0,0 l/m 8,4 km/h (2 Bft) W-SW 248 0 min 0,000 mm 0,0 UV-I 0 W/m 1,5 C 1,7 C 14,5 km/h (3 Bft) 100,00 %
13.11.2017 21:16 3,5 C 7,2 C 87 % 1018,5 hPa 0,0 l/m 7,4 km/h (2 Bft) W-SW 247 0 min 0,000 mm 0,0 UV-I 0 W/m 1,5 C 2,6 C 11,3 km/h (2 Bft) 97,73 %
13.11.2017 21:18 3,5 C 7,2 C 87 % 1018,5 hPa 0,0 l/m 9,5 km/h (2 Bft) W 259 0 min 0,000 mm 0,0 UV-I 0 W/m 1,5 C 0,8 C 14,5 km/h (3 Bft) 94,34 %
13.11.2017 21:20 3,5 C 7,2 C 87 % 1018,5 hPa 0,0 l/m 9,4 km/h (2 Bft) W-SW 258 0 min 0,000 mm 0,0 UV-I 0 W/m 1,5 C 0,9 C 12,9 km/h (3 Bft) 98,04 %
13.11.2017 21:22 3,6 C 7,2 C 87 % 1018,6 hPa 0,0 l/m 9,0 km/h (2 Bft) W 264 0 min 0,000 mm 0,0 UV-I 0 W/m 1,6 C 1,3 C 14,5 km/h (3 Bft) 97,37 %
13.11.2017 21:24 3,5 C 7,2 C 87 % 1018,6 hPa 0,0 l/m 9,3 km/h (2 Bft) W 263 0 min 0,000 mm 0,0 UV-I 0 W/m 1,5 C 1,0 C 14,5 km/h (3 Bft) 97,87 %
13.11.2017 21:26 3,5 C 7,2 C 88 % 1018,5 hPa 0,0 l/m 8,1 km/h (2 Bft) W 264 0 min 0,000 mm 0,0 UV-I 0 W/m 1,7 C 1,9 C 12,9 km/h (3 Bft) 98,00 %
13.11.2017 21:28 3,5 C 7,2 C 87 % 1018,7 hPa 0,0 l/m 8,7 km/h (2 Bft) W-SW 257 0 min 0,000 mm 0,0 UV-I 0 W/m 1,5 C 1,4 C 16,1 km/h (3 Bft) 96,23 %
13.11.2017 21:30 3,5 C 7,2 C 87 % 1018,7 hPa 0,0 l/m 5,9 km/h (2 Bft) W 265 0 min 0,000 mm 0,0 UV-I 0 W/m 1,5 C 3,5 C 11,3 km/h (2 Bft) 97,73 %
13.11.2017 21:33 3,5 C 7,2 C 87 % 1018,7 hPa 0,0 l/m 9,5 km/h (2 Bft) W-SW 242 0 min 0,000 mm 0,0 UV-I 0 W/m 1,5 C 0,8 C 14,5 km/h (3 Bft) 95,77 %
13.11.2017 21:34 3,6 C 7,2 C 87 % 1018,7 hPa 0,0 l/m 10,2 km/h (2 Bft) W 268 0 min 0,000 mm 0,0 UV-I 0 W/m 1,6 C 0,4 C 14,5 km/h (3 Bft) 92,31 %
13.11.2017 21:36 3,6 C 7,2 C 87 % 1018,8 hPa 0,0 l/m 9,1 km/h (2 Bft) W-SW 248 0 min 0,000 mm 0,0 UV-I 0 W/m 1,6 C 1,2 C 12,9 km/h (3 Bft) 95,74 %
13.11.2017 21:38 3,6 C 7,2 C 87 % 1018,7 hPa 0,0 l/m 7,9 km/h (2 Bft) SW 219 0 min 0,000 mm 0,0 UV-I 0 W/m 1,6 C 2,2 C 14,5 km/h (3 Bft) 97,37 %
13.11.2017 21:40 3,5 C 7,2 C 87 % 1018,7 hPa 0,0 l/m 10,1 km/h (2 Bft) W-SW 239 0 min 0,000 mm 0,0 UV-I 0 W/m 1,5 C 0,3 C 16,1 km/h (3 Bft) 92,68 %
13.11.2017 21:42 3,6 C 7,2 C 87 % 1018,7 hPa 0,0 l/m 9,4 km/h (2 Bft) W-SW 248 0 min 0,000 mm 0,0 UV-I 0 W/m 1,6 C 1,0 C 17,7 km/h (3 Bft) 96,23 %
13.11.2017 21:44 3,6 C 7,2 C 87 % 1018,7 hPa 0,0 l/m 12,1 km/h (2 Bft) W-SW 255 0 min 0,000 mm 0,0 UV-I 0 W/m 1,6 C -0,9 C 16,1 km/h (3 Bft) 97,62 %
13.11.2017 21:46 3,6 C 7,2 C 87 % 1018,7 hPa 0,0 l/m 11,0 km/h (2 Bft) W-NW 284 0 min 0,000 mm 0,0 UV-I 0 W/m 1,6 C -0,2 C 16,1 km/h (3 Bft) 96,30 %
13.11.2017 21:48 3,6 C 7,2 C 87 % 1018,8 hPa 0,0 l/m 8,4 km/h (2 Bft) W 272 0 min 0,000 mm 0,0 UV-I 0 W/m 1,6 C 1,8 C 11,3 km/h (2 Bft) 95,24 %
13.11.2017 21:50 3,5 C 7,2 C 87 % 1018,8 hPa 0,0 l/m 10,0 km/h (2 Bft) W-SW 257 0 min 0,000 mm 0,0 UV-I 0 W/m 1,5 C 0,4 C 16,1 km/h (3 Bft) 95,74 %
13.11.2017 21:52 3,4 C 7,2 C 87 % 1018,9 hPa 0,0 l/m 10,7 km/h (2 Bft) W-SW 250 0 min 0,000 mm 0,0 UV-I 0 W/m 1,4 C -0,2 C 14,5 km/h (3 Bft) 96,23 %
13.11.2017 21:54 3,4 C 7,2 C 87 % 1018,9 hPa 0,0 l/m 9,7 km/h (2 Bft) W-SW 254 0 min 0,000 mm 0,0 UV-I 0 W/m 1,4 C 0,5 C 14,5 km/h (3 Bft) 97,73 %
13.11.2017 21:56 3,4 C 7,2 C 87 % 1018,9 hPa 0,0 l/m 10,8 km/h (2 Bft) W-SW 251 0 min 0,000 mm 0,0 UV-I 0 W/m 1,4 C -0,3 C 16,1 km/h (3 Bft) 98,00 %
13.11.2017 21:58 3,4 C 7,2 C 87 % 1019,0 hPa 0,0 l/m 10,1 km/h (2 Bft) W 259 0 min 0,000 mm 0,0 UV-I 0 W/m 1,4 C 0,2 C 12,9 km/h (3 Bft) 97,73 %
13.11.2017 22:00 3,4 C 7,2 C 87 % 1018,9 hPa 0,0 l/m 11,0 km/h (2 Bft) W-SW 253 0 min 0,000 mm 0,0 UV-I 0 W/m 1,4 C -0,4 C 16,1 km/h (3 Bft) 97,87 %
13.11.2017 22:02 3,4 C 7,2 C 88 % 1018,9 hPa 0,0 l/m 10,7 km/h (2 Bft) W 266 0 min 0,000 mm 0,0 UV-I 0 W/m 1,6 C -0,2 C 19,3 km/h (3 Bft) 97,73 %
13.11.2017 22:04 3,4 C 7,2 C 88 % 1018,9 hPa 0,0 l/m 7,0 km/h (2 Bft) W 263 0 min 0,000 mm 0,0 UV-I 0 W/m 1,6 C 2,8 C 12,9 km/h (3 Bft) 97,87 %
13.11.2017 22:06 3,4 C 7,2 C 88 % 1019,0 hPa 0,0 l/m 12,1 km/h (2 Bft) W 264 0 min 0,000 mm 0,0 UV-I 0 W/m 1,6 C -1,2 C 16,1 km/h (3 Bft) 94,34 %
13.11.2017 22:08 3,4 C 7,2 C 88 % 1019,0 hPa 0,0 l/m 10,2 km/h (2 Bft) W 280 0 min 0,000 mm 0,0 UV-I 0 W/m 1,6 C 0,2 C 12,9 km/h (3 Bft) 100,00 %
13.11.2017 22:10 3,4 C 7,2 C 88 % 1019,1 hPa 0,0 l/m 8,2 km/h (2 Bft) W-SW 242 0 min 0,000 mm 0,0 UV-I 0 W/m 1,6 C 1,7 C 12,9 km/h (3 Bft) 100,00 %
13.11.2017 22:12 3,3 C 7,2 C 88 % 1019,0 hPa 0,0 l/m 9,7 km/h (2 Bft) W-SW 252 0 min 0,000 mm 0,0 UV-I 0 W/m 1,5 C 0,4 C 14,5 km/h (3 Bft) 98,11 %
13.11.2017 22:14 3,3 C 7,2 C 88 % 1019,0 hPa 0,0 l/m 10,4 km/h (2 Bft) W-SW 242 0 min 0,000 mm 0,0 UV-I 0 W/m 1,5 C -0,1 C 17,7 km/h (3 Bft) 100,00 %
13.11.2017 22:16 3,3 C 7,2 C 88 % 1019,1 hPa 0,0 l/m 8,7 km/h (2 Bft) W 262 0 min 0,000 mm 0,0 UV-I 0 W/m 1,5 C 1,2 C 12,9 km/h (3 Bft) 100,00 %
13.11.2017 22:18 3,3 C 7,2 C 88 % 1019,1 hPa 0,0 l/m 9,2 km/h (2 Bft) W 263 0 min 0,000 mm 0,0 UV-I 0 W/m 1,5 C 0,8 C 14,5 km/h (3 Bft) 97,87 %
13.11.2017 22:20 3,3 C 7,2 C 88 % 1019,1 hPa 0,0 l/m 7,9 km/h (2 Bft) W-SW 255 0 min 0,000 mm 0,0 UV-I 0 W/m 1,5 C 1,9 C 11,3 km/h (2 Bft) 100,00 %
13.11.2017 22:22 3,3 C 7,2 C 88 % 1019,2 hPa 0,0 l/m 9,2 km/h (2 Bft) W-SW 254 0 min 0,000 mm 0,0 UV-I 0 W/m 1,5 C 0,8 C 12,9 km/h (3 Bft) 100,00 %
13.11.2017 22:24 3,3 C 7,2 C 88 % 1019,2 hPa 0,0 l/m 9,1 km/h (2 Bft) W-SW 254 0 min 0,000 mm 0,0 UV-I 0 W/m 1,5 C 0,9 C 16,1 km/h (3 Bft) 100,00 %
13.11.2017 22:26 3,3 C 7,2 C 88 % 1019,2 hPa 0,0 l/m 9,4 km/h (2 Bft) W-SW 250 0 min 0,000 mm 0,0 UV-I 0 W/m 1,5 C 0,7 C 12,9 km/h (3 Bft) 95,12 %
13.11.2017 22:30 3,3 C 7,2 C 88 % 1019,3 hPa 0,0 l/m 9,7 km/h (2 Bft) W-SW 247 0 min 0,000 mm 0,0 UV-I 0 W/m 1,5 C 0,4 C 16,1 km/h (3 Bft) 98,25 %
13.11.2017 22:35 3,2 C 7,2 C 88 % 1019,3 hPa 0,0 l/m 9,7 km/h (2 Bft) W 270 0 min 0,000 mm 0,0 UV-I 0 W/m 1,4 C 0,3 C 12,9 km/h (3 Bft) 96,49 %
13.11.2017 22:36 3,2 C 7,2 C 88 % 1019,2 hPa 0,0 l/m 10,9 km/h (2 Bft) W-SW 246 0 min 0,000 mm 0,0 UV-I 0 W/m 1,4 C -0,6 C 12,9 km/h (3 Bft) 100,00 %
13.11.2017 22:38 3,2 C 7,2 C 88 % 1019,3 hPa 0,0 l/m 9,5 km/h (2 Bft) W 273 0 min 0,000 mm 0,0 UV-I 0 W/m 1,4 C 0,5 C 14,5 km/h (3 Bft) 100,00 %
13.11.2017 22:40 3,2 C 7,2 C 88 % 1019,3 hPa 0,0 l/m 8,0 km/h (2 Bft) W 263 0 min 0,000 mm 0,0 UV-I 0 W/m 1,4 C 1,7 C 12,9 km/h (3 Bft) 100,00 %
13.11.2017 22:42 3,2 C 7,2 C 89 % 1019,3 hPa 0,0 l/m 9,5 km/h (2 Bft) W 269 0 min 0,000 mm 0,0 UV-I 0 W/m 1,6 C 0,5 C 11,3 km/h (2 Bft) 100,00 %
13.11.2017 22:44 3,2 C 7,2 C 89 % 1019,4 hPa 0,0 l/m 8,2 km/h (2 Bft) W 266 0 min 0,000 mm 0,0 UV-I 0 W/m 1,6 C 1,5 C 11,3 km/h (2 Bft) 100,00 %
13.11.2017 22:46 3,1 C 7,2 C 89 % 1019,4 hPa 0,0 l/m 9,2 km/h (2 Bft) SW 234 0 min 0,000 mm 0,0 UV-I 0 W/m 1,5 C 0,6 C 14,5 km/h (3 Bft) 100,00 %
13.11.2017 22:48 3,1 C 7,2 C 89 % 1019,3 hPa 0,0 l/m 7,7 km/h (2 Bft) W 263 0 min 0,000 mm 0,0 UV-I 0 W/m 1,5 C 1,9 C 12,9 km/h (3 Bft) 100,00 %
13.11.2017 22:50 3,1 C 7,2 C 89 % 1019,3 hPa 0,0 l/m 7,3 km/h (2 Bft) W 263 0 min 0,000 mm 0,0 UV-I 0 W/m 1,5 C 2,2 C 11,3 km/h (2 Bft) 100,00 %
13.11.2017 22:52 3,0 C 7,2 C 89 % 1019,3 hPa 0,0 l/m 9,5 km/h (2 Bft) W-SW 255 0 min 0,000 mm 0,0 UV-I 0 W/m 1,4 C 0,2 C 14,5 km/h (3 Bft) 100,00 %
13.11.2017 22:54 2,9 C 7,2 C 89 % 1019,4 hPa 0,0 l/m 6,8 km/h (2 Bft) W-SW 242 0 min 0,000 mm 0,0 UV-I 0 W/m 1,3 C 2,5 C 11,3 km/h (2 Bft) 97,14 %
13.11.2017 22:56 2,9 C 7,2 C 89 % 1019,4 hPa 0,0 l/m 7,6 km/h (2 Bft) W-SW 254 0 min 0,000 mm 0,0 UV-I 0 W/m 1,3 C 1,8 C 11,3 km/h (2 Bft) 100,00 %
13.11.2017 22:58 2,8 C 7,2 C 89 % 1019,5 hPa 0,0 l/m 7,1 km/h (2 Bft) W 260 0 min 0,000 mm 0,0 UV-I 0 W/m 1,2 C 2,1 C 11,3 km/h (2 Bft) 100,00 %
13.11.2017 23:00 2,8 C 7,2 C 89 % 1019,5 hPa 0,0 l/m 6,1 km/h (2 Bft) W-SW 240 0 min 0,000 mm 0,0 UV-I 0 W/m 1,2 C 2,8 C 11,3 km/h (2 Bft) 100,00 %
13.11.2017 23:02 2,8 C 7,2 C 89 % 1019,5 hPa 0,0 l/m 7,3 km/h (2 Bft) W-SW 254 0 min 0,000 mm 0,0 UV-I 0 W/m 1,2 C 1,9 C 11,3 km/h (2 Bft) 100,00 %
13.11.2017 23:04 2,8 C 7,2 C 89 % 1019,5 hPa 0,0 l/m 7,9 km/h (2 Bft) W-SW 248 0 min 0,000 mm 0,0 UV-I 0 W/m 1,2 C 1,4 C 11,3 km/h (2 Bft) 94,74 %
13.11.2017 23:06 2,8 C 7,2 C 89 % 1019,6 hPa 0,0 l/m 7,9 km/h (2 Bft) W-SW 244 0 min 0,000 mm 0,0 UV-I 0 W/m 1,2 C 1,4 C 11,3 km/h (2 Bft) 100,00 %
13.11.2017 23:08 2,8 C 7,2 C 89 % 1019,5 hPa 0,0 l/m 7,3 km/h (2 Bft) W-SW 246 0 min 0,000 mm 0,0 UV-I 0 W/m 1,2 C 1,9 C 11,3 km/h (2 Bft) 97,87 %
13.11.2017 23:10 2,8 C 7,2 C 89 % 1019,6 hPa 0,0 l/m 6,0 km/h (2 Bft) W-SW 257 0 min 0,000 mm 0,0 UV-I 0 W/m 1,2 C 2,8 C 9,7 km/h (2 Bft) 100,00 %
13.11.2017 23:12 2,8 C 7,2 C 89 % 1019,6 hPa 0,0 l/m 7,6 km/h (2 Bft) SW 235 0 min 0,000 mm 0,0 UV-I 0 W/m 1,2 C 1,7 C 9,7 km/h (2 Bft) 97,37 %
13.11.2017 23:14 2,8 C 7,2 C 89 % 1019,7 hPa 0,0 l/m 6,9 km/h (2 Bft) W-SW 254 0 min 0,000 mm 0,0 UV-I 0 W/m 1,2 C 2,3 C 11,3 km/h (2 Bft) 100,00 %
13.11.2017 23:16 2,8 C 7,2 C 89 % 1019,7 hPa 0,0 l/m 5,9 km/h (2 Bft) W-SW 248 0 min 0,000 mm 0,0 UV-I 0 W/m 1,2 C 2,8 C 8,0 km/h (2 Bft) 100,00 %
13.11.2017 23:18 2,8 C 7,2 C 89 % 1019,6 hPa 0,0 l/m 10,2 km/h (2 Bft) W-SW 245 0 min 0,000 mm 0,0 UV-I 0 W/m 1,2 C -0,5 C 17,7 km/h (3 Bft) 100,00 %
13.11.2017 23:20 2,8 C 7,2 C 89 % 1019,6 hPa 0,0 l/m 7,6 km/h (2 Bft) W-SW 253 0 min 0,000 mm 0,0 UV-I 0 W/m 1,2 C 1,7 C 12,9 km/h (3 Bft) 97,62 %
13.11.2017 23:22 2,7 C 7,2 C 89 % 1019,7 hPa 0,0 l/m 7,0 km/h (2 Bft) W-SW 243 0 min 0,000 mm 0,0 UV-I 0 W/m 1,1 C 2,1 C 9,7 km/h (2 Bft) 98,00 %
13.11.2017 23:24 2,7 C 7,2 C 90 % 1019,7 hPa 0,0 l/m 6,2 km/h (2 Bft) W-SW 254 0 min 0,000 mm 0,0 UV-I 0 W/m 1,2 C 2,7 C 11,3 km/h (2 Bft) 98,00 %
13.11.2017 23:26 2,7 C 7,2 C 89 % 1019,8 hPa 0,0 l/m 7,1 km/h (2 Bft) W-SW 251 0 min 0,000 mm 0,0 UV-I 0 W/m 1,1 C 2,0 C 9,7 km/h (2 Bft) 96,00 %
13.11.2017 23:28 2,6 C 7,2 C 90 % 1019,8 hPa 0,0 l/m 7,8 km/h (2 Bft) W-SW 242 0 min 0,000 mm 0,0 UV-I 0 W/m 1,1 C 1,3 C 11,3 km/h (2 Bft) 97,37 %
13.11.2017 23:30 2,6 C 7,2 C 90 % 1019,8 hPa 0,0 l/m 6,5 km/h (2 Bft) W-SW 257 0 min 0,000 mm 0,0 UV-I 0 W/m 1,1 C 2,5 C 12,9 km/h (3 Bft) 100,00 %
13.11.2017 23:32 2,6 C 7,2 C 90 % 1019,7 hPa 0,0 l/m 7,9 km/h (2 Bft) W 263 0 min 0,000 mm 0,0 UV-I 0 W/m 1,1 C 1,2 C 11,3 km/h (2 Bft) 92,11 %
13.11.2017 23:34 2,6 C 7,2 C 90 % 1019,8 hPa 0,0 l/m 6,7 km/h (2 Bft) W-SW 244 0 min 0,000 mm 0,0 UV-I 0 W/m 1,1 C 2,3 C 11,3 km/h (2 Bft) 98,11 %
13.11.2017 23:36 2,6 C 7,2 C 90 % 1019,8 hPa 0,0 l/m 6,6 km/h (2 Bft) W-SW 242 0 min 0,000 mm 0,0 UV-I 0 W/m 1,1 C 2,4 C 9,7 km/h (2 Bft) 100,00 %
13.11.2017 23:38 2,6 C 7,2 C 90 % 1019,8 hPa 0,0 l/m 8,2 km/h (2 Bft) W-SW 244 0 min 0,000 mm 0,0 UV-I 0 W/m 1,1 C 0,9 C 12,9 km/h (3 Bft) 98,00 %
13.11.2017 23:40 2,6 C 7,2 C 90 % 1019,8 hPa 0,0 l/m 5,8 km/h (2 Bft) W-SW 250 0 min 0,000 mm 0,0 UV-I 0 W/m 1,1 C 2,6 C 8,0 km/h (2 Bft) 97,87 %
13.11.2017 23:42 2,4 C 7,2 C 90 % 1019,8 hPa 0,0 l/m 5,9 km/h (2 Bft) SW 232 0 min 0,000 mm 0,0 UV-I 0 W/m 0,9 C 2,4 C 8,0 km/h (2 Bft) 98,00 %
13.11.2017 23:44 2,4 C 7,2 C 90 % 1019,8 hPa 0,0 l/m 5,5 km/h (1 Bft) W-SW 245 0 min 0,000 mm 0,0 UV-I 0 W/m 0,9 C 2,4 C 8,0 km/h (2 Bft) 96,55 %
13.11.2017 23:46 2,3 C 7,2 C 90 % 1019,8 hPa 0,0 l/m 5,2 km/h (1 Bft) W-SW 242 0 min 0,000 mm 0,0 UV-I 0 W/m 0,8 C 2,3 C 8,0 km/h (2 Bft) 98,46 %
13.11.2017 23:48 2,3 C 7,2 C 91 % 1019,8 hPa 0,0 l/m 6,1 km/h (2 Bft) W-SW 241 0 min 0,000 mm 0,0 UV-I 0 W/m 1,0 C 2,3 C 8,0 km/h (2 Bft) 97,56 %
13.11.2017 23:50 2,2 C 7,2 C 91 % 1019,8 hPa 0,0 l/m 6,0 km/h (2 Bft) W-SW 238 0 min 0,000 mm 0,0 UV-I 0 W/m 0,9 C 2,2 C 11,3 km/h (2 Bft) 95,92 %
13.11.2017 23:52 2,2 C 7,2 C 91 % 1019,8 hPa 0,0 l/m 6,7 km/h (2 Bft) W 261 0 min 0,000 mm 0,0 UV-I 0 W/m 0,9 C 1,9 C 11,3 km/h (2 Bft) 94,00 %
13.11.2017 23:54 2,1 C 7,2 C 91 % 1019,9 hPa 0,0 l/m 6,6 km/h (2 Bft) W-SW 237 0 min 0,000 mm 0,0 UV-I 0 W/m 0,8 C 1,9 C 11,3 km/h (2 Bft) 95,74 %
13.11.2017 23:56 2,1 C 7,2 C 91 % 1019,9 hPa 0,0 l/m 5,2 km/h (1 Bft) SW 234 0 min 0,000 mm 0,0 UV-I 0 W/m 0,8 C 2,1 C 6,4 km/h (2 Bft) 97,87 %
13.11.2017 23:58 2,0 C 7,2 C 91 % 1019,9 hPa 0,0 l/m 5,4 km/h (1 Bft) SW 236 0 min 0,000 mm 0,0 UV-I 0 W/m 0,7 C 2,0 C 6,4 km/h (2 Bft) 92,86 %
_ Min-Zeit 23:58 12:34 14:04 00:00 - 14:30 - - - - - - 23:58 00:28 08:08 17:28
Minimum _ 2,0 C 7,2 C 80 % 1003,5 hPa - 2,9 km/h (1 Bft) - - - - - - 0,7 C -6,9 C 4,8 km/h (1 Bft) 90,91 %
_ Max-Zeit 14:42 00:00 04:32 23:54 05:56 00:28 - - 13:30 15:00 11:18 13:56 14:38 14:38 00:34 00:00
Maximum _ 5,3 C 7,8 C 92 % 1019,9 hPa 0,2 l/m 27,5 km/h
W (4 Bft)
- - 2 min 0,077 mm 0,5 UV-I 286 W/m 2,4 C 5,2 C 41,8 km/h
W (6 Bft)
100,00 %
Durchschnitt _ 3,7 C 7,6 C 87 % 1011,3 hPa #0,2 l/m 9,7 km/h (2 Bft) W - #1:08 h #0,584 mm 0,5 UV-I 92 W/m 1,7 C 1,0 C 15,8 km/h (3 Bft) 97,96 %